<?xml version="1.0" encoding="UTF-8" standalone="no" ?>
<gpx xmlns="http://www.topografix.com/GPX/1/1" xmlns:xsi="http://www.w3.org/2001/XMLSchema-instance" xsi:schemaLocation="http://www.topografix.com/GPX/1/1 http://www.topografix.com/GPX/1/1/gpx.xsd" version="1.1" creator="VisuGPX - https://www.visugpx.com">
  <metadata>
    <name>Perrigny - Revigny - Voie PLM</name>
    <desc><![CDATA[Randonnée pédestre effectuée le 19 avril 2018.]]></desc>
  </metadata>
  <trk>
    <name><![CDATA[20180420094057-cEbi6]]></name>
    <trkseg>
      <trkpt lat="46.66853" lon="5.58798">
        <ele>351</ele>
        <time>2018-04-19T07:01:24Z</time>
      </trkpt>
      <trkpt lat="46.66853" lon="5.58798">
        <ele>351</ele>
        <time>2018-04-19T07:01:25Z</time>
      </trkpt>
      <trkpt lat="46.66858" lon="5.588">
        <ele>352</ele>
        <time>2018-04-19T07:01:28Z</time>
      </trkpt>
      <trkpt lat="46.66855" lon="5.58805">
        <ele>352</ele>
        <time>2018-04-19T07:02:13Z</time>
      </trkpt>
      <trkpt lat="46.66854" lon="5.58812">
        <ele>353</ele>
        <time>2018-04-19T07:02:17Z</time>
      </trkpt>
      <trkpt lat="46.6685" lon="5.58826">
        <ele>353</ele>
        <time>2018-04-19T07:02:26Z</time>
      </trkpt>
      <trkpt lat="46.66846" lon="5.58831">
        <ele>354</ele>
        <time>2018-04-19T07:02:31Z</time>
      </trkpt>
      <trkpt lat="46.66843" lon="5.58837">
        <ele>358</ele>
        <time>2018-04-19T07:02:36Z</time>
      </trkpt>
      <trkpt lat="46.6684" lon="5.58844">
        <ele>358</ele>
        <time>2018-04-19T07:02:41Z</time>
      </trkpt>
      <trkpt lat="46.66835" lon="5.58853">
        <ele>359</ele>
        <time>2018-04-19T07:02:50Z</time>
      </trkpt>
      <trkpt lat="46.66832" lon="5.58861">
        <ele>358</ele>
        <time>2018-04-19T07:02:56Z</time>
      </trkpt>
      <trkpt lat="46.66828" lon="5.58866">
        <ele>358</ele>
        <time>2018-04-19T07:03:01Z</time>
      </trkpt>
      <trkpt lat="46.66825" lon="5.58872">
        <ele>359</ele>
        <time>2018-04-19T07:03:06Z</time>
      </trkpt>
      <trkpt lat="46.66818" lon="5.58883">
        <ele>360</ele>
        <time>2018-04-19T07:03:16Z</time>
      </trkpt>
      <trkpt lat="46.66814" lon="5.58884">
        <ele>360</ele>
        <time>2018-04-19T07:03:21Z</time>
      </trkpt>
      <trkpt lat="46.66809" lon="5.58884">
        <ele>360</ele>
        <time>2018-04-19T07:03:26Z</time>
      </trkpt>
      <trkpt lat="46.66803" lon="5.58883">
        <ele>359</ele>
        <time>2018-04-19T07:03:33Z</time>
      </trkpt>
      <trkpt lat="46.6679" lon="5.58885">
        <ele>359</ele>
        <time>2018-04-19T07:03:48Z</time>
      </trkpt>
      <trkpt lat="46.66785" lon="5.58887">
        <ele>359</ele>
        <time>2018-04-19T07:03:52Z</time>
      </trkpt>
      <trkpt lat="46.6678" lon="5.58888">
        <ele>359</ele>
        <time>2018-04-19T07:03:56Z</time>
      </trkpt>
      <trkpt lat="46.66775" lon="5.58891">
        <ele>360</ele>
        <time>2018-04-19T07:04:00Z</time>
      </trkpt>
      <trkpt lat="46.66772" lon="5.58894">
        <ele>360</ele>
        <time>2018-04-19T07:04:05Z</time>
      </trkpt>
      <trkpt lat="46.66767" lon="5.58897">
        <ele>360</ele>
        <time>2018-04-19T07:04:09Z</time>
      </trkpt>
      <trkpt lat="46.66762" lon="5.58899">
        <ele>360</ele>
        <time>2018-04-19T07:04:13Z</time>
      </trkpt>
      <trkpt lat="46.66757" lon="5.589">
        <ele>361</ele>
        <time>2018-04-19T07:04:17Z</time>
      </trkpt>
      <trkpt lat="46.66752" lon="5.58904">
        <ele>361</ele>
        <time>2018-04-19T07:04:21Z</time>
      </trkpt>
      <trkpt lat="46.66746" lon="5.58903">
        <ele>361</ele>
        <time>2018-04-19T07:04:25Z</time>
      </trkpt>
      <trkpt lat="46.66741" lon="5.58903">
        <ele>361</ele>
        <time>2018-04-19T07:04:29Z</time>
      </trkpt>
      <trkpt lat="46.66732" lon="5.58909">
        <ele>361</ele>
        <time>2018-04-19T07:04:39Z</time>
      </trkpt>
      <trkpt lat="46.66722" lon="5.58909">
        <ele>360</ele>
        <time>2018-04-19T07:04:49Z</time>
      </trkpt>
      <trkpt lat="46.66716" lon="5.58912">
        <ele>360</ele>
        <time>2018-04-19T07:04:56Z</time>
      </trkpt>
      <trkpt lat="46.6671" lon="5.58917">
        <ele>367</ele>
        <time>2018-04-19T07:05:03Z</time>
      </trkpt>
      <trkpt lat="46.66704" lon="5.58921">
        <ele>367</ele>
        <time>2018-04-19T07:05:10Z</time>
      </trkpt>
      <trkpt lat="46.667" lon="5.58927">
        <ele>367</ele>
        <time>2018-04-19T07:05:16Z</time>
      </trkpt>
      <trkpt lat="46.66694" lon="5.58942">
        <ele>368</ele>
        <time>2018-04-19T07:05:28Z</time>
      </trkpt>
      <trkpt lat="46.66692" lon="5.58951">
        <ele>368</ele>
        <time>2018-04-19T07:06:06Z</time>
      </trkpt>
      <trkpt lat="46.66686" lon="5.58956">
        <ele>369</ele>
        <time>2018-04-19T07:06:10Z</time>
      </trkpt>
      <trkpt lat="46.66681" lon="5.58961">
        <ele>369</ele>
        <time>2018-04-19T07:06:13Z</time>
      </trkpt>
      <trkpt lat="46.66673" lon="5.58963">
        <ele>369</ele>
        <time>2018-04-19T07:06:20Z</time>
      </trkpt>
      <trkpt lat="46.66667" lon="5.58967">
        <ele>370</ele>
        <time>2018-04-19T07:06:27Z</time>
      </trkpt>
      <trkpt lat="46.66664" lon="5.58973">
        <ele>367</ele>
        <time>2018-04-19T07:06:35Z</time>
      </trkpt>
      <trkpt lat="46.66656" lon="5.58981">
        <ele>368</ele>
        <time>2018-04-19T07:06:45Z</time>
      </trkpt>
      <trkpt lat="46.66652" lon="5.58984">
        <ele>368</ele>
        <time>2018-04-19T07:06:49Z</time>
      </trkpt>
      <trkpt lat="46.66645" lon="5.58995">
        <ele>367</ele>
        <time>2018-04-19T07:06:58Z</time>
      </trkpt>
      <trkpt lat="46.66637" lon="5.59003">
        <ele>373</ele>
        <time>2018-04-19T07:07:05Z</time>
      </trkpt>
      <trkpt lat="46.6663" lon="5.59015">
        <ele>373</ele>
        <time>2018-04-19T07:07:14Z</time>
      </trkpt>
      <trkpt lat="46.66625" lon="5.59018">
        <ele>373</ele>
        <time>2018-04-19T07:07:19Z</time>
      </trkpt>
      <trkpt lat="46.66622" lon="5.59023">
        <ele>373</ele>
        <time>2018-04-19T07:07:24Z</time>
      </trkpt>
      <trkpt lat="46.66618" lon="5.59028">
        <ele>373</ele>
        <time>2018-04-19T07:07:29Z</time>
      </trkpt>
      <trkpt lat="46.66612" lon="5.5904">
        <ele>374</ele>
        <time>2018-04-19T07:07:37Z</time>
      </trkpt>
      <trkpt lat="46.66608" lon="5.59043">
        <ele>374</ele>
        <time>2018-04-19T07:07:41Z</time>
      </trkpt>
      <trkpt lat="46.66602" lon="5.59048">
        <ele>375</ele>
        <time>2018-04-19T07:08:21Z</time>
      </trkpt>
      <trkpt lat="46.66597" lon="5.59052">
        <ele>375</ele>
        <time>2018-04-19T07:08:26Z</time>
      </trkpt>
      <trkpt lat="46.66592" lon="5.59065">
        <ele>376</ele>
        <time>2018-04-19T07:08:35Z</time>
      </trkpt>
      <trkpt lat="46.66588" lon="5.5907">
        <ele>377</ele>
        <time>2018-04-19T07:08:39Z</time>
      </trkpt>
      <trkpt lat="46.66585" lon="5.59075">
        <ele>378</ele>
        <time>2018-04-19T07:08:43Z</time>
      </trkpt>
      <trkpt lat="46.66581" lon="5.5908">
        <ele>377</ele>
        <time>2018-04-19T07:08:47Z</time>
      </trkpt>
      <trkpt lat="46.66578" lon="5.59089">
        <ele>378</ele>
        <time>2018-04-19T07:08:53Z</time>
      </trkpt>
      <trkpt lat="46.66576" lon="5.59095">
        <ele>378</ele>
        <time>2018-04-19T07:08:57Z</time>
      </trkpt>
      <trkpt lat="46.66569" lon="5.59106">
        <ele>378</ele>
        <time>2018-04-19T07:09:06Z</time>
      </trkpt>
      <trkpt lat="46.66564" lon="5.59118">
        <ele>378</ele>
        <time>2018-04-19T07:09:14Z</time>
      </trkpt>
      <trkpt lat="46.66559" lon="5.59139">
        <ele>379</ele>
        <time>2018-04-19T07:09:25Z</time>
      </trkpt>
      <trkpt lat="46.66558" lon="5.59148">
        <ele>380</ele>
        <time>2018-04-19T07:09:29Z</time>
      </trkpt>
      <trkpt lat="46.66556" lon="5.59156">
        <ele>380</ele>
        <time>2018-04-19T07:09:33Z</time>
      </trkpt>
      <trkpt lat="46.66554" lon="5.59163">
        <ele>380</ele>
        <time>2018-04-19T07:09:37Z</time>
      </trkpt>
      <trkpt lat="46.66551" lon="5.59176">
        <ele>384</ele>
        <time>2018-04-19T07:09:45Z</time>
      </trkpt>
      <trkpt lat="46.6655" lon="5.59184">
        <ele>384</ele>
        <time>2018-04-19T07:09:49Z</time>
      </trkpt>
      <trkpt lat="46.66547" lon="5.59198">
        <ele>383</ele>
        <time>2018-04-19T07:09:57Z</time>
      </trkpt>
      <trkpt lat="46.66546" lon="5.59206">
        <ele>383</ele>
        <time>2018-04-19T07:10:01Z</time>
      </trkpt>
      <trkpt lat="46.66542" lon="5.59218">
        <ele>383</ele>
        <time>2018-04-19T07:10:11Z</time>
      </trkpt>
      <trkpt lat="46.66539" lon="5.59226">
        <ele>383</ele>
        <time>2018-04-19T07:10:18Z</time>
      </trkpt>
      <trkpt lat="46.66538" lon="5.59234">
        <ele>383</ele>
        <time>2018-04-19T07:10:22Z</time>
      </trkpt>
      <trkpt lat="46.66534" lon="5.59246">
        <ele>382</ele>
        <time>2018-04-19T07:10:30Z</time>
      </trkpt>
      <trkpt lat="46.66533" lon="5.59253">
        <ele>385</ele>
        <time>2018-04-19T07:10:35Z</time>
      </trkpt>
      <trkpt lat="46.66532" lon="5.5926">
        <ele>385</ele>
        <time>2018-04-19T07:10:39Z</time>
      </trkpt>
      <trkpt lat="46.6653" lon="5.59266">
        <ele>385</ele>
        <time>2018-04-19T07:10:44Z</time>
      </trkpt>
      <trkpt lat="46.66528" lon="5.59273">
        <ele>385</ele>
        <time>2018-04-19T07:10:52Z</time>
      </trkpt>
      <trkpt lat="46.66529" lon="5.5928">
        <ele>385</ele>
        <time>2018-04-19T07:11:16Z</time>
      </trkpt>
      <trkpt lat="46.66532" lon="5.59284">
        <ele>386</ele>
        <time>2018-04-19T07:12:40Z</time>
      </trkpt>
      <trkpt lat="46.66529" lon="5.59291">
        <ele>386</ele>
        <time>2018-04-19T07:13:39Z</time>
      </trkpt>
      <trkpt lat="46.6653" lon="5.59303">
        <ele>386</ele>
        <time>2018-04-19T07:13:47Z</time>
      </trkpt>
      <trkpt lat="46.66528" lon="5.5931">
        <ele>386</ele>
        <time>2018-04-19T07:13:51Z</time>
      </trkpt>
      <trkpt lat="46.66527" lon="5.59317">
        <ele>386</ele>
        <time>2018-04-19T07:13:55Z</time>
      </trkpt>
      <trkpt lat="46.66527" lon="5.59325">
        <ele>385</ele>
        <time>2018-04-19T07:14:00Z</time>
      </trkpt>
      <trkpt lat="46.66525" lon="5.59332">
        <ele>385</ele>
        <time>2018-04-19T07:14:04Z</time>
      </trkpt>
      <trkpt lat="46.66525" lon="5.59339">
        <ele>388</ele>
        <time>2018-04-19T07:14:08Z</time>
      </trkpt>
      <trkpt lat="46.66524" lon="5.59347">
        <ele>389</ele>
        <time>2018-04-19T07:14:13Z</time>
      </trkpt>
      <trkpt lat="46.66521" lon="5.59359">
        <ele>389</ele>
        <time>2018-04-19T07:14:19Z</time>
      </trkpt>
      <trkpt lat="46.6652" lon="5.59374">
        <ele>390</ele>
        <time>2018-04-19T07:14:27Z</time>
      </trkpt>
      <trkpt lat="46.66521" lon="5.5938">
        <ele>391</ele>
        <time>2018-04-19T07:14:31Z</time>
      </trkpt>
      <trkpt lat="46.66521" lon="5.59394">
        <ele>390</ele>
        <time>2018-04-19T07:14:38Z</time>
      </trkpt>
      <trkpt lat="46.6652" lon="5.59401">
        <ele>390</ele>
        <time>2018-04-19T07:14:42Z</time>
      </trkpt>
      <trkpt lat="46.66519" lon="5.59417">
        <ele>391</ele>
        <time>2018-04-19T07:14:50Z</time>
      </trkpt>
      <trkpt lat="46.66519" lon="5.59431">
        <ele>392</ele>
        <time>2018-04-19T07:14:58Z</time>
      </trkpt>
      <trkpt lat="46.66515" lon="5.59446">
        <ele>394</ele>
        <time>2018-04-19T07:15:06Z</time>
      </trkpt>
      <trkpt lat="46.66513" lon="5.5947">
        <ele>394</ele>
        <time>2018-04-19T07:15:23Z</time>
      </trkpt>
      <trkpt lat="46.66512" lon="5.59483">
        <ele>393</ele>
        <time>2018-04-19T07:15:30Z</time>
      </trkpt>
      <trkpt lat="46.6651" lon="5.59489">
        <ele>392</ele>
        <time>2018-04-19T07:15:33Z</time>
      </trkpt>
      <trkpt lat="46.66509" lon="5.59498">
        <ele>390</ele>
        <time>2018-04-19T07:15:37Z</time>
      </trkpt>
      <trkpt lat="46.66507" lon="5.59505">
        <ele>391</ele>
        <time>2018-04-19T07:15:41Z</time>
      </trkpt>
      <trkpt lat="46.66505" lon="5.59512">
        <ele>393</ele>
        <time>2018-04-19T07:15:46Z</time>
      </trkpt>
      <trkpt lat="46.66505" lon="5.59522">
        <ele>395</ele>
        <time>2018-04-19T07:15:52Z</time>
      </trkpt>
      <trkpt lat="46.66506" lon="5.59528">
        <ele>397</ele>
        <time>2018-04-19T07:15:56Z</time>
      </trkpt>
      <trkpt lat="46.66505" lon="5.59535">
        <ele>398</ele>
        <time>2018-04-19T07:16:00Z</time>
      </trkpt>
      <trkpt lat="46.66504" lon="5.59543">
        <ele>398</ele>
        <time>2018-04-19T07:16:04Z</time>
      </trkpt>
      <trkpt lat="46.66503" lon="5.5955">
        <ele>398</ele>
        <time>2018-04-19T07:16:08Z</time>
      </trkpt>
      <trkpt lat="46.66501" lon="5.59556">
        <ele>398</ele>
        <time>2018-04-19T07:16:12Z</time>
      </trkpt>
      <trkpt lat="46.66497" lon="5.59568">
        <ele>386</ele>
        <time>2018-04-19T07:16:20Z</time>
      </trkpt>
      <trkpt lat="46.66495" lon="5.59575">
        <ele>388</ele>
        <time>2018-04-19T07:16:24Z</time>
      </trkpt>
      <trkpt lat="46.66494" lon="5.59581">
        <ele>389</ele>
        <time>2018-04-19T07:16:28Z</time>
      </trkpt>
      <trkpt lat="46.66491" lon="5.59588">
        <ele>391</ele>
        <time>2018-04-19T07:16:33Z</time>
      </trkpt>
      <trkpt lat="46.66488" lon="5.59605">
        <ele>391</ele>
        <time>2018-04-19T07:16:43Z</time>
      </trkpt>
      <trkpt lat="46.66484" lon="5.59617">
        <ele>391</ele>
        <time>2018-04-19T07:16:52Z</time>
      </trkpt>
      <trkpt lat="46.66481" lon="5.59622">
        <ele>391</ele>
        <time>2018-04-19T07:16:56Z</time>
      </trkpt>
      <trkpt lat="46.66478" lon="5.59627">
        <ele>391</ele>
        <time>2018-04-19T07:17:01Z</time>
      </trkpt>
      <trkpt lat="46.66474" lon="5.59633">
        <ele>392</ele>
        <time>2018-04-19T07:17:06Z</time>
      </trkpt>
      <trkpt lat="46.66471" lon="5.5964">
        <ele>392</ele>
        <time>2018-04-19T07:17:10Z</time>
      </trkpt>
      <trkpt lat="46.6647" lon="5.59647">
        <ele>393</ele>
        <time>2018-04-19T07:17:13Z</time>
      </trkpt>
      <trkpt lat="46.66468" lon="5.59653">
        <ele>393</ele>
        <time>2018-04-19T07:17:17Z</time>
      </trkpt>
      <trkpt lat="46.66459" lon="5.5966">
        <ele>391</ele>
        <time>2018-04-19T07:17:26Z</time>
      </trkpt>
      <trkpt lat="46.66456" lon="5.59666">
        <ele>391</ele>
        <time>2018-04-19T07:17:30Z</time>
      </trkpt>
      <trkpt lat="46.66449" lon="5.59676">
        <ele>399</ele>
        <time>2018-04-19T07:17:38Z</time>
      </trkpt>
      <trkpt lat="46.66436" lon="5.59695">
        <ele>399</ele>
        <time>2018-04-19T07:17:54Z</time>
      </trkpt>
      <trkpt lat="46.66431" lon="5.59697">
        <ele>399</ele>
        <time>2018-04-19T07:17:59Z</time>
      </trkpt>
      <trkpt lat="46.66431" lon="5.59705">
        <ele>400</ele>
        <time>2018-04-19T07:18:02Z</time>
      </trkpt>
      <trkpt lat="46.66426" lon="5.59718">
        <ele>401</ele>
        <time>2018-04-19T07:18:09Z</time>
      </trkpt>
      <trkpt lat="46.66421" lon="5.59719">
        <ele>401</ele>
        <time>2018-04-19T07:18:13Z</time>
      </trkpt>
      <trkpt lat="46.66416" lon="5.59717">
        <ele>391</ele>
        <time>2018-04-19T07:18:17Z</time>
      </trkpt>
      <trkpt lat="46.66412" lon="5.59722">
        <ele>391</ele>
        <time>2018-04-19T07:18:21Z</time>
      </trkpt>
      <trkpt lat="46.66407" lon="5.59725">
        <ele>392</ele>
        <time>2018-04-19T07:18:26Z</time>
      </trkpt>
      <trkpt lat="46.6639" lon="5.59729">
        <ele>390</ele>
        <time>2018-04-19T07:18:42Z</time>
      </trkpt>
      <trkpt lat="46.66383" lon="5.59735">
        <ele>390</ele>
        <time>2018-04-19T07:18:51Z</time>
      </trkpt>
      <trkpt lat="46.66378" lon="5.59739">
        <ele>390</ele>
        <time>2018-04-19T07:18:58Z</time>
      </trkpt>
      <trkpt lat="46.66374" lon="5.59744">
        <ele>389</ele>
        <time>2018-04-19T07:19:02Z</time>
      </trkpt>
      <trkpt lat="46.6637" lon="5.59749">
        <ele>389</ele>
        <time>2018-04-19T07:19:07Z</time>
      </trkpt>
      <trkpt lat="46.66365" lon="5.59752">
        <ele>401</ele>
        <time>2018-04-19T07:19:11Z</time>
      </trkpt>
      <trkpt lat="46.66343" lon="5.59766">
        <ele>398</ele>
        <time>2018-04-19T07:19:31Z</time>
      </trkpt>
      <trkpt lat="46.66343" lon="5.5978">
        <ele>402</ele>
        <time>2018-04-19T07:19:39Z</time>
      </trkpt>
      <trkpt lat="46.66341" lon="5.59787">
        <ele>403</ele>
        <time>2018-04-19T07:19:48Z</time>
      </trkpt>
      <trkpt lat="46.66336" lon="5.59787">
        <ele>403</ele>
        <time>2018-04-19T07:19:53Z</time>
      </trkpt>
      <trkpt lat="46.66323" lon="5.59789">
        <ele>395</ele>
        <time>2018-04-19T07:20:06Z</time>
      </trkpt>
      <trkpt lat="46.66314" lon="5.59794">
        <ele>396</ele>
        <time>2018-04-19T07:20:16Z</time>
      </trkpt>
      <trkpt lat="46.66297" lon="5.59801">
        <ele>396</ele>
        <time>2018-04-19T07:20:36Z</time>
      </trkpt>
      <trkpt lat="46.66292" lon="5.59805">
        <ele>396</ele>
        <time>2018-04-19T07:21:23Z</time>
      </trkpt>
      <trkpt lat="46.66288" lon="5.59809">
        <ele>396</ele>
        <time>2018-04-19T07:21:28Z</time>
      </trkpt>
      <trkpt lat="46.66282" lon="5.59812">
        <ele>396</ele>
        <time>2018-04-19T07:21:31Z</time>
      </trkpt>
      <trkpt lat="46.66276" lon="5.59815">
        <ele>396</ele>
        <time>2018-04-19T07:21:35Z</time>
      </trkpt>
      <trkpt lat="46.66267" lon="5.59818">
        <ele>397</ele>
        <time>2018-04-19T07:21:42Z</time>
      </trkpt>
      <trkpt lat="46.66256" lon="5.5982">
        <ele>398</ele>
        <time>2018-04-19T07:21:52Z</time>
      </trkpt>
      <trkpt lat="46.66251" lon="5.59821">
        <ele>398</ele>
        <time>2018-04-19T07:21:57Z</time>
      </trkpt>
      <trkpt lat="46.66246" lon="5.59822">
        <ele>395</ele>
        <time>2018-04-19T07:22:02Z</time>
      </trkpt>
      <trkpt lat="46.66236" lon="5.59823">
        <ele>394</ele>
        <time>2018-04-19T07:22:12Z</time>
      </trkpt>
      <trkpt lat="46.66226" lon="5.59826">
        <ele>392</ele>
        <time>2018-04-19T07:22:21Z</time>
      </trkpt>
      <trkpt lat="46.66211" lon="5.59829">
        <ele>391</ele>
        <time>2018-04-19T07:22:33Z</time>
      </trkpt>
      <trkpt lat="46.66206" lon="5.5983">
        <ele>391</ele>
        <time>2018-04-19T07:22:37Z</time>
      </trkpt>
      <trkpt lat="46.66201" lon="5.59831">
        <ele>391</ele>
        <time>2018-04-19T07:22:41Z</time>
      </trkpt>
      <trkpt lat="46.66196" lon="5.59832">
        <ele>391</ele>
        <time>2018-04-19T07:22:45Z</time>
      </trkpt>
      <trkpt lat="46.66192" lon="5.59833">
        <ele>392</ele>
        <time>2018-04-19T07:22:49Z</time>
      </trkpt>
      <trkpt lat="46.66187" lon="5.59835">
        <ele>406</ele>
        <time>2018-04-19T07:22:53Z</time>
      </trkpt>
      <trkpt lat="46.66182" lon="5.59835">
        <ele>404</ele>
        <time>2018-04-19T07:22:58Z</time>
      </trkpt>
      <trkpt lat="46.66172" lon="5.59837">
        <ele>401</ele>
        <time>2018-04-19T07:23:06Z</time>
      </trkpt>
      <trkpt lat="46.66167" lon="5.59838">
        <ele>400</ele>
        <time>2018-04-19T07:23:10Z</time>
      </trkpt>
      <trkpt lat="46.66163" lon="5.59838">
        <ele>400</ele>
        <time>2018-04-19T07:23:14Z</time>
      </trkpt>
      <trkpt lat="46.66152" lon="5.5984">
        <ele>402</ele>
        <time>2018-04-19T07:23:23Z</time>
      </trkpt>
      <trkpt lat="46.66142" lon="5.59843">
        <ele>404</ele>
        <time>2018-04-19T07:23:32Z</time>
      </trkpt>
      <trkpt lat="46.66131" lon="5.59846">
        <ele>404</ele>
        <time>2018-04-19T07:23:42Z</time>
      </trkpt>
      <trkpt lat="46.66121" lon="5.59848">
        <ele>404</ele>
        <time>2018-04-19T07:23:52Z</time>
      </trkpt>
      <trkpt lat="46.66116" lon="5.59849">
        <ele>404</ele>
        <time>2018-04-19T07:24:00Z</time>
      </trkpt>
      <trkpt lat="46.66117" lon="5.59856">
        <ele>405</ele>
        <time>2018-04-19T07:24:08Z</time>
      </trkpt>
      <trkpt lat="46.66115" lon="5.59863">
        <ele>406</ele>
        <time>2018-04-19T07:24:26Z</time>
      </trkpt>
      <trkpt lat="46.6611" lon="5.59863">
        <ele>405</ele>
        <time>2018-04-19T07:24:30Z</time>
      </trkpt>
      <trkpt lat="46.66105" lon="5.59862">
        <ele>405</ele>
        <time>2018-04-19T07:24:35Z</time>
      </trkpt>
      <trkpt lat="46.66099" lon="5.59865">
        <ele>405</ele>
        <time>2018-04-19T07:24:50Z</time>
      </trkpt>
      <trkpt lat="46.66093" lon="5.59869">
        <ele>406</ele>
        <time>2018-04-19T07:24:56Z</time>
      </trkpt>
      <trkpt lat="46.66088" lon="5.59869">
        <ele>405</ele>
        <time>2018-04-19T07:25:00Z</time>
      </trkpt>
      <trkpt lat="46.66084" lon="5.59869">
        <ele>405</ele>
        <time>2018-04-19T07:25:04Z</time>
      </trkpt>
      <trkpt lat="46.66079" lon="5.59869">
        <ele>400</ele>
        <time>2018-04-19T07:25:08Z</time>
      </trkpt>
      <trkpt lat="46.66074" lon="5.59869">
        <ele>400</ele>
        <time>2018-04-19T07:25:12Z</time>
      </trkpt>
      <trkpt lat="46.66053" lon="5.5987">
        <ele>400</ele>
        <time>2018-04-19T07:25:28Z</time>
      </trkpt>
      <trkpt lat="46.66048" lon="5.59871">
        <ele>400</ele>
        <time>2018-04-19T07:25:33Z</time>
      </trkpt>
      <trkpt lat="46.66044" lon="5.59876">
        <ele>400</ele>
        <time>2018-04-19T07:25:38Z</time>
      </trkpt>
      <trkpt lat="46.66034" lon="5.5988">
        <ele>400</ele>
        <time>2018-04-19T07:25:44Z</time>
      </trkpt>
      <trkpt lat="46.6603" lon="5.59882">
        <ele>400</ele>
        <time>2018-04-19T07:25:48Z</time>
      </trkpt>
      <trkpt lat="46.66027" lon="5.59888">
        <ele>401</ele>
        <time>2018-04-19T07:25:52Z</time>
      </trkpt>
      <trkpt lat="46.66023" lon="5.59892">
        <ele>401</ele>
        <time>2018-04-19T07:25:56Z</time>
      </trkpt>
      <trkpt lat="46.66013" lon="5.59896">
        <ele>402</ele>
        <time>2018-04-19T07:26:04Z</time>
      </trkpt>
      <trkpt lat="46.66009" lon="5.599">
        <ele>402</ele>
        <time>2018-04-19T07:26:08Z</time>
      </trkpt>
      <trkpt lat="46.66005" lon="5.59903">
        <ele>403</ele>
        <time>2018-04-19T07:26:12Z</time>
      </trkpt>
      <trkpt lat="46.65996" lon="5.59907">
        <ele>398</ele>
        <time>2018-04-19T07:26:20Z</time>
      </trkpt>
      <trkpt lat="46.65987" lon="5.59914">
        <ele>397</ele>
        <time>2018-04-19T07:26:29Z</time>
      </trkpt>
      <trkpt lat="46.65983" lon="5.59917">
        <ele>406</ele>
        <time>2018-04-19T07:26:33Z</time>
      </trkpt>
      <trkpt lat="46.65978" lon="5.59918">
        <ele>405</ele>
        <time>2018-04-19T07:26:37Z</time>
      </trkpt>
      <trkpt lat="46.65974" lon="5.59922">
        <ele>405</ele>
        <time>2018-04-19T07:26:41Z</time>
      </trkpt>
      <trkpt lat="46.6596" lon="5.59932">
        <ele>404</ele>
        <time>2018-04-19T07:26:55Z</time>
      </trkpt>
      <trkpt lat="46.65955" lon="5.59935">
        <ele>404</ele>
        <time>2018-04-19T07:26:59Z</time>
      </trkpt>
      <trkpt lat="46.65946" lon="5.59939">
        <ele>403</ele>
        <time>2018-04-19T07:27:07Z</time>
      </trkpt>
      <trkpt lat="46.65942" lon="5.59943">
        <ele>403</ele>
        <time>2018-04-19T07:27:12Z</time>
      </trkpt>
      <trkpt lat="46.65932" lon="5.59948">
        <ele>403</ele>
        <time>2018-04-19T07:27:22Z</time>
      </trkpt>
      <trkpt lat="46.65923" lon="5.59956">
        <ele>404</ele>
        <time>2018-04-19T07:27:32Z</time>
      </trkpt>
      <trkpt lat="46.65919" lon="5.5996">
        <ele>404</ele>
        <time>2018-04-19T07:27:36Z</time>
      </trkpt>
      <trkpt lat="46.65916" lon="5.59965">
        <ele>392</ele>
        <time>2018-04-19T07:27:40Z</time>
      </trkpt>
      <trkpt lat="46.65909" lon="5.59977">
        <ele>395</ele>
        <time>2018-04-19T07:27:49Z</time>
      </trkpt>
      <trkpt lat="46.65904" lon="5.59983">
        <ele>396</ele>
        <time>2018-04-19T07:27:54Z</time>
      </trkpt>
      <trkpt lat="46.659" lon="5.59986">
        <ele>396</ele>
        <time>2018-04-19T07:27:58Z</time>
      </trkpt>
      <trkpt lat="46.65896" lon="5.5999">
        <ele>395</ele>
        <time>2018-04-19T07:28:02Z</time>
      </trkpt>
      <trkpt lat="46.65892" lon="5.59994">
        <ele>394</ele>
        <time>2018-04-19T07:28:06Z</time>
      </trkpt>
      <trkpt lat="46.65888" lon="5.6">
        <ele>394</ele>
        <time>2018-04-19T07:28:10Z</time>
      </trkpt>
      <trkpt lat="46.65885" lon="5.60005">
        <ele>405</ele>
        <time>2018-04-19T07:28:14Z</time>
      </trkpt>
      <trkpt lat="46.65883" lon="5.60011">
        <ele>405</ele>
        <time>2018-04-19T07:28:18Z</time>
      </trkpt>
      <trkpt lat="46.6588" lon="5.60022">
        <ele>405</ele>
        <time>2018-04-19T07:28:23Z</time>
      </trkpt>
      <trkpt lat="46.65876" lon="5.60027">
        <ele>405</ele>
        <time>2018-04-19T07:28:28Z</time>
      </trkpt>
      <trkpt lat="46.65873" lon="5.60033">
        <ele>405</ele>
        <time>2018-04-19T07:28:32Z</time>
      </trkpt>
      <trkpt lat="46.65867" lon="5.60045">
        <ele>406</ele>
        <time>2018-04-19T07:28:41Z</time>
      </trkpt>
      <trkpt lat="46.65865" lon="5.60051">
        <ele>406</ele>
        <time>2018-04-19T07:28:45Z</time>
      </trkpt>
      <trkpt lat="46.65858" lon="5.60063">
        <ele>406</ele>
        <time>2018-04-19T07:28:53Z</time>
      </trkpt>
      <trkpt lat="46.65856" lon="5.6007">
        <ele>406</ele>
        <time>2018-04-19T07:28:57Z</time>
      </trkpt>
      <trkpt lat="46.65852" lon="5.60075">
        <ele>405</ele>
        <time>2018-04-19T07:29:02Z</time>
      </trkpt>
      <trkpt lat="46.65847" lon="5.60078">
        <ele>404</ele>
        <time>2018-04-19T07:29:07Z</time>
      </trkpt>
      <trkpt lat="46.65843" lon="5.60082">
        <ele>404</ele>
        <time>2018-04-19T07:29:12Z</time>
      </trkpt>
      <trkpt lat="46.65839" lon="5.60088">
        <ele>407</ele>
        <time>2018-04-19T07:29:17Z</time>
      </trkpt>
      <trkpt lat="46.65838" lon="5.60094">
        <ele>409</ele>
        <time>2018-04-19T07:29:21Z</time>
      </trkpt>
      <trkpt lat="46.65834" lon="5.60099">
        <ele>410</ele>
        <time>2018-04-19T07:29:25Z</time>
      </trkpt>
      <trkpt lat="46.65829" lon="5.60103">
        <ele>397</ele>
        <time>2018-04-19T07:29:32Z</time>
      </trkpt>
      <trkpt lat="46.65822" lon="5.60113">
        <ele>395</ele>
        <time>2018-04-19T07:29:42Z</time>
      </trkpt>
      <trkpt lat="46.65819" lon="5.60119">
        <ele>395</ele>
        <time>2018-04-19T07:29:47Z</time>
      </trkpt>
      <trkpt lat="46.65812" lon="5.60123">
        <ele>394</ele>
        <time>2018-04-19T07:29:55Z</time>
      </trkpt>
      <trkpt lat="46.65808" lon="5.60127">
        <ele>394</ele>
        <time>2018-04-19T07:30:00Z</time>
      </trkpt>
      <trkpt lat="46.65803" lon="5.60148">
        <ele>394</ele>
        <time>2018-04-19T07:31:01Z</time>
      </trkpt>
      <trkpt lat="46.65802" lon="5.60156">
        <ele>395</ele>
        <time>2018-04-19T07:31:55Z</time>
      </trkpt>
      <trkpt lat="46.65803" lon="5.60153">
        <ele>395</ele>
        <time>2018-04-19T07:32:37Z</time>
      </trkpt>
      <trkpt lat="46.65806" lon="5.60162">
        <ele>396</ele>
        <time>2018-04-19T07:33:18Z</time>
      </trkpt>
      <trkpt lat="46.65802" lon="5.60167">
        <ele>397</ele>
        <time>2018-04-19T07:33:24Z</time>
      </trkpt>
      <trkpt lat="46.65799" lon="5.60186">
        <ele>396</ele>
        <time>2018-04-19T07:33:40Z</time>
      </trkpt>
      <trkpt lat="46.65798" lon="5.60193">
        <ele>396</ele>
        <time>2018-04-19T07:33:45Z</time>
      </trkpt>
      <trkpt lat="46.65798" lon="5.60199">
        <ele>396</ele>
        <time>2018-04-19T07:33:50Z</time>
      </trkpt>
      <trkpt lat="46.65797" lon="5.60206">
        <ele>396</ele>
        <time>2018-04-19T07:33:58Z</time>
      </trkpt>
      <trkpt lat="46.65798" lon="5.60213">
        <ele>396</ele>
        <time>2018-04-19T07:34:03Z</time>
      </trkpt>
      <trkpt lat="46.65799" lon="5.60223">
        <ele>397</ele>
        <time>2018-04-19T07:34:11Z</time>
      </trkpt>
      <trkpt lat="46.658" lon="5.60229">
        <ele>397</ele>
        <time>2018-04-19T07:34:15Z</time>
      </trkpt>
      <trkpt lat="46.65802" lon="5.60236">
        <ele>398</ele>
        <time>2018-04-19T07:34:20Z</time>
      </trkpt>
      <trkpt lat="46.65803" lon="5.6025">
        <ele>399</ele>
        <time>2018-04-19T07:34:30Z</time>
      </trkpt>
      <trkpt lat="46.65805" lon="5.60256">
        <ele>399</ele>
        <time>2018-04-19T07:34:39Z</time>
      </trkpt>
      <trkpt lat="46.65806" lon="5.60265">
        <ele>399</ele>
        <time>2018-04-19T07:35:39Z</time>
      </trkpt>
      <trkpt lat="46.6581" lon="5.60267">
        <ele>400</ele>
        <time>2018-04-19T07:36:15Z</time>
      </trkpt>
      <trkpt lat="46.65814" lon="5.60273">
        <ele>400</ele>
        <time>2018-04-19T07:36:40Z</time>
      </trkpt>
      <trkpt lat="46.65813" lon="5.6028">
        <ele>399</ele>
        <time>2018-04-19T07:36:45Z</time>
      </trkpt>
      <trkpt lat="46.65813" lon="5.60287">
        <ele>399</ele>
        <time>2018-04-19T07:36:50Z</time>
      </trkpt>
      <trkpt lat="46.65815" lon="5.60298">
        <ele>399</ele>
        <time>2018-04-19T07:37:03Z</time>
      </trkpt>
      <trkpt lat="46.65818" lon="5.60303">
        <ele>400</ele>
        <time>2018-04-19T07:37:10Z</time>
      </trkpt>
      <trkpt lat="46.65819" lon="5.6031">
        <ele>400</ele>
        <time>2018-04-19T07:37:15Z</time>
      </trkpt>
      <trkpt lat="46.65819" lon="5.60317">
        <ele>401</ele>
        <time>2018-04-19T07:37:21Z</time>
      </trkpt>
      <trkpt lat="46.65822" lon="5.60331">
        <ele>404</ele>
        <time>2018-04-19T07:37:59Z</time>
      </trkpt>
      <trkpt lat="46.65821" lon="5.60341">
        <ele>401</ele>
        <time>2018-04-19T07:38:05Z</time>
      </trkpt>
      <trkpt lat="46.65823" lon="5.60355">
        <ele>399</ele>
        <time>2018-04-19T07:38:15Z</time>
      </trkpt>
      <trkpt lat="46.65825" lon="5.60362">
        <ele>398</ele>
        <time>2018-04-19T07:38:20Z</time>
      </trkpt>
      <trkpt lat="46.65826" lon="5.60372">
        <ele>397</ele>
        <time>2018-04-19T07:38:28Z</time>
      </trkpt>
      <trkpt lat="46.65834" lon="5.60397">
        <ele>413</ele>
        <time>2018-04-19T07:38:44Z</time>
      </trkpt>
      <trkpt lat="46.65836" lon="5.60406">
        <ele>410</ele>
        <time>2018-04-19T07:38:54Z</time>
      </trkpt>
      <trkpt lat="46.6584" lon="5.60412">
        <ele>409</ele>
        <time>2018-04-19T07:38:59Z</time>
      </trkpt>
      <trkpt lat="46.65841" lon="5.60419">
        <ele>405</ele>
        <time>2018-04-19T07:39:03Z</time>
      </trkpt>
      <trkpt lat="46.65847" lon="5.60426">
        <ele>406</ele>
        <time>2018-04-19T07:39:13Z</time>
      </trkpt>
      <trkpt lat="46.6585" lon="5.60432">
        <ele>407</ele>
        <time>2018-04-19T07:39:18Z</time>
      </trkpt>
      <trkpt lat="46.65855" lon="5.60437">
        <ele>407</ele>
        <time>2018-04-19T07:39:25Z</time>
      </trkpt>
      <trkpt lat="46.65862" lon="5.60436">
        <ele>408</ele>
        <time>2018-04-19T07:39:31Z</time>
      </trkpt>
      <trkpt lat="46.65867" lon="5.60431">
        <ele>410</ele>
        <time>2018-04-19T07:39:34Z</time>
      </trkpt>
      <trkpt lat="46.65875" lon="5.60432">
        <ele>411</ele>
        <time>2018-04-19T07:39:49Z</time>
      </trkpt>
      <trkpt lat="46.65878" lon="5.60436">
        <ele>411</ele>
        <time>2018-04-19T07:39:54Z</time>
      </trkpt>
      <trkpt lat="46.65882" lon="5.60445">
        <ele>411</ele>
        <time>2018-04-19T07:40:06Z</time>
      </trkpt>
      <trkpt lat="46.65886" lon="5.6045">
        <ele>411</ele>
        <time>2018-04-19T07:40:11Z</time>
      </trkpt>
      <trkpt lat="46.65891" lon="5.60456">
        <ele>411</ele>
        <time>2018-04-19T07:40:18Z</time>
      </trkpt>
      <trkpt lat="46.65892" lon="5.6047">
        <ele>410</ele>
        <time>2018-04-19T07:40:26Z</time>
      </trkpt>
      <trkpt lat="46.659" lon="5.60478">
        <ele>410</ele>
        <time>2018-04-19T07:40:35Z</time>
      </trkpt>
      <trkpt lat="46.65903" lon="5.60485">
        <ele>410</ele>
        <time>2018-04-19T07:40:39Z</time>
      </trkpt>
      <trkpt lat="46.65907" lon="5.60489">
        <ele>410</ele>
        <time>2018-04-19T07:40:43Z</time>
      </trkpt>
      <trkpt lat="46.65909" lon="5.60496">
        <ele>410</ele>
        <time>2018-04-19T07:40:47Z</time>
      </trkpt>
      <trkpt lat="46.65913" lon="5.60502">
        <ele>408</ele>
        <time>2018-04-19T07:40:51Z</time>
      </trkpt>
      <trkpt lat="46.65916" lon="5.60508">
        <ele>405</ele>
        <time>2018-04-19T07:40:55Z</time>
      </trkpt>
      <trkpt lat="46.65921" lon="5.60509">
        <ele>411</ele>
        <time>2018-04-19T07:40:59Z</time>
      </trkpt>
      <trkpt lat="46.65926" lon="5.6051">
        <ele>411</ele>
        <time>2018-04-19T07:41:02Z</time>
      </trkpt>
      <trkpt lat="46.65936" lon="5.60513">
        <ele>411</ele>
        <time>2018-04-19T07:41:08Z</time>
      </trkpt>
      <trkpt lat="46.6594" lon="5.60516">
        <ele>411</ele>
        <time>2018-04-19T07:41:12Z</time>
      </trkpt>
      <trkpt lat="46.6595" lon="5.60524">
        <ele>411</ele>
        <time>2018-04-19T07:41:23Z</time>
      </trkpt>
      <trkpt lat="46.65956" lon="5.60527">
        <ele>412</ele>
        <time>2018-04-19T07:41:31Z</time>
      </trkpt>
      <trkpt lat="46.6596" lon="5.6053">
        <ele>412</ele>
        <time>2018-04-19T07:41:36Z</time>
      </trkpt>
      <trkpt lat="46.65964" lon="5.60534">
        <ele>412</ele>
        <time>2018-04-19T07:41:40Z</time>
      </trkpt>
      <trkpt lat="46.65967" lon="5.60539">
        <ele>412</ele>
        <time>2018-04-19T07:41:44Z</time>
      </trkpt>
      <trkpt lat="46.6597" lon="5.60544">
        <ele>411</ele>
        <time>2018-04-19T07:41:49Z</time>
      </trkpt>
      <trkpt lat="46.65975" lon="5.60546">
        <ele>411</ele>
        <time>2018-04-19T07:41:53Z</time>
      </trkpt>
      <trkpt lat="46.65979" lon="5.60557">
        <ele>410</ele>
        <time>2018-04-19T07:42:02Z</time>
      </trkpt>
      <trkpt lat="46.65983" lon="5.60561">
        <ele>410</ele>
        <time>2018-04-19T07:42:07Z</time>
      </trkpt>
      <trkpt lat="46.65988" lon="5.60563">
        <ele>409</ele>
        <time>2018-04-19T07:42:11Z</time>
      </trkpt>
      <trkpt lat="46.65993" lon="5.60564">
        <ele>409</ele>
        <time>2018-04-19T07:42:15Z</time>
      </trkpt>
      <trkpt lat="46.65996" lon="5.60568">
        <ele>409</ele>
        <time>2018-04-19T07:42:19Z</time>
      </trkpt>
      <trkpt lat="46.66002" lon="5.60569">
        <ele>420</ele>
        <time>2018-04-19T07:42:23Z</time>
      </trkpt>
      <trkpt lat="46.66011" lon="5.60576">
        <ele>420</ele>
        <time>2018-04-19T07:42:33Z</time>
      </trkpt>
      <trkpt lat="46.6602" lon="5.6058">
        <ele>424</ele>
        <time>2018-04-19T07:42:40Z</time>
      </trkpt>
      <trkpt lat="46.66028" lon="5.60587">
        <ele>411</ele>
        <time>2018-04-19T07:42:49Z</time>
      </trkpt>
      <trkpt lat="46.6604" lon="5.60592">
        <ele>413</ele>
        <time>2018-04-19T07:42:59Z</time>
      </trkpt>
      <trkpt lat="46.66049" lon="5.60592">
        <ele>415</ele>
        <time>2018-04-19T07:43:05Z</time>
      </trkpt>
      <trkpt lat="46.66056" lon="5.606">
        <ele>416</ele>
        <time>2018-04-19T07:43:14Z</time>
      </trkpt>
      <trkpt lat="46.66065" lon="5.60603">
        <ele>418</ele>
        <time>2018-04-19T07:43:22Z</time>
      </trkpt>
      <trkpt lat="46.66073" lon="5.60612">
        <ele>417</ele>
        <time>2018-04-19T07:43:32Z</time>
      </trkpt>
      <trkpt lat="46.66082" lon="5.60618">
        <ele>416</ele>
        <time>2018-04-19T07:43:41Z</time>
      </trkpt>
      <trkpt lat="46.66091" lon="5.60618">
        <ele>432</ele>
        <time>2018-04-19T07:44:01Z</time>
      </trkpt>
      <trkpt lat="46.66097" lon="5.6063">
        <ele>430</ele>
        <time>2018-04-19T07:44:17Z</time>
      </trkpt>
      <trkpt lat="46.66106" lon="5.60631">
        <ele>431</ele>
        <time>2018-04-19T07:44:24Z</time>
      </trkpt>
      <trkpt lat="46.66129" lon="5.60644">
        <ele>432</ele>
        <time>2018-04-19T07:44:47Z</time>
      </trkpt>
      <trkpt lat="46.66136" lon="5.60653">
        <ele>432</ele>
        <time>2018-04-19T07:44:55Z</time>
      </trkpt>
      <trkpt lat="46.66145" lon="5.60655">
        <ele>431</ele>
        <time>2018-04-19T07:45:02Z</time>
      </trkpt>
      <trkpt lat="46.66153" lon="5.60663">
        <ele>430</ele>
        <time>2018-04-19T07:45:10Z</time>
      </trkpt>
      <trkpt lat="46.66157" lon="5.60674">
        <ele>420</ele>
        <time>2018-04-19T07:45:19Z</time>
      </trkpt>
      <trkpt lat="46.66169" lon="5.60676">
        <ele>427</ele>
        <time>2018-04-19T07:45:29Z</time>
      </trkpt>
      <trkpt lat="46.66176" lon="5.60684">
        <ele>428</ele>
        <time>2018-04-19T07:45:37Z</time>
      </trkpt>
      <trkpt lat="46.66185" lon="5.60692">
        <ele>429</ele>
        <time>2018-04-19T07:45:45Z</time>
      </trkpt>
      <trkpt lat="46.66191" lon="5.60701">
        <ele>429</ele>
        <time>2018-04-19T07:45:53Z</time>
      </trkpt>
      <trkpt lat="46.66202" lon="5.60699">
        <ele>430</ele>
        <time>2018-04-19T07:45:59Z</time>
      </trkpt>
      <trkpt lat="46.66212" lon="5.60703">
        <ele>431</ele>
        <time>2018-04-19T07:46:06Z</time>
      </trkpt>
      <trkpt lat="46.6622" lon="5.60712">
        <ele>431</ele>
        <time>2018-04-19T07:46:14Z</time>
      </trkpt>
      <trkpt lat="46.66236" lon="5.60728">
        <ele>430</ele>
        <time>2018-04-19T07:46:30Z</time>
      </trkpt>
      <trkpt lat="46.66245" lon="5.60746">
        <ele>429</ele>
        <time>2018-04-19T07:46:42Z</time>
      </trkpt>
      <trkpt lat="46.66251" lon="5.60756">
        <ele>430</ele>
        <time>2018-04-19T07:46:50Z</time>
      </trkpt>
      <trkpt lat="46.66258" lon="5.60765">
        <ele>432</ele>
        <time>2018-04-19T07:46:59Z</time>
      </trkpt>
      <trkpt lat="46.66266" lon="5.60776">
        <ele>434</ele>
        <time>2018-04-19T07:47:09Z</time>
      </trkpt>
      <trkpt lat="46.66275" lon="5.60783">
        <ele>435</ele>
        <time>2018-04-19T07:47:18Z</time>
      </trkpt>
      <trkpt lat="46.66279" lon="5.60796">
        <ele>434</ele>
        <time>2018-04-19T07:47:27Z</time>
      </trkpt>
      <trkpt lat="46.66289" lon="5.60819">
        <ele>434</ele>
        <time>2018-04-19T07:47:42Z</time>
      </trkpt>
      <trkpt lat="46.66296" lon="5.6083">
        <ele>435</ele>
        <time>2018-04-19T07:47:49Z</time>
      </trkpt>
      <trkpt lat="46.66298" lon="5.60842">
        <ele>426</ele>
        <time>2018-04-19T07:47:57Z</time>
      </trkpt>
      <trkpt lat="46.66302" lon="5.60856">
        <ele>426</ele>
        <time>2018-04-19T07:48:06Z</time>
      </trkpt>
      <trkpt lat="46.66305" lon="5.6087">
        <ele>426</ele>
        <time>2018-04-19T07:48:37Z</time>
      </trkpt>
      <trkpt lat="46.66306" lon="5.60884">
        <ele>425</ele>
        <time>2018-04-19T07:48:44Z</time>
      </trkpt>
      <trkpt lat="46.66313" lon="5.60925">
        <ele>421</ele>
        <time>2018-04-19T07:49:09Z</time>
      </trkpt>
      <trkpt lat="46.66319" lon="5.60943">
        <ele>420</ele>
        <time>2018-04-19T07:49:26Z</time>
      </trkpt>
      <trkpt lat="46.66321" lon="5.60966">
        <ele>418</ele>
        <time>2018-04-19T07:49:42Z</time>
      </trkpt>
      <trkpt lat="46.66325" lon="5.60997">
        <ele>421</ele>
        <time>2018-04-19T07:50:00Z</time>
      </trkpt>
      <trkpt lat="46.66328" lon="5.61025">
        <ele>418</ele>
        <time>2018-04-19T07:50:13Z</time>
      </trkpt>
      <trkpt lat="46.66328" lon="5.61039">
        <ele>417</ele>
        <time>2018-04-19T07:50:20Z</time>
      </trkpt>
      <trkpt lat="46.66329" lon="5.61053">
        <ele>417</ele>
        <time>2018-04-19T07:50:27Z</time>
      </trkpt>
      <trkpt lat="46.66326" lon="5.61068">
        <ele>419</ele>
        <time>2018-04-19T07:50:38Z</time>
      </trkpt>
      <trkpt lat="46.66325" lon="5.61081">
        <ele>421</ele>
        <time>2018-04-19T07:50:45Z</time>
      </trkpt>
      <trkpt lat="46.6632" lon="5.61102">
        <ele>422</ele>
        <time>2018-04-19T07:51:03Z</time>
      </trkpt>
      <trkpt lat="46.66317" lon="5.61117">
        <ele>423</ele>
        <time>2018-04-19T07:51:11Z</time>
      </trkpt>
      <trkpt lat="46.66313" lon="5.61129">
        <ele>423</ele>
        <time>2018-04-19T07:51:20Z</time>
      </trkpt>
      <trkpt lat="46.66312" lon="5.61144">
        <ele>425</ele>
        <time>2018-04-19T07:51:27Z</time>
      </trkpt>
      <trkpt lat="46.66308" lon="5.6115">
        <ele>425</ele>
        <time>2018-04-19T07:51:33Z</time>
      </trkpt>
      <trkpt lat="46.66307" lon="5.61158">
        <ele>425</ele>
        <time>2018-04-19T07:51:38Z</time>
      </trkpt>
      <trkpt lat="46.66306" lon="5.61164">
        <ele>426</ele>
        <time>2018-04-19T07:51:43Z</time>
      </trkpt>
      <trkpt lat="46.66304" lon="5.6117">
        <ele>438</ele>
        <time>2018-04-19T07:51:47Z</time>
      </trkpt>
      <trkpt lat="46.66301" lon="5.61176">
        <ele>438</ele>
        <time>2018-04-19T07:51:52Z</time>
      </trkpt>
      <trkpt lat="46.66296" lon="5.61194">
        <ele>440</ele>
        <time>2018-04-19T07:52:03Z</time>
      </trkpt>
      <trkpt lat="46.66293" lon="5.61199">
        <ele>441</ele>
        <time>2018-04-19T07:52:07Z</time>
      </trkpt>
      <trkpt lat="46.66295" lon="5.61209">
        <ele>443</ele>
        <time>2018-04-19T07:52:13Z</time>
      </trkpt>
      <trkpt lat="46.66298" lon="5.61215">
        <ele>444</ele>
        <time>2018-04-19T07:53:08Z</time>
      </trkpt>
      <trkpt lat="46.66291" lon="5.61221">
        <ele>445</ele>
        <time>2018-04-19T07:53:20Z</time>
      </trkpt>
      <trkpt lat="46.66285" lon="5.61223">
        <ele>445</ele>
        <time>2018-04-19T07:53:25Z</time>
      </trkpt>
      <trkpt lat="46.66278" lon="5.61233">
        <ele>447</ele>
        <time>2018-04-19T07:54:27Z</time>
      </trkpt>
      <trkpt lat="46.6628" lon="5.61245">
        <ele>448</ele>
        <time>2018-04-19T07:54:40Z</time>
      </trkpt>
      <trkpt lat="46.66263" lon="5.61281">
        <ele>477</ele>
      </trkpt>
      <trkpt lat="46.66229" lon="5.61315">
        <ele>495</ele>
      </trkpt>
      <trkpt lat="46.66164" lon="5.61357">
        <ele>525</ele>
      </trkpt>
      <trkpt lat="46.66074" lon="5.61381">
        <ele>529</ele>
      </trkpt>
      <trkpt lat="46.65892" lon="5.61369">
        <ele>525</ele>
      </trkpt>
      <trkpt lat="46.65717" lon="5.61347">
        <ele>529</ele>
      </trkpt>
      <trkpt lat="46.65613" lon="5.61348">
        <ele>509</ele>
      </trkpt>
      <trkpt lat="46.65563" lon="5.61346">
        <ele>488</ele>
      </trkpt>
      <trkpt lat="46.65539" lon="5.61347">
        <ele>483</ele>
      </trkpt>
      <trkpt lat="46.65532" lon="5.6134">
        <ele>480</ele>
      </trkpt>
      <trkpt lat="46.6553" lon="5.61337">
        <ele>480</ele>
        <time>2018-04-19T08:07:57Z</time>
      </trkpt>
      <trkpt lat="46.65525" lon="5.61324">
        <ele>466</ele>
        <time>2018-04-19T08:08:08Z</time>
      </trkpt>
      <trkpt lat="46.65519" lon="5.61325">
        <ele>465</ele>
        <time>2018-04-19T08:08:15Z</time>
      </trkpt>
      <trkpt lat="46.65515" lon="5.61316">
        <ele>464</ele>
        <time>2018-04-19T08:08:27Z</time>
      </trkpt>
      <trkpt lat="46.65513" lon="5.61308">
        <ele>464</ele>
        <time>2018-04-19T08:08:34Z</time>
      </trkpt>
      <trkpt lat="46.65508" lon="5.61309">
        <ele>463</ele>
        <time>2018-04-19T08:08:46Z</time>
      </trkpt>
      <trkpt lat="46.6551" lon="5.61317">
        <ele>463</ele>
        <time>2018-04-19T08:09:05Z</time>
      </trkpt>
      <trkpt lat="46.65513" lon="5.61319">
        <ele>464</ele>
        <time>2018-04-19T08:10:53Z</time>
      </trkpt>
      <trkpt lat="46.6552" lon="5.61314">
        <ele>465</ele>
        <time>2018-04-19T08:12:11Z</time>
      </trkpt>
      <trkpt lat="46.65516" lon="5.61306">
        <ele>464</ele>
        <time>2018-04-19T08:12:19Z</time>
      </trkpt>
      <trkpt lat="46.65508" lon="5.61299">
        <ele>463</ele>
        <time>2018-04-19T08:12:44Z</time>
      </trkpt>
      <trkpt lat="46.65505" lon="5.61294">
        <ele>462</ele>
        <time>2018-04-19T08:12:49Z</time>
      </trkpt>
      <trkpt lat="46.65501" lon="5.61289">
        <ele>461</ele>
        <time>2018-04-19T08:12:53Z</time>
      </trkpt>
      <trkpt lat="46.65502" lon="5.61281">
        <ele>459</ele>
        <time>2018-04-19T08:13:07Z</time>
      </trkpt>
      <trkpt lat="46.65498" lon="5.61277">
        <ele>461</ele>
        <time>2018-04-19T08:13:19Z</time>
      </trkpt>
      <trkpt lat="46.65491" lon="5.61275">
        <ele>461</ele>
        <time>2018-04-19T08:14:32Z</time>
      </trkpt>
      <trkpt lat="46.65484" lon="5.61273">
        <ele>463</ele>
        <time>2018-04-19T08:14:35Z</time>
      </trkpt>
      <trkpt lat="46.65479" lon="5.61271">
        <ele>464</ele>
        <time>2018-04-19T08:14:38Z</time>
      </trkpt>
      <trkpt lat="46.65475" lon="5.61262">
        <ele>463</ele>
        <time>2018-04-19T08:14:46Z</time>
      </trkpt>
      <trkpt lat="46.65479" lon="5.61255">
        <ele>460</ele>
        <time>2018-04-19T08:15:00Z</time>
      </trkpt>
      <trkpt lat="46.65472" lon="5.61247">
        <ele>454</ele>
        <time>2018-04-19T08:15:33Z</time>
      </trkpt>
      <trkpt lat="46.65468" lon="5.6124">
        <ele>455</ele>
        <time>2018-04-19T08:15:36Z</time>
      </trkpt>
      <trkpt lat="46.65465" lon="5.61235">
        <ele>457</ele>
        <time>2018-04-19T08:15:41Z</time>
      </trkpt>
      <trkpt lat="46.65462" lon="5.61229">
        <ele>457</ele>
        <time>2018-04-19T08:15:45Z</time>
      </trkpt>
      <trkpt lat="46.65444" lon="5.61198">
        <ele>460</ele>
        <time>2018-04-19T08:16:09Z</time>
      </trkpt>
      <trkpt lat="46.65441" lon="5.61192">
        <ele>461</ele>
        <time>2018-04-19T08:16:13Z</time>
      </trkpt>
      <trkpt lat="46.65439" lon="5.61186">
        <ele>461</ele>
        <time>2018-04-19T08:16:17Z</time>
      </trkpt>
      <trkpt lat="46.65437" lon="5.61179">
        <ele>462</ele>
        <time>2018-04-19T08:16:21Z</time>
      </trkpt>
      <trkpt lat="46.65433" lon="5.61172">
        <ele>464</ele>
        <time>2018-04-19T08:16:26Z</time>
      </trkpt>
      <trkpt lat="46.6543" lon="5.61166">
        <ele>462</ele>
        <time>2018-04-19T08:16:30Z</time>
      </trkpt>
      <trkpt lat="46.65427" lon="5.61161">
        <ele>463</ele>
        <time>2018-04-19T08:16:33Z</time>
      </trkpt>
      <trkpt lat="46.65424" lon="5.61155">
        <ele>462</ele>
        <time>2018-04-19T08:16:37Z</time>
      </trkpt>
      <trkpt lat="46.65421" lon="5.6115">
        <ele>460</ele>
        <time>2018-04-19T08:16:41Z</time>
      </trkpt>
      <trkpt lat="46.65418" lon="5.61143">
        <ele>458</ele>
        <time>2018-04-19T08:16:45Z</time>
      </trkpt>
      <trkpt lat="46.65416" lon="5.61136">
        <ele>485</ele>
        <time>2018-04-19T08:16:49Z</time>
      </trkpt>
      <trkpt lat="46.65411" lon="5.61117">
        <ele>484</ele>
        <time>2018-04-19T08:17:01Z</time>
      </trkpt>
      <trkpt lat="46.6541" lon="5.6111">
        <ele>483</ele>
        <time>2018-04-19T08:17:05Z</time>
      </trkpt>
      <trkpt lat="46.65408" lon="5.61103">
        <ele>481</ele>
        <time>2018-04-19T08:17:09Z</time>
      </trkpt>
      <trkpt lat="46.65406" lon="5.61089">
        <ele>476</ele>
        <time>2018-04-19T08:17:17Z</time>
      </trkpt>
      <trkpt lat="46.65405" lon="5.61083">
        <ele>472</ele>
        <time>2018-04-19T08:17:21Z</time>
      </trkpt>
      <trkpt lat="46.65403" lon="5.61077">
        <ele>474</ele>
        <time>2018-04-19T08:17:25Z</time>
      </trkpt>
      <trkpt lat="46.65402" lon="5.61069">
        <ele>476</ele>
        <time>2018-04-19T08:17:29Z</time>
      </trkpt>
      <trkpt lat="46.65398" lon="5.61063">
        <ele>477</ele>
        <time>2018-04-19T08:17:33Z</time>
      </trkpt>
      <trkpt lat="46.65397" lon="5.61047">
        <ele>478</ele>
        <time>2018-04-19T08:17:43Z</time>
      </trkpt>
      <trkpt lat="46.65395" lon="5.61041">
        <ele>478</ele>
        <time>2018-04-19T08:17:47Z</time>
      </trkpt>
      <trkpt lat="46.65394" lon="5.61033">
        <ele>478</ele>
        <time>2018-04-19T08:17:52Z</time>
      </trkpt>
      <trkpt lat="46.65391" lon="5.6102">
        <ele>477</ele>
        <time>2018-04-19T08:18:00Z</time>
      </trkpt>
      <trkpt lat="46.65389" lon="5.61014">
        <ele>477</ele>
        <time>2018-04-19T08:18:04Z</time>
      </trkpt>
      <trkpt lat="46.65385" lon="5.61001">
        <ele>478</ele>
        <time>2018-04-19T08:18:12Z</time>
      </trkpt>
      <trkpt lat="46.65383" lon="5.60994">
        <ele>470</ele>
        <time>2018-04-19T08:18:16Z</time>
      </trkpt>
      <trkpt lat="46.6538" lon="5.60987">
        <ele>471</ele>
        <time>2018-04-19T08:18:20Z</time>
      </trkpt>
      <trkpt lat="46.65377" lon="5.60973">
        <ele>472</ele>
        <time>2018-04-19T08:18:29Z</time>
      </trkpt>
      <trkpt lat="46.65374" lon="5.60967">
        <ele>472</ele>
        <time>2018-04-19T08:18:33Z</time>
      </trkpt>
      <trkpt lat="46.65373" lon="5.6096">
        <ele>471</ele>
        <time>2018-04-19T08:18:38Z</time>
      </trkpt>
      <trkpt lat="46.65371" lon="5.60952">
        <ele>471</ele>
        <time>2018-04-19T08:18:43Z</time>
      </trkpt>
      <trkpt lat="46.65369" lon="5.60945">
        <ele>471</ele>
        <time>2018-04-19T08:18:47Z</time>
      </trkpt>
      <trkpt lat="46.65366" lon="5.60939">
        <ele>472</ele>
        <time>2018-04-19T08:18:51Z</time>
      </trkpt>
      <trkpt lat="46.65366" lon="5.60932">
        <ele>472</ele>
        <time>2018-04-19T08:18:56Z</time>
      </trkpt>
      <trkpt lat="46.65363" lon="5.60925">
        <ele>473</ele>
        <time>2018-04-19T08:19:01Z</time>
      </trkpt>
      <trkpt lat="46.6536" lon="5.6092">
        <ele>474</ele>
        <time>2018-04-19T08:19:05Z</time>
      </trkpt>
      <trkpt lat="46.65356" lon="5.60915">
        <ele>467</ele>
        <time>2018-04-19T08:19:09Z</time>
      </trkpt>
      <trkpt lat="46.65354" lon="5.60909">
        <ele>467</ele>
        <time>2018-04-19T08:19:13Z</time>
      </trkpt>
      <trkpt lat="46.65354" lon="5.60901">
        <ele>465</ele>
        <time>2018-04-19T08:19:18Z</time>
      </trkpt>
      <trkpt lat="46.65355" lon="5.60894">
        <ele>463</ele>
        <time>2018-04-19T08:19:22Z</time>
      </trkpt>
      <trkpt lat="46.65353" lon="5.60881">
        <ele>461</ele>
        <time>2018-04-19T08:19:32Z</time>
      </trkpt>
      <trkpt lat="46.65351" lon="5.60874">
        <ele>460</ele>
        <time>2018-04-19T08:19:36Z</time>
      </trkpt>
      <trkpt lat="46.6535" lon="5.60867">
        <ele>460</ele>
        <time>2018-04-19T08:19:40Z</time>
      </trkpt>
      <trkpt lat="46.65347" lon="5.60862">
        <ele>460</ele>
        <time>2018-04-19T08:19:44Z</time>
      </trkpt>
      <trkpt lat="46.65345" lon="5.60854">
        <ele>461</ele>
        <time>2018-04-19T08:19:49Z</time>
      </trkpt>
      <trkpt lat="46.65342" lon="5.60848">
        <ele>462</ele>
        <time>2018-04-19T08:19:53Z</time>
      </trkpt>
      <trkpt lat="46.65339" lon="5.60841">
        <ele>464</ele>
        <time>2018-04-19T08:19:58Z</time>
      </trkpt>
      <trkpt lat="46.65339" lon="5.60833">
        <ele>462</ele>
        <time>2018-04-19T08:20:03Z</time>
      </trkpt>
      <trkpt lat="46.65338" lon="5.60827">
        <ele>460</ele>
        <time>2018-04-19T08:20:07Z</time>
      </trkpt>
      <trkpt lat="46.65336" lon="5.6082">
        <ele>456</ele>
        <time>2018-04-19T08:20:11Z</time>
      </trkpt>
      <trkpt lat="46.65328" lon="5.60801">
        <ele>479</ele>
        <time>2018-04-19T08:20:23Z</time>
      </trkpt>
      <trkpt lat="46.65328" lon="5.60794">
        <ele>479</ele>
        <time>2018-04-19T08:20:28Z</time>
      </trkpt>
      <trkpt lat="46.65328" lon="5.60787">
        <ele>478</ele>
        <time>2018-04-19T08:20:33Z</time>
      </trkpt>
      <trkpt lat="46.65325" lon="5.60781">
        <ele>477</ele>
        <time>2018-04-19T08:20:37Z</time>
      </trkpt>
      <trkpt lat="46.65322" lon="5.60776">
        <ele>476</ele>
        <time>2018-04-19T08:20:42Z</time>
      </trkpt>
      <trkpt lat="46.65318" lon="5.60766">
        <ele>475</ele>
        <time>2018-04-19T08:20:56Z</time>
      </trkpt>
      <trkpt lat="46.65318" lon="5.60757">
        <ele>472</ele>
        <time>2018-04-19T08:21:06Z</time>
      </trkpt>
      <trkpt lat="46.65316" lon="5.60759">
        <ele>473</ele>
        <time>2018-04-19T08:24:26Z</time>
      </trkpt>
      <trkpt lat="46.65305" lon="5.60733">
        <ele>472</ele>
      </trkpt>
      <trkpt lat="46.65283" lon="5.60705">
        <ele>478</ele>
      </trkpt>
      <trkpt lat="46.65244" lon="5.60669">
        <ele>502</ele>
      </trkpt>
      <trkpt lat="46.65178" lon="5.6063">
        <ele>486</ele>
      </trkpt>
      <trkpt lat="46.6513" lon="5.60621">
        <ele>478</ele>
      </trkpt>
      <trkpt lat="46.65103" lon="5.6062">
        <ele>476</ele>
      </trkpt>
      <trkpt lat="46.65092" lon="5.60619">
        <ele>474</ele>
      </trkpt>
      <trkpt lat="46.65085" lon="5.60614">
        <ele>472</ele>
        <time>2018-04-19T08:27:47Z</time>
      </trkpt>
      <trkpt lat="46.65082" lon="5.60623">
        <ele>467</ele>
        <time>2018-04-19T08:27:52Z</time>
      </trkpt>
      <trkpt lat="46.65076" lon="5.60624">
        <ele>467</ele>
        <time>2018-04-19T08:27:56Z</time>
      </trkpt>
      <trkpt lat="46.65071" lon="5.60621">
        <ele>466</ele>
        <time>2018-04-19T08:28:00Z</time>
      </trkpt>
      <trkpt lat="46.65061" lon="5.60624">
        <ele>467</ele>
        <time>2018-04-19T08:28:09Z</time>
      </trkpt>
      <trkpt lat="46.65056" lon="5.60626">
        <ele>467</ele>
        <time>2018-04-19T08:28:14Z</time>
      </trkpt>
      <trkpt lat="46.65045" lon="5.6063">
        <ele>467</ele>
        <time>2018-04-19T08:28:25Z</time>
      </trkpt>
      <trkpt lat="46.65041" lon="5.60633">
        <ele>468</ele>
        <time>2018-04-19T08:28:29Z</time>
      </trkpt>
      <trkpt lat="46.65031" lon="5.60634">
        <ele>467</ele>
        <time>2018-04-19T08:28:38Z</time>
      </trkpt>
      <trkpt lat="46.65027" lon="5.60637">
        <ele>468</ele>
        <time>2018-04-19T08:28:42Z</time>
      </trkpt>
      <trkpt lat="46.65022" lon="5.6064">
        <ele>469</ele>
        <time>2018-04-19T08:28:46Z</time>
      </trkpt>
      <trkpt lat="46.65013" lon="5.60645">
        <ele>470</ele>
        <time>2018-04-19T08:28:54Z</time>
      </trkpt>
      <trkpt lat="46.65008" lon="5.60646">
        <ele>471</ele>
        <time>2018-04-19T08:28:58Z</time>
      </trkpt>
      <trkpt lat="46.65003" lon="5.60647">
        <ele>471</ele>
        <time>2018-04-19T08:29:02Z</time>
      </trkpt>
      <trkpt lat="46.64999" lon="5.60651">
        <ele>467</ele>
        <time>2018-04-19T08:29:05Z</time>
      </trkpt>
      <trkpt lat="46.64995" lon="5.60653">
        <ele>468</ele>
        <time>2018-04-19T08:29:09Z</time>
      </trkpt>
      <trkpt lat="46.6499" lon="5.60657">
        <ele>468</ele>
        <time>2018-04-19T08:29:14Z</time>
      </trkpt>
      <trkpt lat="46.64978" lon="5.60658">
        <ele>463</ele>
        <time>2018-04-19T08:29:25Z</time>
      </trkpt>
      <trkpt lat="46.64973" lon="5.6066">
        <ele>462</ele>
        <time>2018-04-19T08:29:29Z</time>
      </trkpt>
      <trkpt lat="46.64969" lon="5.60664">
        <ele>462</ele>
        <time>2018-04-19T08:29:32Z</time>
      </trkpt>
      <trkpt lat="46.64965" lon="5.60665">
        <ele>461</ele>
        <time>2018-04-19T08:29:36Z</time>
      </trkpt>
      <trkpt lat="46.6496" lon="5.60666">
        <ele>460</ele>
        <time>2018-04-19T08:29:41Z</time>
      </trkpt>
      <trkpt lat="46.64955" lon="5.6067">
        <ele>484</ele>
        <time>2018-04-19T08:29:45Z</time>
      </trkpt>
      <trkpt lat="46.6494" lon="5.60674">
        <ele>481</ele>
        <time>2018-04-19T08:29:58Z</time>
      </trkpt>
      <trkpt lat="46.64934" lon="5.60674">
        <ele>479</ele>
        <time>2018-04-19T08:30:03Z</time>
      </trkpt>
      <trkpt lat="46.6493" lon="5.60675">
        <ele>477</ele>
        <time>2018-04-19T08:30:07Z</time>
      </trkpt>
      <trkpt lat="46.64925" lon="5.60677">
        <ele>476</ele>
        <time>2018-04-19T08:30:11Z</time>
      </trkpt>
      <trkpt lat="46.64922" lon="5.60682">
        <ele>478</ele>
        <time>2018-04-19T08:30:14Z</time>
      </trkpt>
      <trkpt lat="46.64918" lon="5.60685">
        <ele>480</ele>
        <time>2018-04-19T08:30:18Z</time>
      </trkpt>
      <trkpt lat="46.64902" lon="5.60687">
        <ele>476</ele>
        <time>2018-04-19T08:30:31Z</time>
      </trkpt>
      <trkpt lat="46.64898" lon="5.6069">
        <ele>477</ele>
        <time>2018-04-19T08:30:35Z</time>
      </trkpt>
      <trkpt lat="46.64893" lon="5.60693">
        <ele>479</ele>
        <time>2018-04-19T08:30:40Z</time>
      </trkpt>
      <trkpt lat="46.64888" lon="5.60697">
        <ele>480</ele>
        <time>2018-04-19T08:30:44Z</time>
      </trkpt>
      <trkpt lat="46.64883" lon="5.60698">
        <ele>480</ele>
        <time>2018-04-19T08:30:48Z</time>
      </trkpt>
      <trkpt lat="46.64878" lon="5.60699">
        <ele>480</ele>
        <time>2018-04-19T08:30:52Z</time>
      </trkpt>
      <trkpt lat="46.64873" lon="5.60702">
        <ele>480</ele>
        <time>2018-04-19T08:30:56Z</time>
      </trkpt>
      <trkpt lat="46.64858" lon="5.60708">
        <ele>481</ele>
        <time>2018-04-19T08:31:09Z</time>
      </trkpt>
      <trkpt lat="46.64853" lon="5.60709">
        <ele>481</ele>
        <time>2018-04-19T08:31:13Z</time>
      </trkpt>
      <trkpt lat="46.64849" lon="5.60711">
        <ele>481</ele>
        <time>2018-04-19T08:31:16Z</time>
      </trkpt>
      <trkpt lat="46.64843" lon="5.60713">
        <ele>482</ele>
        <time>2018-04-19T08:31:20Z</time>
      </trkpt>
      <trkpt lat="46.64833" lon="5.6072">
        <ele>476</ele>
        <time>2018-04-19T08:31:29Z</time>
      </trkpt>
      <trkpt lat="46.6479" lon="5.60744">
        <ele>475</ele>
      </trkpt>
      <trkpt lat="46.64769" lon="5.60756">
        <ele>491</ele>
      </trkpt>
      <trkpt lat="46.64757" lon="5.6076">
        <ele>488</ele>
      </trkpt>
      <trkpt lat="46.64761" lon="5.60777">
        <ele>495</ele>
        <time>2018-04-19T08:32:43Z</time>
      </trkpt>
      <trkpt lat="46.64744" lon="5.60774">
        <ele>485</ele>
        <time>2018-04-19T08:32:55Z</time>
      </trkpt>
      <trkpt lat="46.64735" lon="5.6077">
        <ele>484</ele>
        <time>2018-04-19T08:33:05Z</time>
      </trkpt>
      <trkpt lat="46.64722" lon="5.60769">
        <ele>484</ele>
        <time>2018-04-19T08:33:25Z</time>
      </trkpt>
      <trkpt lat="46.64717" lon="5.60772">
        <ele>484</ele>
        <time>2018-04-19T08:33:33Z</time>
      </trkpt>
      <trkpt lat="46.64712" lon="5.60781">
        <ele>485</ele>
        <time>2018-04-19T08:33:51Z</time>
      </trkpt>
      <trkpt lat="46.64707" lon="5.60778">
        <ele>485</ele>
        <time>2018-04-19T08:34:45Z</time>
      </trkpt>
      <trkpt lat="46.64701" lon="5.60775">
        <ele>483</ele>
        <time>2018-04-19T08:35:02Z</time>
      </trkpt>
      <trkpt lat="46.64701" lon="5.60782">
        <ele>485</ele>
        <time>2018-04-19T08:35:22Z</time>
      </trkpt>
      <trkpt lat="46.64698" lon="5.60787">
        <ele>485</ele>
        <time>2018-04-19T08:39:13Z</time>
      </trkpt>
      <trkpt lat="46.6469" lon="5.60786">
        <ele>484</ele>
        <time>2018-04-19T08:39:21Z</time>
      </trkpt>
      <trkpt lat="46.64685" lon="5.60784">
        <ele>484</ele>
        <time>2018-04-19T08:39:25Z</time>
      </trkpt>
      <trkpt lat="46.6468" lon="5.60784">
        <ele>483</ele>
        <time>2018-04-19T08:39:30Z</time>
      </trkpt>
      <trkpt lat="46.64674" lon="5.60785">
        <ele>483</ele>
        <time>2018-04-19T08:39:35Z</time>
      </trkpt>
      <trkpt lat="46.64665" lon="5.60793">
        <ele>487</ele>
        <time>2018-04-19T08:39:44Z</time>
      </trkpt>
      <trkpt lat="46.6466" lon="5.60792">
        <ele>487</ele>
        <time>2018-04-19T08:39:49Z</time>
      </trkpt>
      <trkpt lat="46.64655" lon="5.60788">
        <ele>486</ele>
        <time>2018-04-19T08:39:53Z</time>
      </trkpt>
      <trkpt lat="46.6465" lon="5.60785">
        <ele>486</ele>
        <time>2018-04-19T08:39:57Z</time>
      </trkpt>
      <trkpt lat="46.64645" lon="5.60782">
        <ele>486</ele>
        <time>2018-04-19T08:40:02Z</time>
      </trkpt>
      <trkpt lat="46.64625" lon="5.60773">
        <ele>486</ele>
        <time>2018-04-19T08:40:20Z</time>
      </trkpt>
      <trkpt lat="46.6462" lon="5.6077">
        <ele>486</ele>
        <time>2018-04-19T08:40:24Z</time>
      </trkpt>
      <trkpt lat="46.64614" lon="5.60769">
        <ele>487</ele>
        <time>2018-04-19T08:40:29Z</time>
      </trkpt>
      <trkpt lat="46.64607" lon="5.60769">
        <ele>487</ele>
        <time>2018-04-19T08:40:37Z</time>
      </trkpt>
      <trkpt lat="46.64602" lon="5.60771">
        <ele>487</ele>
        <time>2018-04-19T08:40:42Z</time>
      </trkpt>
      <trkpt lat="46.64591" lon="5.60768">
        <ele>486</ele>
        <time>2018-04-19T08:40:49Z</time>
      </trkpt>
      <trkpt lat="46.64586" lon="5.60767">
        <ele>486</ele>
        <time>2018-04-19T08:40:53Z</time>
      </trkpt>
      <trkpt lat="46.64576" lon="5.60767">
        <ele>493</ele>
        <time>2018-04-19T08:41:01Z</time>
      </trkpt>
      <trkpt lat="46.64571" lon="5.60766">
        <ele>493</ele>
        <time>2018-04-19T08:41:05Z</time>
      </trkpt>
      <trkpt lat="46.64566" lon="5.6076">
        <ele>493</ele>
        <time>2018-04-19T08:41:09Z</time>
      </trkpt>
      <trkpt lat="46.64561" lon="5.60759">
        <ele>494</ele>
        <time>2018-04-19T08:41:12Z</time>
      </trkpt>
      <trkpt lat="46.64553" lon="5.60764">
        <ele>497</ele>
        <time>2018-04-19T08:41:18Z</time>
      </trkpt>
      <trkpt lat="46.64548" lon="5.60764">
        <ele>497</ele>
        <time>2018-04-19T08:41:22Z</time>
      </trkpt>
      <trkpt lat="46.64538" lon="5.60765">
        <ele>499</ele>
        <time>2018-04-19T08:41:32Z</time>
      </trkpt>
      <trkpt lat="46.64519" lon="5.60757">
        <ele>497</ele>
        <time>2018-04-19T08:41:46Z</time>
      </trkpt>
      <trkpt lat="46.64515" lon="5.60754">
        <ele>496</ele>
        <time>2018-04-19T08:41:49Z</time>
      </trkpt>
      <trkpt lat="46.6451" lon="5.60752">
        <ele>495</ele>
        <time>2018-04-19T08:41:52Z</time>
      </trkpt>
      <trkpt lat="46.64506" lon="5.60749">
        <ele>487</ele>
        <time>2018-04-19T08:41:56Z</time>
      </trkpt>
      <trkpt lat="46.64501" lon="5.60746">
        <ele>488</ele>
        <time>2018-04-19T08:42:01Z</time>
      </trkpt>
      <trkpt lat="46.64496" lon="5.60742">
        <ele>486</ele>
        <time>2018-04-19T08:42:08Z</time>
      </trkpt>
      <trkpt lat="46.64489" lon="5.60738">
        <ele>483</ele>
        <time>2018-04-19T08:42:14Z</time>
      </trkpt>
      <trkpt lat="46.64485" lon="5.60736">
        <ele>481</ele>
        <time>2018-04-19T08:42:18Z</time>
      </trkpt>
      <trkpt lat="46.64479" lon="5.60735">
        <ele>480</ele>
        <time>2018-04-19T08:42:22Z</time>
      </trkpt>
      <trkpt lat="46.64474" lon="5.60734">
        <ele>480</ele>
        <time>2018-04-19T08:42:27Z</time>
      </trkpt>
      <trkpt lat="46.64469" lon="5.60733">
        <ele>479</ele>
        <time>2018-04-19T08:42:31Z</time>
      </trkpt>
      <trkpt lat="46.64463" lon="5.60734">
        <ele>479</ele>
        <time>2018-04-19T08:42:35Z</time>
      </trkpt>
      <trkpt lat="46.64452" lon="5.60731">
        <ele>479</ele>
        <time>2018-04-19T08:42:44Z</time>
      </trkpt>
      <trkpt lat="46.64441" lon="5.60736">
        <ele>482</ele>
        <time>2018-04-19T08:42:52Z</time>
      </trkpt>
      <trkpt lat="46.64422" lon="5.60734">
        <ele>485</ele>
        <time>2018-04-19T08:43:07Z</time>
      </trkpt>
      <trkpt lat="46.64412" lon="5.60732">
        <ele>487</ele>
        <time>2018-04-19T08:43:15Z</time>
      </trkpt>
      <trkpt lat="46.64404" lon="5.60728">
        <ele>485</ele>
        <time>2018-04-19T08:43:35Z</time>
      </trkpt>
      <trkpt lat="46.64397" lon="5.60726">
        <ele>484</ele>
        <time>2018-04-19T08:43:39Z</time>
      </trkpt>
      <trkpt lat="46.64393" lon="5.60725">
        <ele>484</ele>
        <time>2018-04-19T08:43:43Z</time>
      </trkpt>
      <trkpt lat="46.6438" lon="5.60722">
        <ele>483</ele>
        <time>2018-04-19T08:43:56Z</time>
      </trkpt>
      <trkpt lat="46.64375" lon="5.60723">
        <ele>483</ele>
        <time>2018-04-19T08:43:59Z</time>
      </trkpt>
      <trkpt lat="46.64371" lon="5.60726">
        <ele>484</ele>
        <time>2018-04-19T08:44:03Z</time>
      </trkpt>
      <trkpt lat="46.6436" lon="5.60723">
        <ele>485</ele>
        <time>2018-04-19T08:44:13Z</time>
      </trkpt>
      <trkpt lat="46.64355" lon="5.60723">
        <ele>485</ele>
        <time>2018-04-19T08:44:16Z</time>
      </trkpt>
      <trkpt lat="46.64345" lon="5.60722">
        <ele>486</ele>
        <time>2018-04-19T08:44:23Z</time>
      </trkpt>
      <trkpt lat="46.64315" lon="5.60722">
        <ele>490</ele>
        <time>2018-04-19T08:44:46Z</time>
      </trkpt>
      <trkpt lat="46.64295" lon="5.60722">
        <ele>490</ele>
        <time>2018-04-19T08:45:02Z</time>
      </trkpt>
      <trkpt lat="46.64283" lon="5.60722">
        <ele>491</ele>
        <time>2018-04-19T08:45:12Z</time>
      </trkpt>
      <trkpt lat="46.64272" lon="5.60721">
        <ele>491</ele>
        <time>2018-04-19T08:45:21Z</time>
      </trkpt>
      <trkpt lat="46.64261" lon="5.60721">
        <ele>492</ele>
        <time>2018-04-19T08:45:29Z</time>
      </trkpt>
      <trkpt lat="46.64233" lon="5.60724">
        <ele>495</ele>
        <time>2018-04-19T08:45:53Z</time>
      </trkpt>
      <trkpt lat="46.64224" lon="5.60727">
        <ele>495</ele>
        <time>2018-04-19T08:46:01Z</time>
      </trkpt>
      <trkpt lat="46.64205" lon="5.60729">
        <ele>495</ele>
        <time>2018-04-19T08:46:18Z</time>
      </trkpt>
      <trkpt lat="46.64194" lon="5.60727">
        <ele>496</ele>
        <time>2018-04-19T08:46:25Z</time>
      </trkpt>
      <trkpt lat="46.64185" lon="5.60729">
        <ele>497</ele>
        <time>2018-04-19T08:46:32Z</time>
      </trkpt>
      <trkpt lat="46.64176" lon="5.60725">
        <ele>497</ele>
        <time>2018-04-19T08:46:39Z</time>
      </trkpt>
      <trkpt lat="46.64156" lon="5.60724">
        <ele>498</ele>
        <time>2018-04-19T08:46:54Z</time>
      </trkpt>
      <trkpt lat="46.64137" lon="5.60724">
        <ele>497</ele>
        <time>2018-04-19T08:47:07Z</time>
      </trkpt>
      <trkpt lat="46.64117" lon="5.60726">
        <ele>498</ele>
        <time>2018-04-19T08:47:24Z</time>
      </trkpt>
      <trkpt lat="46.64094" lon="5.60722">
        <ele>499</ele>
        <time>2018-04-19T08:47:39Z</time>
      </trkpt>
      <trkpt lat="46.64082" lon="5.60724">
        <ele>502</ele>
        <time>2018-04-19T08:47:49Z</time>
      </trkpt>
      <trkpt lat="46.64073" lon="5.60726">
        <ele>502</ele>
        <time>2018-04-19T08:47:57Z</time>
      </trkpt>
      <trkpt lat="46.64063" lon="5.60724">
        <ele>500</ele>
        <time>2018-04-19T08:48:06Z</time>
      </trkpt>
      <trkpt lat="46.64029" lon="5.60722">
        <ele>499</ele>
        <time>2018-04-19T08:48:35Z</time>
      </trkpt>
      <trkpt lat="46.64011" lon="5.60716">
        <ele>498</ele>
        <time>2018-04-19T08:48:51Z</time>
      </trkpt>
      <trkpt lat="46.64" lon="5.60716">
        <ele>498</ele>
        <time>2018-04-19T08:48:58Z</time>
      </trkpt>
      <trkpt lat="46.63991" lon="5.60714">
        <ele>493</ele>
        <time>2018-04-19T08:49:05Z</time>
      </trkpt>
      <trkpt lat="46.63982" lon="5.60711">
        <ele>491</ele>
        <time>2018-04-19T08:49:13Z</time>
      </trkpt>
      <trkpt lat="46.63963" lon="5.60715">
        <ele>491</ele>
        <time>2018-04-19T08:49:33Z</time>
      </trkpt>
      <trkpt lat="46.63957" lon="5.60724">
        <ele>493</ele>
        <time>2018-04-19T08:50:46Z</time>
      </trkpt>
      <trkpt lat="46.63939" lon="5.60728">
        <ele>494</ele>
        <time>2018-04-19T08:51:42Z</time>
      </trkpt>
      <trkpt lat="46.63929" lon="5.60727">
        <ele>494</ele>
        <time>2018-04-19T08:51:48Z</time>
      </trkpt>
      <trkpt lat="46.6392" lon="5.60727">
        <ele>495</ele>
        <time>2018-04-19T08:51:56Z</time>
      </trkpt>
      <trkpt lat="46.63902" lon="5.6073">
        <ele>487</ele>
        <time>2018-04-19T08:53:39Z</time>
      </trkpt>
      <trkpt lat="46.63893" lon="5.60736">
        <ele>487</ele>
        <time>2018-04-19T08:53:53Z</time>
      </trkpt>
      <trkpt lat="46.6388" lon="5.60751">
        <ele>511</ele>
        <time>2018-04-19T08:54:35Z</time>
      </trkpt>
      <trkpt lat="46.6387" lon="5.60755">
        <ele>509</ele>
        <time>2018-04-19T08:54:50Z</time>
      </trkpt>
      <trkpt lat="46.63866" lon="5.60758">
        <ele>509</ele>
        <time>2018-04-19T08:54:55Z</time>
      </trkpt>
      <trkpt lat="46.63859" lon="5.60759">
        <ele>507</ele>
        <time>2018-04-19T08:55:01Z</time>
      </trkpt>
      <trkpt lat="46.63854" lon="5.60763">
        <ele>506</ele>
        <time>2018-04-19T08:55:05Z</time>
      </trkpt>
      <trkpt lat="46.6385" lon="5.60766">
        <ele>506</ele>
        <time>2018-04-19T08:55:10Z</time>
      </trkpt>
      <trkpt lat="46.63846" lon="5.6077">
        <ele>506</ele>
        <time>2018-04-19T08:55:13Z</time>
      </trkpt>
      <trkpt lat="46.63838" lon="5.60774">
        <ele>507</ele>
        <time>2018-04-19T08:55:18Z</time>
      </trkpt>
      <trkpt lat="46.63835" lon="5.60778">
        <ele>509</ele>
        <time>2018-04-19T08:55:23Z</time>
      </trkpt>
      <trkpt lat="46.6383" lon="5.60782">
        <ele>497</ele>
        <time>2018-04-19T08:55:28Z</time>
      </trkpt>
      <trkpt lat="46.63824" lon="5.60782">
        <ele>497</ele>
        <time>2018-04-19T08:55:32Z</time>
      </trkpt>
      <trkpt lat="46.63821" lon="5.60787">
        <ele>498</ele>
        <time>2018-04-19T08:55:37Z</time>
      </trkpt>
      <trkpt lat="46.63816" lon="5.60791">
        <ele>499</ele>
        <time>2018-04-19T08:55:41Z</time>
      </trkpt>
      <trkpt lat="46.63813" lon="5.60798">
        <ele>501</ele>
        <time>2018-04-19T08:55:46Z</time>
      </trkpt>
      <trkpt lat="46.63809" lon="5.60802">
        <ele>501</ele>
        <time>2018-04-19T08:55:50Z</time>
      </trkpt>
      <trkpt lat="46.63801" lon="5.60805">
        <ele>500</ele>
        <time>2018-04-19T08:55:56Z</time>
      </trkpt>
      <trkpt lat="46.63797" lon="5.60808">
        <ele>500</ele>
        <time>2018-04-19T08:55:59Z</time>
      </trkpt>
      <trkpt lat="46.63755" lon="5.60872">
        <ele>524</ele>
      </trkpt>
      <trkpt lat="46.63735" lon="5.60907">
        <ele>518</ele>
      </trkpt>
      <trkpt lat="46.6372" lon="5.60948">
        <ele>524</ele>
      </trkpt>
      <trkpt lat="46.63697" lon="5.61095">
        <ele>515</ele>
        <time>2018-04-19T08:59:09Z</time>
      </trkpt>
      <trkpt lat="46.63698" lon="5.61105">
        <ele>515</ele>
        <time>2018-04-19T08:59:17Z</time>
      </trkpt>
      <trkpt lat="46.63697" lon="5.61113">
        <ele>515</ele>
        <time>2018-04-19T08:59:23Z</time>
      </trkpt>
      <trkpt lat="46.63699" lon="5.61127">
        <ele>515</ele>
        <time>2018-04-19T08:59:32Z</time>
      </trkpt>
      <trkpt lat="46.63702" lon="5.61133">
        <ele>515</ele>
        <time>2018-04-19T08:59:36Z</time>
      </trkpt>
      <trkpt lat="46.63704" lon="5.61141">
        <ele>515</ele>
        <time>2018-04-19T08:59:40Z</time>
      </trkpt>
      <trkpt lat="46.63704" lon="5.61156">
        <ele>514</ele>
        <time>2018-04-19T08:59:47Z</time>
      </trkpt>
      <trkpt lat="46.63706" lon="5.61165">
        <ele>515</ele>
        <time>2018-04-19T08:59:51Z</time>
      </trkpt>
      <trkpt lat="46.63728" lon="5.61228">
        <ele>518</ele>
      </trkpt>
      <trkpt lat="46.63753" lon="5.61293">
        <ele>531</ele>
      </trkpt>
      <trkpt lat="46.63758" lon="5.61302">
        <ele>530</ele>
      </trkpt>
      <trkpt lat="46.6376" lon="5.61318">
        <ele>526</ele>
        <time>2018-04-19T09:02:07Z</time>
      </trkpt>
      <trkpt lat="46.63761" lon="5.61324">
        <ele>523</ele>
        <time>2018-04-19T09:02:27Z</time>
      </trkpt>
      <trkpt lat="46.63763" lon="5.61334">
        <ele>516</ele>
        <time>2018-04-19T09:04:03Z</time>
      </trkpt>
      <trkpt lat="46.63768" lon="5.61331">
        <ele>525</ele>
        <time>2018-04-19T09:09:00Z</time>
      </trkpt>
      <trkpt lat="46.6377" lon="5.61337">
        <ele>517</ele>
        <time>2018-04-19T09:09:05Z</time>
      </trkpt>
      <trkpt lat="46.63772" lon="5.61346">
        <ele>517</ele>
        <time>2018-04-19T09:09:19Z</time>
      </trkpt>
      <trkpt lat="46.63776" lon="5.61351">
        <ele>518</ele>
        <time>2018-04-19T09:09:25Z</time>
      </trkpt>
      <trkpt lat="46.63783" lon="5.61357">
        <ele>519</ele>
        <time>2018-04-19T09:09:42Z</time>
      </trkpt>
      <trkpt lat="46.6379" lon="5.61368">
        <ele>519</ele>
        <time>2018-04-19T09:09:53Z</time>
      </trkpt>
      <trkpt lat="46.63794" lon="5.61377">
        <ele>519</ele>
        <time>2018-04-19T09:10:00Z</time>
      </trkpt>
      <trkpt lat="46.63799" lon="5.61384">
        <ele>519</ele>
        <time>2018-04-19T09:10:06Z</time>
      </trkpt>
      <trkpt lat="46.63804" lon="5.61389">
        <ele>520</ele>
        <time>2018-04-19T09:10:10Z</time>
      </trkpt>
      <trkpt lat="46.6381" lon="5.61399">
        <ele>521</ele>
        <time>2018-04-19T09:10:17Z</time>
      </trkpt>
      <trkpt lat="46.63815" lon="5.61404">
        <ele>522</ele>
        <time>2018-04-19T09:10:21Z</time>
      </trkpt>
      <trkpt lat="46.63827" lon="5.61424">
        <ele>517</ele>
        <time>2018-04-19T09:10:37Z</time>
      </trkpt>
      <trkpt lat="46.63831" lon="5.61429">
        <ele>514</ele>
        <time>2018-04-19T09:10:42Z</time>
      </trkpt>
      <trkpt lat="46.63827" lon="5.61446">
        <ele>503</ele>
        <time>2018-04-19T09:10:52Z</time>
      </trkpt>
      <trkpt lat="46.6384" lon="5.61456">
        <ele>519</ele>
        <time>2018-04-19T09:11:06Z</time>
      </trkpt>
      <trkpt lat="46.63873" lon="5.61457">
        <ele>523</ele>
        <time>2018-04-19T09:11:15Z</time>
      </trkpt>
      <trkpt lat="46.63879" lon="5.61464">
        <ele>522</ele>
        <time>2018-04-19T09:11:19Z</time>
      </trkpt>
      <trkpt lat="46.63879" lon="5.61473">
        <ele>521</ele>
        <time>2018-04-19T09:11:23Z</time>
      </trkpt>
      <trkpt lat="46.63882" lon="5.61479">
        <ele>521</ele>
        <time>2018-04-19T09:11:26Z</time>
      </trkpt>
      <trkpt lat="46.6389" lon="5.61486">
        <ele>521</ele>
        <time>2018-04-19T09:11:32Z</time>
      </trkpt>
      <trkpt lat="46.63899" lon="5.61501">
        <ele>508</ele>
        <time>2018-04-19T09:11:46Z</time>
      </trkpt>
      <trkpt lat="46.63906" lon="5.61505">
        <ele>511</ele>
        <time>2018-04-19T09:11:54Z</time>
      </trkpt>
      <trkpt lat="46.63909" lon="5.61509">
        <ele>512</ele>
        <time>2018-04-19T09:11:58Z</time>
      </trkpt>
      <trkpt lat="46.63914" lon="5.61513">
        <ele>510</ele>
        <time>2018-04-19T09:12:02Z</time>
      </trkpt>
      <trkpt lat="46.63918" lon="5.61516">
        <ele>520</ele>
        <time>2018-04-19T09:12:05Z</time>
      </trkpt>
      <trkpt lat="46.63922" lon="5.61519">
        <ele>519</ele>
        <time>2018-04-19T09:12:10Z</time>
      </trkpt>
      <trkpt lat="46.63926" lon="5.61519">
        <ele>519</ele>
        <time>2018-04-19T09:12:24Z</time>
      </trkpt>
      <trkpt lat="46.63931" lon="5.61521">
        <ele>519</ele>
        <time>2018-04-19T09:12:42Z</time>
      </trkpt>
      <trkpt lat="46.63933" lon="5.61518">
        <ele>519</ele>
        <time>2018-04-19T09:13:12Z</time>
      </trkpt>
      <trkpt lat="46.63937" lon="5.61524">
        <ele>518</ele>
        <time>2018-04-19T09:13:57Z</time>
      </trkpt>
      <trkpt lat="46.63941" lon="5.61529">
        <ele>518</ele>
        <time>2018-04-19T09:14:02Z</time>
      </trkpt>
      <trkpt lat="46.63945" lon="5.61531">
        <ele>518</ele>
        <time>2018-04-19T09:14:05Z</time>
      </trkpt>
      <trkpt lat="46.63948" lon="5.61536">
        <ele>517</ele>
        <time>2018-04-19T09:14:10Z</time>
      </trkpt>
      <trkpt lat="46.63952" lon="5.6154">
        <ele>517</ele>
        <time>2018-04-19T09:14:15Z</time>
      </trkpt>
      <trkpt lat="46.63956" lon="5.61544">
        <ele>517</ele>
        <time>2018-04-19T09:14:19Z</time>
      </trkpt>
      <trkpt lat="46.63961" lon="5.61548">
        <ele>517</ele>
        <time>2018-04-19T09:14:23Z</time>
      </trkpt>
      <trkpt lat="46.6397" lon="5.61554">
        <ele>517</ele>
        <time>2018-04-19T09:14:30Z</time>
      </trkpt>
      <trkpt lat="46.63975" lon="5.61559">
        <ele>517</ele>
        <time>2018-04-19T09:14:34Z</time>
      </trkpt>
      <trkpt lat="46.63979" lon="5.61563">
        <ele>517</ele>
        <time>2018-04-19T09:14:38Z</time>
      </trkpt>
      <trkpt lat="46.63983" lon="5.61568">
        <ele>518</ele>
        <time>2018-04-19T09:14:43Z</time>
      </trkpt>
      <trkpt lat="46.64001" lon="5.61587">
        <ele>519</ele>
        <time>2018-04-19T09:15:02Z</time>
      </trkpt>
      <trkpt lat="46.64015" lon="5.61595">
        <ele>519</ele>
        <time>2018-04-19T09:15:14Z</time>
      </trkpt>
      <trkpt lat="46.64019" lon="5.616">
        <ele>519</ele>
        <time>2018-04-19T09:15:19Z</time>
      </trkpt>
      <trkpt lat="46.64023" lon="5.61603">
        <ele>519</ele>
        <time>2018-04-19T09:15:23Z</time>
      </trkpt>
      <trkpt lat="46.64031" lon="5.61612">
        <ele>519</ele>
        <time>2018-04-19T09:15:32Z</time>
      </trkpt>
      <trkpt lat="46.64035" lon="5.61617">
        <ele>520</ele>
        <time>2018-04-19T09:15:36Z</time>
      </trkpt>
      <trkpt lat="46.64039" lon="5.61621">
        <ele>520</ele>
        <time>2018-04-19T09:15:40Z</time>
      </trkpt>
      <trkpt lat="46.64043" lon="5.61625">
        <ele>520</ele>
        <time>2018-04-19T09:15:45Z</time>
      </trkpt>
      <trkpt lat="46.64051" lon="5.61628">
        <ele>521</ele>
        <time>2018-04-19T09:15:56Z</time>
      </trkpt>
      <trkpt lat="46.64056" lon="5.61636">
        <ele>521</ele>
        <time>2018-04-19T09:16:06Z</time>
      </trkpt>
      <trkpt lat="46.64077" lon="5.61659">
        <ele>527</ele>
        <time>2018-04-19T09:16:38Z</time>
      </trkpt>
      <trkpt lat="46.64084" lon="5.6167">
        <ele>531</ele>
        <time>2018-04-19T09:16:48Z</time>
      </trkpt>
      <trkpt lat="46.64088" lon="5.61672">
        <ele>532</ele>
        <time>2018-04-19T09:16:52Z</time>
      </trkpt>
      <trkpt lat="46.64097" lon="5.61684">
        <ele>533</ele>
        <time>2018-04-19T09:17:05Z</time>
      </trkpt>
      <trkpt lat="46.64099" lon="5.61691">
        <ele>533</ele>
        <time>2018-04-19T09:17:10Z</time>
      </trkpt>
      <trkpt lat="46.64104" lon="5.617">
        <ele>532</ele>
        <time>2018-04-19T09:17:18Z</time>
      </trkpt>
      <trkpt lat="46.6411" lon="5.61705">
        <ele>533</ele>
        <time>2018-04-19T09:17:26Z</time>
      </trkpt>
      <trkpt lat="46.64117" lon="5.61712">
        <ele>533</ele>
        <time>2018-04-19T09:17:35Z</time>
      </trkpt>
      <trkpt lat="46.6412" lon="5.61719">
        <ele>533</ele>
        <time>2018-04-19T09:17:43Z</time>
      </trkpt>
      <trkpt lat="46.64127" lon="5.61747">
        <ele>533</ele>
        <time>2018-04-19T09:18:03Z</time>
      </trkpt>
      <trkpt lat="46.64134" lon="5.6176">
        <ele>529</ele>
        <time>2018-04-19T09:18:14Z</time>
      </trkpt>
      <trkpt lat="46.64142" lon="5.61773">
        <ele>529</ele>
        <time>2018-04-19T09:18:26Z</time>
      </trkpt>
      <trkpt lat="46.64145" lon="5.61778">
        <ele>529</ele>
        <time>2018-04-19T09:18:30Z</time>
      </trkpt>
      <trkpt lat="46.64146" lon="5.61785">
        <ele>528</ele>
        <time>2018-04-19T09:18:35Z</time>
      </trkpt>
      <trkpt lat="46.64148" lon="5.61791">
        <ele>528</ele>
        <time>2018-04-19T09:18:39Z</time>
      </trkpt>
      <trkpt lat="46.64151" lon="5.61798">
        <ele>528</ele>
        <time>2018-04-19T09:18:47Z</time>
      </trkpt>
      <trkpt lat="46.64155" lon="5.61806">
        <ele>528</ele>
        <time>2018-04-19T09:19:00Z</time>
      </trkpt>
      <trkpt lat="46.64157" lon="5.61811">
        <ele>529</ele>
        <time>2018-04-19T09:19:04Z</time>
      </trkpt>
      <trkpt lat="46.64157" lon="5.61819">
        <ele>529</ele>
        <time>2018-04-19T09:19:12Z</time>
      </trkpt>
      <trkpt lat="46.64161" lon="5.61828">
        <ele>531</ele>
        <time>2018-04-19T09:19:24Z</time>
      </trkpt>
      <trkpt lat="46.64164" lon="5.61836">
        <ele>531</ele>
        <time>2018-04-19T09:19:36Z</time>
      </trkpt>
      <trkpt lat="46.64166" lon="5.61832">
        <ele>533</ele>
        <time>2018-04-19T09:21:22Z</time>
      </trkpt>
      <trkpt lat="46.64173" lon="5.61834">
        <ele>533</ele>
        <time>2018-04-19T09:21:28Z</time>
      </trkpt>
      <trkpt lat="46.6418" lon="5.61829">
        <ele>536</ele>
        <time>2018-04-19T09:21:37Z</time>
      </trkpt>
      <trkpt lat="46.64188" lon="5.61823">
        <ele>537</ele>
        <time>2018-04-19T09:21:47Z</time>
      </trkpt>
      <trkpt lat="46.64196" lon="5.61812">
        <ele>539</ele>
        <time>2018-04-19T09:21:56Z</time>
      </trkpt>
      <trkpt lat="46.64212" lon="5.61776">
        <ele>541</ele>
        <time>2018-04-19T09:22:20Z</time>
      </trkpt>
      <trkpt lat="46.64217" lon="5.61764">
        <ele>542</ele>
        <time>2018-04-19T09:22:28Z</time>
      </trkpt>
      <trkpt lat="46.64221" lon="5.61751">
        <ele>543</ele>
        <time>2018-04-19T09:22:36Z</time>
      </trkpt>
      <trkpt lat="46.64225" lon="5.61738">
        <ele>546</ele>
        <time>2018-04-19T09:22:43Z</time>
      </trkpt>
      <trkpt lat="46.64229" lon="5.61727">
        <ele>546</ele>
        <time>2018-04-19T09:22:51Z</time>
      </trkpt>
      <trkpt lat="46.64253" lon="5.61683">
        <ele>548</ele>
        <time>2018-04-19T09:23:23Z</time>
      </trkpt>
      <trkpt lat="46.64257" lon="5.61669">
        <ele>547</ele>
        <time>2018-04-19T09:23:30Z</time>
      </trkpt>
      <trkpt lat="46.64259" lon="5.61663">
        <ele>547</ele>
        <time>2018-04-19T09:23:35Z</time>
      </trkpt>
      <trkpt lat="46.64264" lon="5.61651">
        <ele>546</ele>
        <time>2018-04-19T09:23:44Z</time>
      </trkpt>
      <trkpt lat="46.64269" lon="5.61639">
        <ele>546</ele>
        <time>2018-04-19T09:23:52Z</time>
      </trkpt>
      <trkpt lat="46.64282" lon="5.61605">
        <ele>545</ele>
        <time>2018-04-19T09:24:16Z</time>
      </trkpt>
      <trkpt lat="46.64285" lon="5.616">
        <ele>545</ele>
        <time>2018-04-19T09:24:20Z</time>
      </trkpt>
      <trkpt lat="46.64289" lon="5.61594">
        <ele>545</ele>
        <time>2018-04-19T09:24:24Z</time>
      </trkpt>
      <trkpt lat="46.64291" lon="5.61587">
        <ele>544</ele>
        <time>2018-04-19T09:24:29Z</time>
      </trkpt>
      <trkpt lat="46.64293" lon="5.61581">
        <ele>542</ele>
        <time>2018-04-19T09:24:33Z</time>
      </trkpt>
      <trkpt lat="46.64294" lon="5.61574">
        <ele>542</ele>
        <time>2018-04-19T09:24:37Z</time>
      </trkpt>
      <trkpt lat="46.64296" lon="5.61567">
        <ele>542</ele>
        <time>2018-04-19T09:24:41Z</time>
      </trkpt>
      <trkpt lat="46.64298" lon="5.61561">
        <ele>542</ele>
        <time>2018-04-19T09:24:45Z</time>
      </trkpt>
      <trkpt lat="46.643" lon="5.61555">
        <ele>541</ele>
        <time>2018-04-19T09:24:50Z</time>
      </trkpt>
      <trkpt lat="46.64303" lon="5.61549">
        <ele>541</ele>
        <time>2018-04-19T09:24:55Z</time>
      </trkpt>
      <trkpt lat="46.64305" lon="5.61539">
        <ele>541</ele>
        <time>2018-04-19T09:25:02Z</time>
      </trkpt>
      <trkpt lat="46.64303" lon="5.61525">
        <ele>540</ele>
        <time>2018-04-19T09:25:09Z</time>
      </trkpt>
      <trkpt lat="46.64303" lon="5.61513">
        <ele>540</ele>
        <time>2018-04-19T09:25:26Z</time>
      </trkpt>
      <trkpt lat="46.64299" lon="5.61505">
        <ele>540</ele>
        <time>2018-04-19T09:27:02Z</time>
      </trkpt>
      <trkpt lat="46.64294" lon="5.61501">
        <ele>541</ele>
        <time>2018-04-19T09:27:14Z</time>
      </trkpt>
      <trkpt lat="46.6429" lon="5.61499">
        <ele>542</ele>
        <time>2018-04-19T09:27:19Z</time>
      </trkpt>
      <trkpt lat="46.6428" lon="5.61491">
        <ele>543</ele>
        <time>2018-04-19T09:27:31Z</time>
      </trkpt>
      <trkpt lat="46.64274" lon="5.61487">
        <ele>543</ele>
        <time>2018-04-19T09:27:39Z</time>
      </trkpt>
      <trkpt lat="46.64265" lon="5.61476">
        <ele>544</ele>
        <time>2018-04-19T09:27:49Z</time>
      </trkpt>
      <trkpt lat="46.64262" lon="5.61471">
        <ele>544</ele>
        <time>2018-04-19T09:27:54Z</time>
      </trkpt>
      <trkpt lat="46.64252" lon="5.6146">
        <ele>545</ele>
        <time>2018-04-19T09:28:08Z</time>
      </trkpt>
      <trkpt lat="46.64243" lon="5.61453">
        <ele>547</ele>
        <time>2018-04-19T09:28:16Z</time>
      </trkpt>
      <trkpt lat="46.64236" lon="5.61446">
        <ele>548</ele>
        <time>2018-04-19T09:28:23Z</time>
      </trkpt>
      <trkpt lat="46.64221" lon="5.61436">
        <ele>548</ele>
        <time>2018-04-19T09:28:38Z</time>
      </trkpt>
      <trkpt lat="46.64211" lon="5.61427">
        <ele>547</ele>
        <time>2018-04-19T09:28:53Z</time>
      </trkpt>
      <trkpt lat="46.64201" lon="5.61424">
        <ele>547</ele>
        <time>2018-04-19T09:29:00Z</time>
      </trkpt>
      <trkpt lat="46.64192" lon="5.61423">
        <ele>547</ele>
        <time>2018-04-19T09:29:07Z</time>
      </trkpt>
      <trkpt lat="46.64182" lon="5.61422">
        <ele>547</ele>
        <time>2018-04-19T09:29:14Z</time>
      </trkpt>
      <trkpt lat="46.64172" lon="5.61423">
        <ele>547</ele>
        <time>2018-04-19T09:29:26Z</time>
      </trkpt>
      <trkpt lat="46.64133" lon="5.61414">
        <ele>549</ele>
        <time>2018-04-19T09:30:00Z</time>
      </trkpt>
      <trkpt lat="46.64124" lon="5.61414">
        <ele>549</ele>
        <time>2018-04-19T09:30:06Z</time>
      </trkpt>
      <trkpt lat="46.64116" lon="5.61409">
        <ele>549</ele>
        <time>2018-04-19T09:30:13Z</time>
      </trkpt>
      <trkpt lat="46.64107" lon="5.61403">
        <ele>549</ele>
        <time>2018-04-19T09:30:22Z</time>
      </trkpt>
      <trkpt lat="46.64092" lon="5.61388">
        <ele>549</ele>
        <time>2018-04-19T09:30:40Z</time>
      </trkpt>
      <trkpt lat="46.64082" lon="5.61382">
        <ele>549</ele>
        <time>2018-04-19T09:30:47Z</time>
      </trkpt>
      <trkpt lat="46.64063" lon="5.61366">
        <ele>549</ele>
        <time>2018-04-19T09:31:05Z</time>
      </trkpt>
      <trkpt lat="46.64058" lon="5.61365">
        <ele>549</ele>
        <time>2018-04-19T09:31:08Z</time>
      </trkpt>
      <trkpt lat="46.64046" lon="5.61361">
        <ele>549</ele>
        <time>2018-04-19T09:31:15Z</time>
      </trkpt>
      <trkpt lat="46.64041" lon="5.61359">
        <ele>549</ele>
        <time>2018-04-19T09:31:18Z</time>
      </trkpt>
      <trkpt lat="46.64036" lon="5.61358">
        <ele>549</ele>
        <time>2018-04-19T09:31:21Z</time>
      </trkpt>
      <trkpt lat="46.64031" lon="5.61355">
        <ele>549</ele>
        <time>2018-04-19T09:31:26Z</time>
      </trkpt>
      <trkpt lat="46.64026" lon="5.61349">
        <ele>549</ele>
        <time>2018-04-19T09:31:34Z</time>
      </trkpt>
      <trkpt lat="46.64023" lon="5.61344">
        <ele>550</ele>
        <time>2018-04-19T09:31:40Z</time>
      </trkpt>
      <trkpt lat="46.64013" lon="5.61337">
        <ele>550</ele>
        <time>2018-04-19T09:31:51Z</time>
      </trkpt>
      <trkpt lat="46.64009" lon="5.61335">
        <ele>550</ele>
        <time>2018-04-19T09:31:56Z</time>
      </trkpt>
      <trkpt lat="46.6399" lon="5.61326">
        <ele>552</ele>
        <time>2018-04-19T09:32:13Z</time>
      </trkpt>
      <trkpt lat="46.63986" lon="5.61323">
        <ele>552</ele>
        <time>2018-04-19T09:32:17Z</time>
      </trkpt>
      <trkpt lat="46.63981" lon="5.61321">
        <ele>552</ele>
        <time>2018-04-19T09:32:21Z</time>
      </trkpt>
      <trkpt lat="46.63976" lon="5.61318">
        <ele>552</ele>
        <time>2018-04-19T09:32:27Z</time>
      </trkpt>
      <trkpt lat="46.63971" lon="5.61316">
        <ele>552</ele>
        <time>2018-04-19T09:32:31Z</time>
      </trkpt>
      <trkpt lat="46.63966" lon="5.61315">
        <ele>552</ele>
        <time>2018-04-19T09:32:34Z</time>
      </trkpt>
      <trkpt lat="46.6396" lon="5.61313">
        <ele>552</ele>
        <time>2018-04-19T09:32:38Z</time>
      </trkpt>
      <trkpt lat="46.63946" lon="5.6131">
        <ele>552</ele>
        <time>2018-04-19T09:32:47Z</time>
      </trkpt>
      <trkpt lat="46.63936" lon="5.61309">
        <ele>552</ele>
        <time>2018-04-19T09:32:56Z</time>
      </trkpt>
      <trkpt lat="46.63927" lon="5.61308">
        <ele>552</ele>
        <time>2018-04-19T09:33:02Z</time>
      </trkpt>
      <trkpt lat="46.63894" lon="5.61303">
        <ele>551</ele>
        <time>2018-04-19T09:33:34Z</time>
      </trkpt>
      <trkpt lat="46.63885" lon="5.613">
        <ele>551</ele>
        <time>2018-04-19T09:33:42Z</time>
      </trkpt>
      <trkpt lat="46.63869" lon="5.61299">
        <ele>551</ele>
        <time>2018-04-19T09:33:57Z</time>
      </trkpt>
      <trkpt lat="46.63855" lon="5.61299">
        <ele>550</ele>
        <time>2018-04-19T09:34:09Z</time>
      </trkpt>
      <trkpt lat="46.63833" lon="5.61297">
        <ele>541</ele>
        <time>2018-04-19T09:34:21Z</time>
      </trkpt>
      <trkpt lat="46.63825" lon="5.61295">
        <ele>541</ele>
        <time>2018-04-19T09:34:26Z</time>
      </trkpt>
      <trkpt lat="46.63815" lon="5.61291">
        <ele>540</ele>
        <time>2018-04-19T09:34:38Z</time>
      </trkpt>
      <trkpt lat="46.63798" lon="5.6129">
        <ele>538</ele>
        <time>2018-04-19T09:34:55Z</time>
      </trkpt>
      <trkpt lat="46.63768" lon="5.61279">
        <ele>534</ele>
        <time>2018-04-19T09:35:25Z</time>
      </trkpt>
      <trkpt lat="46.63759" lon="5.61272">
        <ele>534</ele>
        <time>2018-04-19T09:35:34Z</time>
      </trkpt>
      <trkpt lat="46.63752" lon="5.61264">
        <ele>534</ele>
        <time>2018-04-19T09:35:44Z</time>
      </trkpt>
      <trkpt lat="46.63746" lon="5.61262">
        <ele>521</ele>
        <time>2018-04-19T09:35:52Z</time>
      </trkpt>
      <trkpt lat="46.63737" lon="5.61262">
        <ele>518</ele>
        <time>2018-04-19T09:36:01Z</time>
      </trkpt>
      <trkpt lat="46.63732" lon="5.61263">
        <ele>515</ele>
        <time>2018-04-19T09:36:06Z</time>
      </trkpt>
      <trkpt lat="46.63728" lon="5.61267">
        <ele>513</ele>
        <time>2018-04-19T09:36:38Z</time>
      </trkpt>
      <trkpt lat="46.63732" lon="5.61266">
        <ele>514</ele>
        <time>2018-04-19T09:42:55Z</time>
      </trkpt>
      <trkpt lat="46.63736" lon="5.61261">
        <ele>517</ele>
        <time>2018-04-19T09:43:39Z</time>
      </trkpt>
      <trkpt lat="46.63741" lon="5.61262">
        <ele>519</ele>
        <time>2018-04-19T09:44:09Z</time>
      </trkpt>
      <trkpt lat="46.63745" lon="5.61256">
        <ele>525</ele>
        <time>2018-04-19T09:44:40Z</time>
      </trkpt>
      <trkpt lat="46.63749" lon="5.61244">
        <ele>529</ele>
        <time>2018-04-19T09:44:52Z</time>
      </trkpt>
      <trkpt lat="46.63746" lon="5.61231">
        <ele>523</ele>
        <time>2018-04-19T09:45:02Z</time>
      </trkpt>
      <trkpt lat="46.63748" lon="5.61223">
        <ele>521</ele>
        <time>2018-04-19T09:45:10Z</time>
      </trkpt>
      <trkpt lat="46.63745" lon="5.61206">
        <ele>520</ele>
        <time>2018-04-19T09:45:28Z</time>
      </trkpt>
      <trkpt lat="46.63748" lon="5.61172">
        <ele>532</ele>
        <time>2018-04-19T09:45:56Z</time>
      </trkpt>
      <trkpt lat="46.63749" lon="5.61158">
        <ele>530</ele>
        <time>2018-04-19T09:46:03Z</time>
      </trkpt>
      <trkpt lat="46.6375" lon="5.61145">
        <ele>542</ele>
        <time>2018-04-19T09:46:12Z</time>
      </trkpt>
      <trkpt lat="46.63754" lon="5.61132">
        <ele>543</ele>
        <time>2018-04-19T09:46:23Z</time>
      </trkpt>
      <trkpt lat="46.63753" lon="5.61118">
        <ele>543</ele>
        <time>2018-04-19T09:46:35Z</time>
      </trkpt>
      <trkpt lat="46.63747" lon="5.61107">
        <ele>527</ele>
        <time>2018-04-19T09:46:45Z</time>
      </trkpt>
      <trkpt lat="46.63742" lon="5.61092">
        <ele>531</ele>
        <time>2018-04-19T09:46:57Z</time>
      </trkpt>
      <trkpt lat="46.63737" lon="5.61081">
        <ele>533</ele>
        <time>2018-04-19T09:47:06Z</time>
      </trkpt>
      <trkpt lat="46.63738" lon="5.61065">
        <ele>531</ele>
        <time>2018-04-19T09:47:15Z</time>
      </trkpt>
      <trkpt lat="46.63738" lon="5.61052">
        <ele>530</ele>
        <time>2018-04-19T09:47:26Z</time>
      </trkpt>
      <trkpt lat="46.63725" lon="5.61032">
        <ele>528</ele>
        <time>2018-04-19T09:47:41Z</time>
      </trkpt>
      <trkpt lat="46.63719" lon="5.61019">
        <ele>528</ele>
        <time>2018-04-19T09:47:51Z</time>
      </trkpt>
      <trkpt lat="46.63717" lon="5.61006">
        <ele>528</ele>
        <time>2018-04-19T09:48:00Z</time>
      </trkpt>
      <trkpt lat="46.63718" lon="5.60992">
        <ele>527</ele>
        <time>2018-04-19T09:48:10Z</time>
      </trkpt>
      <trkpt lat="46.63718" lon="5.60978">
        <ele>526</ele>
        <time>2018-04-19T09:48:24Z</time>
      </trkpt>
      <trkpt lat="46.63726" lon="5.60963">
        <ele>526</ele>
        <time>2018-04-19T09:48:40Z</time>
      </trkpt>
      <trkpt lat="46.63738" lon="5.60944">
        <ele>527</ele>
        <time>2018-04-19T09:49:02Z</time>
      </trkpt>
      <trkpt lat="46.6375" lon="5.60932">
        <ele>529</ele>
        <time>2018-04-19T09:49:14Z</time>
      </trkpt>
      <trkpt lat="46.63781" lon="5.60908">
        <ele>532</ele>
        <time>2018-04-19T09:49:46Z</time>
      </trkpt>
      <trkpt lat="46.63788" lon="5.609">
        <ele>532</ele>
        <time>2018-04-19T09:50:00Z</time>
      </trkpt>
      <trkpt lat="46.63806" lon="5.6089">
        <ele>534</ele>
        <time>2018-04-19T09:50:21Z</time>
      </trkpt>
      <trkpt lat="46.63812" lon="5.60886">
        <ele>534</ele>
        <time>2018-04-19T09:50:27Z</time>
      </trkpt>
      <trkpt lat="46.63817" lon="5.60886">
        <ele>535</ele>
        <time>2018-04-19T09:50:32Z</time>
      </trkpt>
      <trkpt lat="46.63828" lon="5.60883">
        <ele>535</ele>
        <time>2018-04-19T09:50:45Z</time>
      </trkpt>
      <trkpt lat="46.63846" lon="5.60873">
        <ele>544</ele>
        <time>2018-04-19T09:51:06Z</time>
      </trkpt>
      <trkpt lat="46.63851" lon="5.60871">
        <ele>544</ele>
        <time>2018-04-19T09:51:11Z</time>
      </trkpt>
      <trkpt lat="46.63855" lon="5.60867">
        <ele>543</ele>
        <time>2018-04-19T09:51:15Z</time>
      </trkpt>
      <trkpt lat="46.63859" lon="5.60863">
        <ele>543</ele>
        <time>2018-04-19T09:51:20Z</time>
      </trkpt>
      <trkpt lat="46.63865" lon="5.60861">
        <ele>543</ele>
        <time>2018-04-19T09:51:25Z</time>
      </trkpt>
      <trkpt lat="46.63871" lon="5.60858">
        <ele>543</ele>
        <time>2018-04-19T09:51:32Z</time>
      </trkpt>
      <trkpt lat="46.63878" lon="5.60857">
        <ele>544</ele>
        <time>2018-04-19T09:51:42Z</time>
      </trkpt>
      <trkpt lat="46.63883" lon="5.60856">
        <ele>544</ele>
        <time>2018-04-19T09:51:47Z</time>
      </trkpt>
      <trkpt lat="46.63893" lon="5.60853">
        <ele>544</ele>
        <time>2018-04-19T09:51:56Z</time>
      </trkpt>
      <trkpt lat="46.63899" lon="5.60853">
        <ele>544</ele>
        <time>2018-04-19T09:52:00Z</time>
      </trkpt>
      <trkpt lat="46.63903" lon="5.60854">
        <ele>545</ele>
        <time>2018-04-19T09:52:05Z</time>
      </trkpt>
      <trkpt lat="46.63914" lon="5.60854">
        <ele>545</ele>
        <time>2018-04-19T09:52:13Z</time>
      </trkpt>
      <trkpt lat="46.63919" lon="5.60853">
        <ele>546</ele>
        <time>2018-04-19T09:52:17Z</time>
      </trkpt>
      <trkpt lat="46.63929" lon="5.60852">
        <ele>546</ele>
        <time>2018-04-19T09:52:23Z</time>
      </trkpt>
      <trkpt lat="46.63934" lon="5.60851">
        <ele>547</ele>
        <time>2018-04-19T09:52:27Z</time>
      </trkpt>
      <trkpt lat="46.63939" lon="5.6085">
        <ele>547</ele>
        <time>2018-04-19T09:52:32Z</time>
      </trkpt>
      <trkpt lat="46.63944" lon="5.60849">
        <ele>547</ele>
        <time>2018-04-19T09:52:40Z</time>
      </trkpt>
      <trkpt lat="46.63949" lon="5.60848">
        <ele>547</ele>
        <time>2018-04-19T09:52:45Z</time>
      </trkpt>
      <trkpt lat="46.63957" lon="5.60846">
        <ele>547</ele>
        <time>2018-04-19T09:52:54Z</time>
      </trkpt>
      <trkpt lat="46.63961" lon="5.60846">
        <ele>547</ele>
        <time>2018-04-19T09:52:58Z</time>
      </trkpt>
      <trkpt lat="46.63966" lon="5.60847">
        <ele>547</ele>
        <time>2018-04-19T09:53:02Z</time>
      </trkpt>
      <trkpt lat="46.63971" lon="5.60845">
        <ele>547</ele>
        <time>2018-04-19T09:53:07Z</time>
      </trkpt>
      <trkpt lat="46.6398" lon="5.60844">
        <ele>546</ele>
        <time>2018-04-19T09:53:17Z</time>
      </trkpt>
      <trkpt lat="46.63985" lon="5.60843">
        <ele>546</ele>
        <time>2018-04-19T09:53:20Z</time>
      </trkpt>
      <trkpt lat="46.6399" lon="5.60841">
        <ele>546</ele>
        <time>2018-04-19T09:53:25Z</time>
      </trkpt>
      <trkpt lat="46.64002" lon="5.60841">
        <ele>545</ele>
        <time>2018-04-19T09:53:35Z</time>
      </trkpt>
      <trkpt lat="46.64006" lon="5.6084">
        <ele>545</ele>
        <time>2018-04-19T09:53:39Z</time>
      </trkpt>
      <trkpt lat="46.64011" lon="5.60838">
        <ele>545</ele>
        <time>2018-04-19T09:53:44Z</time>
      </trkpt>
      <trkpt lat="46.64016" lon="5.60839">
        <ele>545</ele>
        <time>2018-04-19T09:53:49Z</time>
      </trkpt>
      <trkpt lat="46.64027" lon="5.60839">
        <ele>545</ele>
        <time>2018-04-19T09:53:57Z</time>
      </trkpt>
      <trkpt lat="46.64032" lon="5.60839">
        <ele>545</ele>
        <time>2018-04-19T09:54:01Z</time>
      </trkpt>
      <trkpt lat="46.64038" lon="5.60838">
        <ele>545</ele>
        <time>2018-04-19T09:54:08Z</time>
      </trkpt>
      <trkpt lat="46.64043" lon="5.60836">
        <ele>545</ele>
        <time>2018-04-19T09:54:12Z</time>
      </trkpt>
      <trkpt lat="46.64054" lon="5.60833">
        <ele>535</ele>
        <time>2018-04-19T09:54:23Z</time>
      </trkpt>
      <trkpt lat="46.6406" lon="5.60832">
        <ele>536</ele>
        <time>2018-04-19T09:54:30Z</time>
      </trkpt>
      <trkpt lat="46.64065" lon="5.60831">
        <ele>536</ele>
        <time>2018-04-19T09:54:34Z</time>
      </trkpt>
      <trkpt lat="46.6408" lon="5.60832">
        <ele>540</ele>
        <time>2018-04-19T09:54:47Z</time>
      </trkpt>
      <trkpt lat="46.64084" lon="5.60832">
        <ele>541</ele>
        <time>2018-04-19T09:54:51Z</time>
      </trkpt>
      <trkpt lat="46.64089" lon="5.6083">
        <ele>539</ele>
        <time>2018-04-19T09:54:55Z</time>
      </trkpt>
      <trkpt lat="46.64105" lon="5.60828">
        <ele>535</ele>
        <time>2018-04-19T09:55:07Z</time>
      </trkpt>
      <trkpt lat="46.64109" lon="5.60827">
        <ele>534</ele>
        <time>2018-04-19T09:55:12Z</time>
      </trkpt>
      <trkpt lat="46.64114" lon="5.60828">
        <ele>534</ele>
        <time>2018-04-19T09:55:20Z</time>
      </trkpt>
      <trkpt lat="46.64119" lon="5.60828">
        <ele>533</ele>
        <time>2018-04-19T09:55:26Z</time>
      </trkpt>
      <trkpt lat="46.64129" lon="5.60827">
        <ele>533</ele>
        <time>2018-04-19T09:55:36Z</time>
      </trkpt>
      <trkpt lat="46.64134" lon="5.60827">
        <ele>533</ele>
        <time>2018-04-19T09:55:41Z</time>
      </trkpt>
      <trkpt lat="46.64141" lon="5.60829">
        <ele>534</ele>
        <time>2018-04-19T09:55:47Z</time>
      </trkpt>
      <trkpt lat="46.64146" lon="5.6083">
        <ele>535</ele>
        <time>2018-04-19T09:55:51Z</time>
      </trkpt>
      <trkpt lat="46.64176" lon="5.60822">
        <ele>535</ele>
        <time>2018-04-19T09:56:19Z</time>
      </trkpt>
      <trkpt lat="46.64181" lon="5.60823">
        <ele>534</ele>
        <time>2018-04-19T09:56:23Z</time>
      </trkpt>
      <trkpt lat="46.64194" lon="5.60823">
        <ele>531</ele>
        <time>2018-04-19T09:56:37Z</time>
      </trkpt>
      <trkpt lat="46.64199" lon="5.60822">
        <ele>531</ele>
        <time>2018-04-19T09:56:41Z</time>
      </trkpt>
      <trkpt lat="46.64209" lon="5.60825">
        <ele>531</ele>
        <time>2018-04-19T09:56:48Z</time>
      </trkpt>
      <trkpt lat="46.64218" lon="5.60823">
        <ele>530</ele>
        <time>2018-04-19T09:56:56Z</time>
      </trkpt>
      <trkpt lat="46.64227" lon="5.60824">
        <ele>531</ele>
        <time>2018-04-19T09:57:06Z</time>
      </trkpt>
      <trkpt lat="46.64249" lon="5.60823">
        <ele>534</ele>
        <time>2018-04-19T09:57:26Z</time>
      </trkpt>
      <trkpt lat="46.64258" lon="5.60821">
        <ele>531</ele>
        <time>2018-04-19T09:57:33Z</time>
      </trkpt>
      <trkpt lat="46.64263" lon="5.60824">
        <ele>531</ele>
        <time>2018-04-19T09:57:37Z</time>
      </trkpt>
      <trkpt lat="46.64268" lon="5.60824">
        <ele>530</ele>
        <time>2018-04-19T09:57:42Z</time>
      </trkpt>
      <trkpt lat="46.64277" lon="5.60824">
        <ele>528</ele>
        <time>2018-04-19T09:57:52Z</time>
      </trkpt>
      <trkpt lat="46.64288" lon="5.60822">
        <ele>527</ele>
        <time>2018-04-19T09:58:01Z</time>
      </trkpt>
      <trkpt lat="46.64293" lon="5.60822">
        <ele>527</ele>
        <time>2018-04-19T09:58:04Z</time>
      </trkpt>
      <trkpt lat="46.64297" lon="5.60819">
        <ele>527</ele>
        <time>2018-04-19T09:58:09Z</time>
      </trkpt>
      <trkpt lat="46.64312" lon="5.6082">
        <ele>527</ele>
        <time>2018-04-19T09:58:22Z</time>
      </trkpt>
      <trkpt lat="46.64322" lon="5.60819">
        <ele>528</ele>
        <time>2018-04-19T09:58:32Z</time>
      </trkpt>
      <trkpt lat="46.64327" lon="5.60819">
        <ele>529</ele>
        <time>2018-04-19T09:58:39Z</time>
      </trkpt>
      <trkpt lat="46.64332" lon="5.60818">
        <ele>529</ele>
        <time>2018-04-19T09:58:43Z</time>
      </trkpt>
      <trkpt lat="46.64347" lon="5.60817">
        <ele>525</ele>
        <time>2018-04-19T09:58:57Z</time>
      </trkpt>
      <trkpt lat="46.64361" lon="5.60814">
        <ele>522</ele>
        <time>2018-04-19T09:59:18Z</time>
      </trkpt>
      <trkpt lat="46.64366" lon="5.60815">
        <ele>522</ele>
        <time>2018-04-19T09:59:22Z</time>
      </trkpt>
      <trkpt lat="46.64377" lon="5.60816">
        <ele>522</ele>
        <time>2018-04-19T09:59:34Z</time>
      </trkpt>
      <trkpt lat="46.64381" lon="5.60817">
        <ele>522</ele>
        <time>2018-04-19T09:59:37Z</time>
      </trkpt>
      <trkpt lat="46.64386" lon="5.60817">
        <ele>522</ele>
        <time>2018-04-19T09:59:42Z</time>
      </trkpt>
      <trkpt lat="46.64392" lon="5.60814">
        <ele>522</ele>
        <time>2018-04-19T09:59:46Z</time>
      </trkpt>
      <trkpt lat="46.64398" lon="5.60811">
        <ele>522</ele>
        <time>2018-04-19T09:59:55Z</time>
      </trkpt>
      <trkpt lat="46.64403" lon="5.6081">
        <ele>522</ele>
        <time>2018-04-19T09:59:58Z</time>
      </trkpt>
      <trkpt lat="46.64418" lon="5.6081">
        <ele>519</ele>
        <time>2018-04-19T10:00:09Z</time>
      </trkpt>
      <trkpt lat="46.64423" lon="5.60808">
        <ele>518</ele>
        <time>2018-04-19T10:00:12Z</time>
      </trkpt>
      <trkpt lat="46.64427" lon="5.60807">
        <ele>517</ele>
        <time>2018-04-19T10:00:17Z</time>
      </trkpt>
      <trkpt lat="46.64439" lon="5.60805">
        <ele>515</ele>
        <time>2018-04-19T10:00:26Z</time>
      </trkpt>
      <trkpt lat="46.64457" lon="5.60811">
        <ele>515</ele>
        <time>2018-04-19T10:00:42Z</time>
      </trkpt>
      <trkpt lat="46.64466" lon="5.60816">
        <ele>515</ele>
        <time>2018-04-19T10:00:51Z</time>
      </trkpt>
      <trkpt lat="46.64474" lon="5.60821">
        <ele>516</ele>
        <time>2018-04-19T10:01:01Z</time>
      </trkpt>
      <trkpt lat="46.64497" lon="5.60832">
        <ele>522</ele>
        <time>2018-04-19T10:01:27Z</time>
      </trkpt>
      <trkpt lat="46.64501" lon="5.60832">
        <ele>523</ele>
        <time>2018-04-19T10:01:32Z</time>
      </trkpt>
      <trkpt lat="46.64506" lon="5.60834">
        <ele>525</ele>
        <time>2018-04-19T10:01:38Z</time>
      </trkpt>
      <trkpt lat="46.64511" lon="5.60834">
        <ele>525</ele>
        <time>2018-04-19T10:01:42Z</time>
      </trkpt>
      <trkpt lat="46.64522" lon="5.60836">
        <ele>525</ele>
        <time>2018-04-19T10:01:53Z</time>
      </trkpt>
      <trkpt lat="46.64527" lon="5.60837">
        <ele>525</ele>
        <time>2018-04-19T10:01:57Z</time>
      </trkpt>
      <trkpt lat="46.64533" lon="5.60837">
        <ele>525</ele>
        <time>2018-04-19T10:02:05Z</time>
      </trkpt>
      <trkpt lat="46.64538" lon="5.60839">
        <ele>525</ele>
        <time>2018-04-19T10:02:09Z</time>
      </trkpt>
      <trkpt lat="46.64554" lon="5.60848">
        <ele>524</ele>
        <time>2018-04-19T10:02:26Z</time>
      </trkpt>
      <trkpt lat="46.64582" lon="5.60874">
        <ele>525</ele>
        <time>2018-04-19T10:02:51Z</time>
      </trkpt>
      <trkpt lat="46.64585" lon="5.6088">
        <ele>517</ele>
        <time>2018-04-19T10:02:55Z</time>
      </trkpt>
      <trkpt lat="46.64588" lon="5.60885">
        <ele>517</ele>
        <time>2018-04-19T10:02:58Z</time>
      </trkpt>
      <trkpt lat="46.64593" lon="5.609">
        <ele>520</ele>
        <time>2018-04-19T10:03:10Z</time>
      </trkpt>
      <trkpt lat="46.64597" lon="5.6091">
        <ele>522</ele>
        <time>2018-04-19T10:03:22Z</time>
      </trkpt>
      <trkpt lat="46.64601" lon="5.60916">
        <ele>521</ele>
        <time>2018-04-19T10:03:26Z</time>
      </trkpt>
      <trkpt lat="46.64604" lon="5.60929">
        <ele>526</ele>
        <time>2018-04-19T10:03:35Z</time>
      </trkpt>
      <trkpt lat="46.646" lon="5.60941">
        <ele>526</ele>
        <time>2018-04-19T10:03:47Z</time>
      </trkpt>
      <trkpt lat="46.64592" lon="5.60948">
        <ele>526</ele>
        <time>2018-04-19T10:03:55Z</time>
      </trkpt>
      <trkpt lat="46.64581" lon="5.60953">
        <ele>534</ele>
        <time>2018-04-19T10:04:06Z</time>
      </trkpt>
      <trkpt lat="46.64572" lon="5.60959">
        <ele>534</ele>
        <time>2018-04-19T10:04:13Z</time>
      </trkpt>
      <trkpt lat="46.64569" lon="5.60964">
        <ele>535</ele>
        <time>2018-04-19T10:04:19Z</time>
      </trkpt>
      <trkpt lat="46.64565" lon="5.60977">
        <ele>535</ele>
        <time>2018-04-19T10:04:55Z</time>
      </trkpt>
      <trkpt lat="46.64564" lon="5.60984">
        <ele>535</ele>
        <time>2018-04-19T10:04:59Z</time>
      </trkpt>
      <trkpt lat="46.6456" lon="5.61004">
        <ele>536</ele>
        <time>2018-04-19T10:05:13Z</time>
      </trkpt>
      <trkpt lat="46.64555" lon="5.61009">
        <ele>537</ele>
        <time>2018-04-19T10:05:18Z</time>
      </trkpt>
      <trkpt lat="46.64551" lon="5.61012">
        <ele>537</ele>
        <time>2018-04-19T10:05:23Z</time>
      </trkpt>
      <trkpt lat="46.64548" lon="5.61018">
        <ele>538</ele>
        <time>2018-04-19T10:05:28Z</time>
      </trkpt>
      <trkpt lat="46.64543" lon="5.61021">
        <ele>538</ele>
        <time>2018-04-19T10:05:32Z</time>
      </trkpt>
      <trkpt lat="46.6454" lon="5.61026">
        <ele>538</ele>
        <time>2018-04-19T10:05:37Z</time>
      </trkpt>
      <trkpt lat="46.64533" lon="5.61044">
        <ele>539</ele>
        <time>2018-04-19T10:05:52Z</time>
      </trkpt>
      <trkpt lat="46.64531" lon="5.61051">
        <ele>539</ele>
        <time>2018-04-19T10:05:56Z</time>
      </trkpt>
      <trkpt lat="46.64529" lon="5.61058">
        <ele>539</ele>
        <time>2018-04-19T10:06:02Z</time>
      </trkpt>
      <trkpt lat="46.64529" lon="5.61066">
        <ele>539</ele>
        <time>2018-04-19T10:06:07Z</time>
      </trkpt>
      <trkpt lat="46.64531" lon="5.61073">
        <ele>539</ele>
        <time>2018-04-19T10:06:11Z</time>
      </trkpt>
      <trkpt lat="46.64534" lon="5.6108">
        <ele>539</ele>
        <time>2018-04-19T10:06:14Z</time>
      </trkpt>
      <trkpt lat="46.64538" lon="5.61086">
        <ele>538</ele>
        <time>2018-04-19T10:06:17Z</time>
      </trkpt>
      <trkpt lat="46.64543" lon="5.61089">
        <ele>537</ele>
        <time>2018-04-19T10:06:21Z</time>
      </trkpt>
      <trkpt lat="46.64553" lon="5.61091">
        <ele>537</ele>
        <time>2018-04-19T10:06:30Z</time>
      </trkpt>
      <trkpt lat="46.64558" lon="5.61091">
        <ele>536</ele>
        <time>2018-04-19T10:06:34Z</time>
      </trkpt>
      <trkpt lat="46.64563" lon="5.61092">
        <ele>536</ele>
        <time>2018-04-19T10:06:37Z</time>
      </trkpt>
      <trkpt lat="46.64568" lon="5.61093">
        <ele>536</ele>
        <time>2018-04-19T10:06:40Z</time>
      </trkpt>
      <trkpt lat="46.64584" lon="5.61089">
        <ele>534</ele>
        <time>2018-04-19T10:06:52Z</time>
      </trkpt>
      <trkpt lat="46.64594" lon="5.61088">
        <ele>534</ele>
        <time>2018-04-19T10:07:00Z</time>
      </trkpt>
      <trkpt lat="46.64603" lon="5.61085">
        <ele>533</ele>
        <time>2018-04-19T10:07:09Z</time>
      </trkpt>
      <trkpt lat="46.64613" lon="5.61077">
        <ele>532</ele>
        <time>2018-04-19T10:07:19Z</time>
      </trkpt>
      <trkpt lat="46.6462" lon="5.61067">
        <ele>532</ele>
        <time>2018-04-19T10:07:26Z</time>
      </trkpt>
      <trkpt lat="46.64628" lon="5.61059">
        <ele>532</ele>
        <time>2018-04-19T10:07:36Z</time>
      </trkpt>
      <trkpt lat="46.64634" lon="5.61052">
        <ele>531</ele>
        <time>2018-04-19T10:07:43Z</time>
      </trkpt>
      <trkpt lat="46.64638" lon="5.61048">
        <ele>531</ele>
        <time>2018-04-19T10:07:48Z</time>
      </trkpt>
      <trkpt lat="46.64642" lon="5.61043">
        <ele>531</ele>
        <time>2018-04-19T10:07:52Z</time>
      </trkpt>
      <trkpt lat="46.64647" lon="5.6104">
        <ele>531</ele>
        <time>2018-04-19T10:07:57Z</time>
      </trkpt>
      <trkpt lat="46.64669" lon="5.6103">
        <ele>529</ele>
        <time>2018-04-19T10:08:17Z</time>
      </trkpt>
      <trkpt lat="46.64679" lon="5.61025">
        <ele>529</ele>
        <time>2018-04-19T10:08:24Z</time>
      </trkpt>
      <trkpt lat="46.64684" lon="5.61025">
        <ele>529</ele>
        <time>2018-04-19T10:08:28Z</time>
      </trkpt>
      <trkpt lat="46.64689" lon="5.61026">
        <ele>529</ele>
        <time>2018-04-19T10:08:33Z</time>
      </trkpt>
      <trkpt lat="46.64701" lon="5.61022">
        <ele>530</ele>
        <time>2018-04-19T10:08:44Z</time>
      </trkpt>
      <trkpt lat="46.64707" lon="5.6102">
        <ele>530</ele>
        <time>2018-04-19T10:08:51Z</time>
      </trkpt>
      <trkpt lat="46.64712" lon="5.61018">
        <ele>530</ele>
        <time>2018-04-19T10:08:55Z</time>
      </trkpt>
      <trkpt lat="46.64716" lon="5.61014">
        <ele>530</ele>
        <time>2018-04-19T10:08:58Z</time>
      </trkpt>
      <trkpt lat="46.64721" lon="5.61012">
        <ele>530</ele>
        <time>2018-04-19T10:09:02Z</time>
      </trkpt>
      <trkpt lat="46.64726" lon="5.61009">
        <ele>530</ele>
        <time>2018-04-19T10:09:06Z</time>
      </trkpt>
      <trkpt lat="46.64731" lon="5.61008">
        <ele>530</ele>
        <time>2018-04-19T10:09:10Z</time>
      </trkpt>
      <trkpt lat="46.64736" lon="5.61008">
        <ele>530</ele>
        <time>2018-04-19T10:09:14Z</time>
      </trkpt>
      <trkpt lat="46.64744" lon="5.61006">
        <ele>529</ele>
        <time>2018-04-19T10:09:25Z</time>
      </trkpt>
      <trkpt lat="46.64749" lon="5.60999">
        <ele>529</ele>
        <time>2018-04-19T10:09:49Z</time>
      </trkpt>
      <trkpt lat="46.64762" lon="5.60987">
        <ele>528</ele>
        <time>2018-04-19T10:09:59Z</time>
      </trkpt>
      <trkpt lat="46.64771" lon="5.6098">
        <ele>528</ele>
        <time>2018-04-19T10:10:06Z</time>
      </trkpt>
      <trkpt lat="46.64775" lon="5.60977">
        <ele>528</ele>
        <time>2018-04-19T10:10:11Z</time>
      </trkpt>
      <trkpt lat="46.64788" lon="5.60966">
        <ele>528</ele>
        <time>2018-04-19T10:10:23Z</time>
      </trkpt>
      <trkpt lat="46.64801" lon="5.60954">
        <ele>528</ele>
        <time>2018-04-19T10:10:37Z</time>
      </trkpt>
      <trkpt lat="46.64805" lon="5.6095">
        <ele>528</ele>
        <time>2018-04-19T10:10:41Z</time>
      </trkpt>
      <trkpt lat="46.64808" lon="5.60945">
        <ele>528</ele>
        <time>2018-04-19T10:10:46Z</time>
      </trkpt>
      <trkpt lat="46.64812" lon="5.60938">
        <ele>528</ele>
        <time>2018-04-19T10:10:51Z</time>
      </trkpt>
      <trkpt lat="46.64816" lon="5.60935">
        <ele>528</ele>
        <time>2018-04-19T10:10:56Z</time>
      </trkpt>
      <trkpt lat="46.64825" lon="5.60928">
        <ele>529</ele>
        <time>2018-04-19T10:11:04Z</time>
      </trkpt>
      <trkpt lat="46.64829" lon="5.60924">
        <ele>529</ele>
        <time>2018-04-19T10:11:08Z</time>
      </trkpt>
      <trkpt lat="46.64856" lon="5.60904">
        <ele>529</ele>
        <time>2018-04-19T10:11:29Z</time>
      </trkpt>
      <trkpt lat="46.64864" lon="5.60895">
        <ele>528</ele>
        <time>2018-04-19T10:11:38Z</time>
      </trkpt>
      <trkpt lat="46.64873" lon="5.60887">
        <ele>528</ele>
        <time>2018-04-19T10:11:47Z</time>
      </trkpt>
      <trkpt lat="46.64878" lon="5.60884">
        <ele>528</ele>
        <time>2018-04-19T10:11:52Z</time>
      </trkpt>
      <trkpt lat="46.64886" lon="5.60878">
        <ele>528</ele>
        <time>2018-04-19T10:12:00Z</time>
      </trkpt>
      <trkpt lat="46.64891" lon="5.60875">
        <ele>528</ele>
        <time>2018-04-19T10:12:04Z</time>
      </trkpt>
      <trkpt lat="46.649" lon="5.60868">
        <ele>528</ele>
        <time>2018-04-19T10:12:13Z</time>
      </trkpt>
      <trkpt lat="46.64918" lon="5.60851">
        <ele>527</ele>
        <time>2018-04-19T10:12:59Z</time>
      </trkpt>
      <trkpt lat="46.64922" lon="5.60846">
        <ele>527</ele>
        <time>2018-04-19T10:13:03Z</time>
      </trkpt>
      <trkpt lat="46.64926" lon="5.60842">
        <ele>527</ele>
        <time>2018-04-19T10:13:07Z</time>
      </trkpt>
      <trkpt lat="46.64931" lon="5.6084">
        <ele>527</ele>
        <time>2018-04-19T10:13:10Z</time>
      </trkpt>
      <trkpt lat="46.64934" lon="5.60835">
        <ele>526</ele>
        <time>2018-04-19T10:13:15Z</time>
      </trkpt>
      <trkpt lat="46.64939" lon="5.6083">
        <ele>523</ele>
        <time>2018-04-19T10:13:19Z</time>
      </trkpt>
      <trkpt lat="46.64942" lon="5.60826">
        <ele>522</ele>
        <time>2018-04-19T10:13:23Z</time>
      </trkpt>
      <trkpt lat="46.64947" lon="5.60824">
        <ele>521</ele>
        <time>2018-04-19T10:13:28Z</time>
      </trkpt>
      <trkpt lat="46.64951" lon="5.6082">
        <ele>521</ele>
        <time>2018-04-19T10:13:33Z</time>
      </trkpt>
      <trkpt lat="46.64957" lon="5.60819">
        <ele>520</ele>
        <time>2018-04-19T10:13:37Z</time>
      </trkpt>
      <trkpt lat="46.64966" lon="5.60815">
        <ele>520</ele>
        <time>2018-04-19T10:13:46Z</time>
      </trkpt>
      <trkpt lat="46.64976" lon="5.60806">
        <ele>519</ele>
        <time>2018-04-19T10:13:55Z</time>
      </trkpt>
      <trkpt lat="46.64979" lon="5.60801">
        <ele>519</ele>
        <time>2018-04-19T10:14:00Z</time>
      </trkpt>
      <trkpt lat="46.6499" lon="5.60808">
        <ele>519</ele>
        <time>2018-04-19T10:14:16Z</time>
      </trkpt>
      <trkpt lat="46.65006" lon="5.60794">
        <ele>517</ele>
        <time>2018-04-19T10:14:36Z</time>
      </trkpt>
      <trkpt lat="46.65015" lon="5.60787">
        <ele>517</ele>
        <time>2018-04-19T10:14:43Z</time>
      </trkpt>
      <trkpt lat="46.65019" lon="5.60782">
        <ele>517</ele>
        <time>2018-04-19T10:14:46Z</time>
      </trkpt>
      <trkpt lat="46.65023" lon="5.6078">
        <ele>517</ele>
        <time>2018-04-19T10:14:49Z</time>
      </trkpt>
      <trkpt lat="46.65028" lon="5.60778">
        <ele>517</ele>
        <time>2018-04-19T10:14:53Z</time>
      </trkpt>
      <trkpt lat="46.65033" lon="5.60778">
        <ele>517</ele>
        <time>2018-04-19T10:14:57Z</time>
      </trkpt>
      <trkpt lat="46.65039" lon="5.60777">
        <ele>517</ele>
        <time>2018-04-19T10:15:02Z</time>
      </trkpt>
      <trkpt lat="46.65043" lon="5.60774">
        <ele>517</ele>
        <time>2018-04-19T10:15:06Z</time>
      </trkpt>
      <trkpt lat="46.65048" lon="5.60774">
        <ele>517</ele>
        <time>2018-04-19T10:15:11Z</time>
      </trkpt>
      <trkpt lat="46.65064" lon="5.60771">
        <ele>516</ele>
        <time>2018-04-19T10:15:24Z</time>
      </trkpt>
      <trkpt lat="46.65074" lon="5.60766">
        <ele>516</ele>
        <time>2018-04-19T10:15:30Z</time>
      </trkpt>
      <trkpt lat="46.65078" lon="5.60763">
        <ele>516</ele>
        <time>2018-04-19T10:15:34Z</time>
      </trkpt>
      <trkpt lat="46.65088" lon="5.60761">
        <ele>517</ele>
        <time>2018-04-19T10:15:44Z</time>
      </trkpt>
      <trkpt lat="46.65092" lon="5.60759">
        <ele>517</ele>
        <time>2018-04-19T10:15:48Z</time>
      </trkpt>
      <trkpt lat="46.65108" lon="5.6075">
        <ele>518</ele>
        <time>2018-04-19T10:16:00Z</time>
      </trkpt>
      <trkpt lat="46.65113" lon="5.60748">
        <ele>512</ele>
        <time>2018-04-19T10:16:05Z</time>
      </trkpt>
      <trkpt lat="46.65119" lon="5.60744">
        <ele>512</ele>
        <time>2018-04-19T10:16:09Z</time>
      </trkpt>
      <trkpt lat="46.65123" lon="5.60742">
        <ele>512</ele>
        <time>2018-04-19T10:16:13Z</time>
      </trkpt>
      <trkpt lat="46.65128" lon="5.6074">
        <ele>513</ele>
        <time>2018-04-19T10:16:17Z</time>
      </trkpt>
      <trkpt lat="46.65134" lon="5.60741">
        <ele>513</ele>
        <time>2018-04-19T10:16:25Z</time>
      </trkpt>
      <trkpt lat="46.65139" lon="5.6074">
        <ele>514</ele>
        <time>2018-04-19T10:16:29Z</time>
      </trkpt>
      <trkpt lat="46.65149" lon="5.60737">
        <ele>515</ele>
        <time>2018-04-19T10:16:35Z</time>
      </trkpt>
      <trkpt lat="46.65153" lon="5.60733">
        <ele>515</ele>
        <time>2018-04-19T10:16:39Z</time>
      </trkpt>
      <trkpt lat="46.65157" lon="5.60728">
        <ele>514</ele>
        <time>2018-04-19T10:16:43Z</time>
      </trkpt>
      <trkpt lat="46.65162" lon="5.60726">
        <ele>514</ele>
        <time>2018-04-19T10:16:48Z</time>
      </trkpt>
      <trkpt lat="46.65174" lon="5.60709">
        <ele>512</ele>
        <time>2018-04-19T10:17:03Z</time>
      </trkpt>
      <trkpt lat="46.65179" lon="5.60705">
        <ele>512</ele>
        <time>2018-04-19T10:17:08Z</time>
      </trkpt>
      <trkpt lat="46.65189" lon="5.607">
        <ele>511</ele>
        <time>2018-04-19T10:17:17Z</time>
      </trkpt>
      <trkpt lat="46.65195" lon="5.60698">
        <ele>510</ele>
        <time>2018-04-19T10:17:25Z</time>
      </trkpt>
      <trkpt lat="46.65203" lon="5.60698">
        <ele>510</ele>
        <time>2018-04-19T10:17:36Z</time>
      </trkpt>
      <trkpt lat="46.65208" lon="5.60697">
        <ele>510</ele>
        <time>2018-04-19T10:17:41Z</time>
      </trkpt>
      <trkpt lat="46.65214" lon="5.60695">
        <ele>509</ele>
        <time>2018-04-19T10:17:49Z</time>
      </trkpt>
      <trkpt lat="46.65221" lon="5.60694">
        <ele>508</ele>
        <time>2018-04-19T10:18:09Z</time>
      </trkpt>
      <trkpt lat="46.65227" lon="5.60692">
        <ele>508</ele>
        <time>2018-04-19T10:18:21Z</time>
      </trkpt>
      <trkpt lat="46.65226" lon="5.60684">
        <ele>507</ele>
        <time>2018-04-19T10:19:21Z</time>
      </trkpt>
      <trkpt lat="46.65231" lon="5.60683">
        <ele>506</ele>
        <time>2018-04-19T10:19:35Z</time>
      </trkpt>
      <trkpt lat="46.65236" lon="5.60685">
        <ele>506</ele>
        <time>2018-04-19T10:19:53Z</time>
      </trkpt>
      <trkpt lat="46.65235" lon="5.60684">
        <ele>506</ele>
        <time>2018-04-19T10:21:26Z</time>
      </trkpt>
      <trkpt lat="46.65238" lon="5.60688">
        <ele>506</ele>
        <time>2018-04-19T10:37:40Z</time>
      </trkpt>
      <trkpt lat="46.65234" lon="5.60683">
        <ele>506</ele>
        <time>2018-04-19T10:55:33Z</time>
      </trkpt>
      <trkpt lat="46.65229" lon="5.60682">
        <ele>506</ele>
        <time>2018-04-19T10:59:03Z</time>
      </trkpt>
      <trkpt lat="46.6522" lon="5.60688">
        <ele>508</ele>
        <time>2018-04-19T10:59:14Z</time>
      </trkpt>
      <trkpt lat="46.65215" lon="5.60686">
        <ele>508</ele>
        <time>2018-04-19T10:59:19Z</time>
      </trkpt>
      <trkpt lat="46.65209" lon="5.60682">
        <ele>508</ele>
        <time>2018-04-19T10:59:27Z</time>
      </trkpt>
      <trkpt lat="46.65204" lon="5.60679">
        <ele>509</ele>
        <time>2018-04-19T10:59:33Z</time>
      </trkpt>
      <trkpt lat="46.65199" lon="5.60684">
        <ele>509</ele>
        <time>2018-04-19T11:00:21Z</time>
      </trkpt>
      <trkpt lat="46.65205" lon="5.60686">
        <ele>509</ele>
        <time>2018-04-19T11:00:28Z</time>
      </trkpt>
      <trkpt lat="46.65209" lon="5.60686">
        <ele>509</ele>
        <time>2018-04-19T11:00:33Z</time>
      </trkpt>
      <trkpt lat="46.65224" lon="5.60689">
        <ele>508</ele>
        <time>2018-04-19T11:00:50Z</time>
      </trkpt>
      <trkpt lat="46.65231" lon="5.60687">
        <ele>507</ele>
        <time>2018-04-19T11:00:58Z</time>
      </trkpt>
      <trkpt lat="46.65231" lon="5.60684">
        <ele>506</ele>
        <time>2018-04-19T11:03:11Z</time>
      </trkpt>
      <trkpt lat="46.65232" lon="5.60686">
        <ele>507</ele>
        <time>2018-04-19T11:04:23Z</time>
      </trkpt>
      <trkpt lat="46.65226" lon="5.60688">
        <ele>507</ele>
        <time>2018-04-19T11:05:05Z</time>
      </trkpt>
      <trkpt lat="46.65223" lon="5.60695">
        <ele>508</ele>
        <time>2018-04-19T11:05:12Z</time>
      </trkpt>
      <trkpt lat="46.65222" lon="5.60702">
        <ele>509</ele>
        <time>2018-04-19T11:05:17Z</time>
      </trkpt>
      <trkpt lat="46.65221" lon="5.60709">
        <ele>510</ele>
        <time>2018-04-19T11:05:22Z</time>
      </trkpt>
      <trkpt lat="46.6522" lon="5.60717">
        <ele>511</ele>
        <time>2018-04-19T11:05:27Z</time>
      </trkpt>
      <trkpt lat="46.6522" lon="5.60724">
        <ele>511</ele>
        <time>2018-04-19T11:05:32Z</time>
      </trkpt>
      <trkpt lat="46.65219" lon="5.60733">
        <ele>512</ele>
        <time>2018-04-19T11:05:36Z</time>
      </trkpt>
      <trkpt lat="46.65217" lon="5.60752">
        <ele>517</ele>
        <time>2018-04-19T11:05:52Z</time>
      </trkpt>
      <trkpt lat="46.65219" lon="5.60759">
        <ele>517</ele>
        <time>2018-04-19T11:05:57Z</time>
      </trkpt>
      <trkpt lat="46.65224" lon="5.60766">
        <ele>517</ele>
        <time>2018-04-19T11:06:07Z</time>
      </trkpt>
      <trkpt lat="46.65229" lon="5.60765">
        <ele>517</ele>
        <time>2018-04-19T11:06:11Z</time>
      </trkpt>
      <trkpt lat="46.65241" lon="5.60767">
        <ele>516</ele>
        <time>2018-04-19T11:06:21Z</time>
      </trkpt>
      <trkpt lat="46.65256" lon="5.60778">
        <ele>498</ele>
        <time>2018-04-19T11:06:37Z</time>
      </trkpt>
      <trkpt lat="46.65273" lon="5.60808">
        <ele>496</ele>
        <time>2018-04-19T11:07:07Z</time>
      </trkpt>
      <trkpt lat="46.65276" lon="5.60821">
        <ele>497</ele>
        <time>2018-04-19T11:07:17Z</time>
      </trkpt>
      <trkpt lat="46.65277" lon="5.60828">
        <ele>497</ele>
        <time>2018-04-19T11:07:22Z</time>
      </trkpt>
      <trkpt lat="46.65281" lon="5.60835">
        <ele>501</ele>
        <time>2018-04-19T11:07:29Z</time>
      </trkpt>
      <trkpt lat="46.65283" lon="5.60842">
        <ele>500</ele>
        <time>2018-04-19T11:07:37Z</time>
      </trkpt>
      <trkpt lat="46.65294" lon="5.6086">
        <ele>497</ele>
        <time>2018-04-19T11:07:57Z</time>
      </trkpt>
      <trkpt lat="46.65296" lon="5.60867">
        <ele>497</ele>
        <time>2018-04-19T11:08:02Z</time>
      </trkpt>
      <trkpt lat="46.65298" lon="5.6088">
        <ele>498</ele>
        <time>2018-04-19T11:08:10Z</time>
      </trkpt>
      <trkpt lat="46.65299" lon="5.60886">
        <ele>498</ele>
        <time>2018-04-19T11:08:15Z</time>
      </trkpt>
      <trkpt lat="46.65301" lon="5.60893">
        <ele>498</ele>
        <time>2018-04-19T11:08:20Z</time>
      </trkpt>
      <trkpt lat="46.65306" lon="5.60899">
        <ele>497</ele>
        <time>2018-04-19T11:08:27Z</time>
      </trkpt>
      <trkpt lat="46.65309" lon="5.60905">
        <ele>496</ele>
        <time>2018-04-19T11:08:32Z</time>
      </trkpt>
      <trkpt lat="46.65313" lon="5.60909">
        <ele>495</ele>
        <time>2018-04-19T11:08:37Z</time>
      </trkpt>
      <trkpt lat="46.65316" lon="5.60917">
        <ele>498</ele>
        <time>2018-04-19T11:08:44Z</time>
      </trkpt>
      <trkpt lat="46.65324" lon="5.6093">
        <ele>498</ele>
        <time>2018-04-19T11:08:57Z</time>
      </trkpt>
      <trkpt lat="46.65326" lon="5.60936">
        <ele>499</ele>
        <time>2018-04-19T11:09:02Z</time>
      </trkpt>
      <trkpt lat="46.65329" lon="5.60946">
        <ele>502</ele>
        <time>2018-04-19T11:09:13Z</time>
      </trkpt>
      <trkpt lat="46.65335" lon="5.60956">
        <ele>480</ele>
        <time>2018-04-19T11:09:23Z</time>
      </trkpt>
      <trkpt lat="46.65336" lon="5.60976">
        <ele>484</ele>
        <time>2018-04-19T11:09:43Z</time>
      </trkpt>
      <trkpt lat="46.65337" lon="5.6099">
        <ele>492</ele>
        <time>2018-04-19T11:09:52Z</time>
      </trkpt>
      <trkpt lat="46.65343" lon="5.61001">
        <ele>497</ele>
        <time>2018-04-19T11:10:00Z</time>
      </trkpt>
      <trkpt lat="46.65344" lon="5.61008">
        <ele>495</ele>
        <time>2018-04-19T11:10:06Z</time>
      </trkpt>
      <trkpt lat="46.65348" lon="5.61013">
        <ele>493</ele>
        <time>2018-04-19T11:10:11Z</time>
      </trkpt>
      <trkpt lat="46.65357" lon="5.61021">
        <ele>489</ele>
        <time>2018-04-19T11:10:20Z</time>
      </trkpt>
      <trkpt lat="46.65361" lon="5.61024">
        <ele>488</ele>
        <time>2018-04-19T11:10:24Z</time>
      </trkpt>
      <trkpt lat="46.65367" lon="5.61025">
        <ele>486</ele>
        <time>2018-04-19T11:10:29Z</time>
      </trkpt>
      <trkpt lat="46.65372" lon="5.6103">
        <ele>484</ele>
        <time>2018-04-19T11:10:34Z</time>
      </trkpt>
      <trkpt lat="46.65377" lon="5.61032">
        <ele>483</ele>
        <time>2018-04-19T11:10:38Z</time>
      </trkpt>
      <trkpt lat="46.65379" lon="5.61042">
        <ele>483</ele>
        <time>2018-04-19T11:10:46Z</time>
      </trkpt>
      <trkpt lat="46.65381" lon="5.61049">
        <ele>483</ele>
        <time>2018-04-19T11:10:50Z</time>
      </trkpt>
      <trkpt lat="46.65383" lon="5.61055">
        <ele>483</ele>
        <time>2018-04-19T11:10:55Z</time>
      </trkpt>
      <trkpt lat="46.65386" lon="5.61062">
        <ele>482</ele>
        <time>2018-04-19T11:11:00Z</time>
      </trkpt>
      <trkpt lat="46.65388" lon="5.61068">
        <ele>481</ele>
        <time>2018-04-19T11:11:05Z</time>
      </trkpt>
      <trkpt lat="46.6539" lon="5.61095">
        <ele>486</ele>
        <time>2018-04-19T11:11:28Z</time>
      </trkpt>
      <trkpt lat="46.65389" lon="5.61108">
        <ele>488</ele>
        <time>2018-04-19T11:11:38Z</time>
      </trkpt>
      <trkpt lat="46.65396" lon="5.61121">
        <ele>488</ele>
        <time>2018-04-19T11:11:50Z</time>
      </trkpt>
      <trkpt lat="46.65399" lon="5.61134">
        <ele>488</ele>
        <time>2018-04-19T11:11:58Z</time>
      </trkpt>
      <trkpt lat="46.65401" lon="5.61155">
        <ele>485</ele>
        <time>2018-04-19T11:12:18Z</time>
      </trkpt>
      <trkpt lat="46.65411" lon="5.61166">
        <ele>477</ele>
        <time>2018-04-19T11:12:40Z</time>
      </trkpt>
      <trkpt lat="46.6542" lon="5.61172">
        <ele>469</ele>
        <time>2018-04-19T11:12:55Z</time>
      </trkpt>
      <trkpt lat="46.6543" lon="5.61186">
        <ele>464</ele>
        <time>2018-04-19T11:13:11Z</time>
      </trkpt>
      <trkpt lat="46.65431" lon="5.612">
        <ele>463</ele>
        <time>2018-04-19T11:13:22Z</time>
      </trkpt>
      <trkpt lat="46.65446" lon="5.61215">
        <ele>461</ele>
        <time>2018-04-19T11:13:37Z</time>
      </trkpt>
      <trkpt lat="46.65451" lon="5.6123">
        <ele>461</ele>
        <time>2018-04-19T11:13:53Z</time>
      </trkpt>
      <trkpt lat="46.6546" lon="5.61248">
        <ele>459</ele>
        <time>2018-04-19T11:14:08Z</time>
      </trkpt>
      <trkpt lat="46.65464" lon="5.61259">
        <ele>468</ele>
        <time>2018-04-19T11:14:14Z</time>
      </trkpt>
      <trkpt lat="46.65479" lon="5.61281">
        <ele>466</ele>
        <time>2018-04-19T11:14:44Z</time>
      </trkpt>
      <trkpt lat="46.6549" lon="5.61297">
        <ele>467</ele>
        <time>2018-04-19T11:15:04Z</time>
      </trkpt>
      <trkpt lat="46.65497" lon="5.61307">
        <ele>466</ele>
        <time>2018-04-19T11:15:12Z</time>
      </trkpt>
      <trkpt lat="46.65503" lon="5.61319">
        <ele>462</ele>
        <time>2018-04-19T11:15:18Z</time>
      </trkpt>
      <trkpt lat="46.65496" lon="5.61332">
        <ele>462</ele>
        <time>2018-04-19T11:15:31Z</time>
      </trkpt>
      <trkpt lat="46.65488" lon="5.61325">
        <ele>466</ele>
        <time>2018-04-19T11:15:53Z</time>
      </trkpt>
      <trkpt lat="46.65479" lon="5.61315">
        <ele>469</ele>
        <time>2018-04-19T11:16:07Z</time>
      </trkpt>
      <trkpt lat="46.65473" lon="5.61304">
        <ele>470</ele>
        <time>2018-04-19T11:16:23Z</time>
      </trkpt>
      <trkpt lat="46.65468" lon="5.61324">
        <ele>473</ele>
        <time>2018-04-19T11:16:36Z</time>
      </trkpt>
      <trkpt lat="46.65465" lon="5.61336">
        <ele>487</ele>
        <time>2018-04-19T11:16:43Z</time>
      </trkpt>
      <trkpt lat="46.65466" lon="5.61351">
        <ele>489</ele>
        <time>2018-04-19T11:16:58Z</time>
      </trkpt>
      <trkpt lat="46.65475" lon="5.61357">
        <ele>487</ele>
        <time>2018-04-19T11:17:06Z</time>
      </trkpt>
      <trkpt lat="46.65473" lon="5.61376">
        <ele>492</ele>
        <time>2018-04-19T11:17:16Z</time>
      </trkpt>
      <trkpt lat="46.65482" lon="5.6138">
        <ele>491</ele>
        <time>2018-04-19T11:17:25Z</time>
      </trkpt>
      <trkpt lat="46.65487" lon="5.61393">
        <ele>492</ele>
        <time>2018-04-19T11:17:43Z</time>
      </trkpt>
      <trkpt lat="46.65491" lon="5.61406">
        <ele>493</ele>
        <time>2018-04-19T11:18:01Z</time>
      </trkpt>
      <trkpt lat="46.65501" lon="5.61415">
        <ele>491</ele>
        <time>2018-04-19T11:18:19Z</time>
      </trkpt>
      <trkpt lat="46.65505" lon="5.61428">
        <ele>498</ele>
        <time>2018-04-19T11:18:33Z</time>
      </trkpt>
      <trkpt lat="46.65512" lon="5.61436">
        <ele>502</ele>
        <time>2018-04-19T11:18:51Z</time>
      </trkpt>
      <trkpt lat="46.65515" lon="5.61448">
        <ele>504</ele>
        <time>2018-04-19T11:19:00Z</time>
      </trkpt>
      <trkpt lat="46.65519" lon="5.61461">
        <ele>507</ele>
        <time>2018-04-19T11:19:23Z</time>
      </trkpt>
      <trkpt lat="46.65535" lon="5.61471">
        <ele>508</ele>
        <time>2018-04-19T11:19:51Z</time>
      </trkpt>
      <trkpt lat="46.65545" lon="5.61474">
        <ele>509</ele>
        <time>2018-04-19T11:20:09Z</time>
      </trkpt>
      <trkpt lat="46.65558" lon="5.61483">
        <ele>510</ele>
        <time>2018-04-19T11:20:32Z</time>
      </trkpt>
      <trkpt lat="46.65571" lon="5.61492">
        <ele>512</ele>
        <time>2018-04-19T11:20:54Z</time>
      </trkpt>
      <trkpt lat="46.65582" lon="5.61489">
        <ele>512</ele>
        <time>2018-04-19T11:21:06Z</time>
      </trkpt>
      <trkpt lat="46.65585" lon="5.61477">
        <ele>517</ele>
        <time>2018-04-19T11:21:16Z</time>
      </trkpt>
      <trkpt lat="46.65587" lon="5.6148">
        <ele>517</ele>
        <time>2018-04-19T11:22:19Z</time>
      </trkpt>
      <trkpt lat="46.65595" lon="5.61493">
        <ele>517</ele>
        <time>2018-04-19T11:22:37Z</time>
      </trkpt>
      <trkpt lat="46.65595" lon="5.61509">
        <ele>519</ele>
        <time>2018-04-19T11:22:55Z</time>
      </trkpt>
      <trkpt lat="46.65592" lon="5.61525">
        <ele>521</ele>
        <time>2018-04-19T11:23:08Z</time>
      </trkpt>
      <trkpt lat="46.65581" lon="5.61539">
        <ele>520</ele>
        <time>2018-04-19T11:23:24Z</time>
      </trkpt>
      <trkpt lat="46.65564" lon="5.61559">
        <ele>522</ele>
        <time>2018-04-19T11:24:00Z</time>
      </trkpt>
      <trkpt lat="46.65536" lon="5.61566">
        <ele>522</ele>
        <time>2018-04-19T11:24:37Z</time>
      </trkpt>
      <trkpt lat="46.65523" lon="5.61556">
        <ele>522</ele>
        <time>2018-04-19T11:24:54Z</time>
      </trkpt>
      <trkpt lat="46.65519" lon="5.61542">
        <ele>521</ele>
        <time>2018-04-19T11:25:09Z</time>
      </trkpt>
      <trkpt lat="46.6552" lon="5.61531">
        <ele>520</ele>
        <time>2018-04-19T11:25:21Z</time>
      </trkpt>
      <trkpt lat="46.65524" lon="5.61525">
        <ele>520</ele>
        <time>2018-04-19T11:25:27Z</time>
      </trkpt>
      <trkpt lat="46.65529" lon="5.61522">
        <ele>520</ele>
        <time>2018-04-19T11:25:39Z</time>
      </trkpt>
      <trkpt lat="46.65529" lon="5.6153">
        <ele>520</ele>
        <time>2018-04-19T11:28:15Z</time>
      </trkpt>
      <trkpt lat="46.65523" lon="5.61535">
        <ele>521</ele>
        <time>2018-04-19T11:28:57Z</time>
      </trkpt>
      <trkpt lat="46.6552" lon="5.61546">
        <ele>521</ele>
        <time>2018-04-19T11:29:09Z</time>
      </trkpt>
      <trkpt lat="46.6552" lon="5.61555">
        <ele>522</ele>
        <time>2018-04-19T11:29:21Z</time>
      </trkpt>
      <trkpt lat="46.65526" lon="5.6156">
        <ele>522</ele>
        <time>2018-04-19T11:29:33Z</time>
      </trkpt>
      <trkpt lat="46.65531" lon="5.61563">
        <ele>522</ele>
        <time>2018-04-19T11:29:39Z</time>
      </trkpt>
      <trkpt lat="46.65541" lon="5.61566">
        <ele>522</ele>
        <time>2018-04-19T11:29:53Z</time>
      </trkpt>
      <trkpt lat="46.65548" lon="5.61563">
        <ele>522</ele>
        <time>2018-04-19T11:30:05Z</time>
      </trkpt>
      <trkpt lat="46.65553" lon="5.6156">
        <ele>522</ele>
        <time>2018-04-19T11:30:11Z</time>
      </trkpt>
      <trkpt lat="46.65557" lon="5.61558">
        <ele>521</ele>
        <time>2018-04-19T11:30:17Z</time>
      </trkpt>
      <trkpt lat="46.65562" lon="5.61556">
        <ele>521</ele>
        <time>2018-04-19T11:30:23Z</time>
      </trkpt>
      <trkpt lat="46.6557" lon="5.61556">
        <ele>521</ele>
        <time>2018-04-19T11:30:35Z</time>
      </trkpt>
      <trkpt lat="46.6557" lon="5.61561">
        <ele>522</ele>
        <time>2018-04-19T11:31:04Z</time>
      </trkpt>
      <trkpt lat="46.65567" lon="5.61562">
        <ele>522</ele>
        <time>2018-04-19T11:32:13Z</time>
      </trkpt>
      <trkpt lat="46.65565" lon="5.61557">
        <ele>521</ele>
        <time>2018-04-19T11:32:21Z</time>
      </trkpt>
      <trkpt lat="46.65571" lon="5.61553">
        <ele>521</ele>
        <time>2018-04-19T11:32:27Z</time>
      </trkpt>
      <trkpt lat="46.65578" lon="5.61551">
        <ele>521</ele>
        <time>2018-04-19T11:32:35Z</time>
      </trkpt>
      <trkpt lat="46.65586" lon="5.61542">
        <ele>523</ele>
        <time>2018-04-19T11:32:44Z</time>
      </trkpt>
      <trkpt lat="46.65593" lon="5.61529">
        <ele>522</ele>
        <time>2018-04-19T11:32:55Z</time>
      </trkpt>
      <trkpt lat="46.65598" lon="5.61522">
        <ele>521</ele>
        <time>2018-04-19T11:33:03Z</time>
      </trkpt>
      <trkpt lat="46.65599" lon="5.61514">
        <ele>521</ele>
        <time>2018-04-19T11:33:08Z</time>
      </trkpt>
      <trkpt lat="46.65601" lon="5.61508">
        <ele>520</ele>
        <time>2018-04-19T11:33:16Z</time>
      </trkpt>
      <trkpt lat="46.65605" lon="5.61494">
        <ele>518</ele>
        <time>2018-04-19T11:33:40Z</time>
      </trkpt>
      <trkpt lat="46.65611" lon="5.61483">
        <ele>519</ele>
        <time>2018-04-19T11:34:10Z</time>
      </trkpt>
      <trkpt lat="46.65617" lon="5.61473">
        <ele>519</ele>
        <time>2018-04-19T11:34:25Z</time>
      </trkpt>
      <trkpt lat="46.65616" lon="5.61459">
        <ele>519</ele>
        <time>2018-04-19T11:34:37Z</time>
      </trkpt>
      <trkpt lat="46.65614" lon="5.61452">
        <ele>518</ele>
        <time>2018-04-19T11:34:43Z</time>
      </trkpt>
      <trkpt lat="46.65614" lon="5.61445">
        <ele>518</ele>
        <time>2018-04-19T11:34:51Z</time>
      </trkpt>
      <trkpt lat="46.65615" lon="5.61436">
        <ele>517</ele>
        <time>2018-04-19T11:35:04Z</time>
      </trkpt>
      <trkpt lat="46.65617" lon="5.61429">
        <ele>517</ele>
        <time>2018-04-19T11:35:09Z</time>
      </trkpt>
      <trkpt lat="46.6562" lon="5.61423">
        <ele>518</ele>
        <time>2018-04-19T11:35:13Z</time>
      </trkpt>
      <trkpt lat="46.65622" lon="5.61418">
        <ele>518</ele>
        <time>2018-04-19T11:35:17Z</time>
      </trkpt>
      <trkpt lat="46.65624" lon="5.61409">
        <ele>515</ele>
        <time>2018-04-19T11:35:25Z</time>
      </trkpt>
      <trkpt lat="46.65628" lon="5.61401">
        <ele>516</ele>
        <time>2018-04-19T11:35:32Z</time>
      </trkpt>
      <trkpt lat="46.6563" lon="5.61395">
        <ele>516</ele>
        <time>2018-04-19T11:35:37Z</time>
      </trkpt>
      <trkpt lat="46.65631" lon="5.61382">
        <ele>515</ele>
        <time>2018-04-19T11:35:47Z</time>
      </trkpt>
      <trkpt lat="46.65631" lon="5.61373">
        <ele>515</ele>
        <time>2018-04-19T11:35:56Z</time>
      </trkpt>
      <trkpt lat="46.65627" lon="5.61368">
        <ele>514</ele>
        <time>2018-04-19T11:36:02Z</time>
      </trkpt>
      <trkpt lat="46.65622" lon="5.61365">
        <ele>513</ele>
        <time>2018-04-19T11:36:06Z</time>
      </trkpt>
      <trkpt lat="46.65624" lon="5.61354">
        <ele>513</ele>
        <time>2018-04-19T11:36:16Z</time>
      </trkpt>
      <trkpt lat="46.65627" lon="5.61349">
        <ele>513</ele>
        <time>2018-04-19T11:36:24Z</time>
      </trkpt>
      <trkpt lat="46.65639" lon="5.61329">
        <ele>510</ele>
        <time>2018-04-19T11:36:47Z</time>
      </trkpt>
      <trkpt lat="46.65639" lon="5.61322">
        <ele>510</ele>
        <time>2018-04-19T11:36:52Z</time>
      </trkpt>
      <trkpt lat="46.65639" lon="5.61312">
        <ele>508</ele>
        <time>2018-04-19T11:36:59Z</time>
      </trkpt>
      <trkpt lat="46.65637" lon="5.61304">
        <ele>507</ele>
        <time>2018-04-19T11:37:04Z</time>
      </trkpt>
      <trkpt lat="46.65643" lon="5.61299">
        <ele>507</ele>
        <time>2018-04-19T11:37:11Z</time>
      </trkpt>
      <trkpt lat="46.65653" lon="5.61292">
        <ele>508</ele>
        <time>2018-04-19T11:37:25Z</time>
      </trkpt>
      <trkpt lat="46.65658" lon="5.61291">
        <ele>509</ele>
        <time>2018-04-19T11:37:29Z</time>
      </trkpt>
      <trkpt lat="46.65665" lon="5.6129">
        <ele>509</ele>
        <time>2018-04-19T11:37:38Z</time>
      </trkpt>
      <trkpt lat="46.6567" lon="5.61285">
        <ele>523</ele>
        <time>2018-04-19T11:37:45Z</time>
      </trkpt>
      <trkpt lat="46.65678" lon="5.61277">
        <ele>522</ele>
        <time>2018-04-19T11:37:54Z</time>
      </trkpt>
      <trkpt lat="46.65681" lon="5.61269">
        <ele>521</ele>
        <time>2018-04-19T11:38:02Z</time>
      </trkpt>
      <trkpt lat="46.65684" lon="5.61263">
        <ele>520</ele>
        <time>2018-04-19T11:38:07Z</time>
      </trkpt>
      <trkpt lat="46.65689" lon="5.6126">
        <ele>521</ele>
        <time>2018-04-19T11:38:11Z</time>
      </trkpt>
      <trkpt lat="46.65691" lon="5.61255">
        <ele>521</ele>
        <time>2018-04-19T11:38:16Z</time>
      </trkpt>
      <trkpt lat="46.65697" lon="5.61248">
        <ele>511</ele>
        <time>2018-04-19T11:38:24Z</time>
      </trkpt>
      <trkpt lat="46.65706" lon="5.61243">
        <ele>511</ele>
        <time>2018-04-19T11:38:35Z</time>
      </trkpt>
      <trkpt lat="46.6571" lon="5.61241">
        <ele>511</ele>
        <time>2018-04-19T11:38:39Z</time>
      </trkpt>
      <trkpt lat="46.65717" lon="5.61238">
        <ele>512</ele>
        <time>2018-04-19T11:38:48Z</time>
      </trkpt>
      <trkpt lat="46.6572" lon="5.61233">
        <ele>512</ele>
        <time>2018-04-19T11:38:52Z</time>
      </trkpt>
      <trkpt lat="46.65725" lon="5.61231">
        <ele>512</ele>
        <time>2018-04-19T11:38:57Z</time>
      </trkpt>
      <trkpt lat="46.6573" lon="5.61227">
        <ele>512</ele>
        <time>2018-04-19T11:39:02Z</time>
      </trkpt>
      <trkpt lat="46.65738" lon="5.61221">
        <ele>512</ele>
        <time>2018-04-19T11:39:18Z</time>
      </trkpt>
      <trkpt lat="46.65735" lon="5.61207">
        <ele>509</ele>
        <time>2018-04-19T11:40:36Z</time>
      </trkpt>
      <trkpt lat="46.65734" lon="5.61216">
        <ele>510</ele>
        <time>2018-04-19T11:40:54Z</time>
      </trkpt>
      <trkpt lat="46.65731" lon="5.61222">
        <ele>511</ele>
        <time>2018-04-19T11:41:12Z</time>
      </trkpt>
      <trkpt lat="46.65751" lon="5.61219">
        <ele>518</ele>
        <time>2018-04-19T11:42:44Z</time>
      </trkpt>
      <trkpt lat="46.65759" lon="5.61216">
        <ele>518</ele>
        <time>2018-04-19T11:42:53Z</time>
      </trkpt>
      <trkpt lat="46.65765" lon="5.61214">
        <ele>517</ele>
        <time>2018-04-19T11:43:19Z</time>
      </trkpt>
      <trkpt lat="46.65768" lon="5.61209">
        <ele>516</ele>
        <time>2018-04-19T11:43:37Z</time>
      </trkpt>
      <trkpt lat="46.65774" lon="5.61206">
        <ele>516</ele>
        <time>2018-04-19T11:43:50Z</time>
      </trkpt>
      <trkpt lat="46.65778" lon="5.61204">
        <ele>516</ele>
        <time>2018-04-19T11:43:55Z</time>
      </trkpt>
      <trkpt lat="46.65786" lon="5.61195">
        <ele>515</ele>
        <time>2018-04-19T11:44:08Z</time>
      </trkpt>
      <trkpt lat="46.65791" lon="5.61193">
        <ele>515</ele>
        <time>2018-04-19T11:44:13Z</time>
      </trkpt>
      <trkpt lat="46.65802" lon="5.61189">
        <ele>514</ele>
        <time>2018-04-19T11:44:24Z</time>
      </trkpt>
      <trkpt lat="46.65807" lon="5.6119">
        <ele>514</ele>
        <time>2018-04-19T11:44:27Z</time>
      </trkpt>
      <trkpt lat="46.65816" lon="5.61189">
        <ele>514</ele>
        <time>2018-04-19T11:44:36Z</time>
      </trkpt>
      <trkpt lat="46.65826" lon="5.61188">
        <ele>513</ele>
        <time>2018-04-19T11:44:44Z</time>
      </trkpt>
      <trkpt lat="46.65845" lon="5.61194">
        <ele>513</ele>
        <time>2018-04-19T11:45:15Z</time>
      </trkpt>
      <trkpt lat="46.65856" lon="5.61194">
        <ele>513</ele>
        <time>2018-04-19T11:45:29Z</time>
      </trkpt>
      <trkpt lat="46.65866" lon="5.61199">
        <ele>513</ele>
        <time>2018-04-19T11:45:37Z</time>
      </trkpt>
      <trkpt lat="46.65884" lon="5.61204">
        <ele>513</ele>
        <time>2018-04-19T11:45:55Z</time>
      </trkpt>
      <trkpt lat="46.65904" lon="5.61209">
        <ele>513</ele>
        <time>2018-04-19T11:46:11Z</time>
      </trkpt>
      <trkpt lat="46.65918" lon="5.6121">
        <ele>509</ele>
        <time>2018-04-19T11:46:28Z</time>
      </trkpt>
      <trkpt lat="46.65929" lon="5.61211">
        <ele>509</ele>
        <time>2018-04-19T11:46:39Z</time>
      </trkpt>
      <trkpt lat="46.65938" lon="5.61212">
        <ele>509</ele>
        <time>2018-04-19T11:46:48Z</time>
      </trkpt>
      <trkpt lat="46.65944" lon="5.61199">
        <ele>507</ele>
        <time>2018-04-19T11:47:08Z</time>
      </trkpt>
      <trkpt lat="46.65953" lon="5.61202">
        <ele>507</ele>
        <time>2018-04-19T11:47:18Z</time>
      </trkpt>
      <trkpt lat="46.65963" lon="5.61202">
        <ele>506</ele>
        <time>2018-04-19T11:47:27Z</time>
      </trkpt>
      <trkpt lat="46.65975" lon="5.61207">
        <ele>507</ele>
        <time>2018-04-19T11:47:42Z</time>
      </trkpt>
      <trkpt lat="46.65989" lon="5.6121">
        <ele>507</ele>
        <time>2018-04-19T11:47:58Z</time>
      </trkpt>
      <trkpt lat="46.65998" lon="5.61209">
        <ele>506</ele>
        <time>2018-04-19T11:48:08Z</time>
      </trkpt>
      <trkpt lat="46.66007" lon="5.61204">
        <ele>500</ele>
        <time>2018-04-19T11:48:18Z</time>
      </trkpt>
      <trkpt lat="46.66016" lon="5.61205">
        <ele>500</ele>
        <time>2018-04-19T11:48:27Z</time>
      </trkpt>
      <trkpt lat="46.66036" lon="5.61207">
        <ele>499</ele>
        <time>2018-04-19T11:48:50Z</time>
      </trkpt>
      <trkpt lat="46.66052" lon="5.61216">
        <ele>500</ele>
        <time>2018-04-19T11:49:09Z</time>
      </trkpt>
      <trkpt lat="46.66061" lon="5.61219">
        <ele>501</ele>
        <time>2018-04-19T11:49:20Z</time>
      </trkpt>
      <trkpt lat="46.66069" lon="5.61228">
        <ele>504</ele>
        <time>2018-04-19T11:49:38Z</time>
      </trkpt>
      <trkpt lat="46.66079" lon="5.61233">
        <ele>506</ele>
        <time>2018-04-19T11:49:52Z</time>
      </trkpt>
      <trkpt lat="46.66088" lon="5.61234">
        <ele>496</ele>
        <time>2018-04-19T11:50:01Z</time>
      </trkpt>
      <trkpt lat="46.66098" lon="5.61233">
        <ele>492</ele>
        <time>2018-04-19T11:50:14Z</time>
      </trkpt>
      <trkpt lat="46.66105" lon="5.61233">
        <ele>489</ele>
        <time>2018-04-19T11:50:26Z</time>
      </trkpt>
      <trkpt lat="46.66113" lon="5.61231">
        <ele>485</ele>
        <time>2018-04-19T11:50:38Z</time>
      </trkpt>
      <trkpt lat="46.66121" lon="5.61234">
        <ele>483</ele>
        <time>2018-04-19T11:50:56Z</time>
      </trkpt>
      <trkpt lat="46.66124" lon="5.61243">
        <ele>483</ele>
        <time>2018-04-19T11:51:08Z</time>
      </trkpt>
      <trkpt lat="46.66126" lon="5.6125">
        <ele>505</ele>
        <time>2018-04-19T11:51:16Z</time>
      </trkpt>
      <trkpt lat="46.66124" lon="5.61257">
        <ele>506</ele>
        <time>2018-04-19T11:51:21Z</time>
      </trkpt>
      <trkpt lat="46.66123" lon="5.61266">
        <ele>507</ele>
        <time>2018-04-19T11:51:29Z</time>
      </trkpt>
      <trkpt lat="46.66121" lon="5.61276">
        <ele>508</ele>
        <time>2018-04-19T11:51:41Z</time>
      </trkpt>
      <trkpt lat="46.66118" lon="5.61283">
        <ele>510</ele>
        <time>2018-04-19T11:51:47Z</time>
      </trkpt>
      <trkpt lat="46.66112" lon="5.61294">
        <ele>512</ele>
        <time>2018-04-19T11:51:59Z</time>
      </trkpt>
      <trkpt lat="46.66115" lon="5.61311">
        <ele>514</ele>
        <time>2018-04-19T11:52:19Z</time>
      </trkpt>
      <trkpt lat="46.66125" lon="5.61323">
        <ele>514</ele>
        <time>2018-04-19T11:52:33Z</time>
      </trkpt>
      <trkpt lat="46.66136" lon="5.61328">
        <ele>514</ele>
        <time>2018-04-19T11:52:54Z</time>
      </trkpt>
      <trkpt lat="46.66146" lon="5.61329">
        <ele>514</ele>
        <time>2018-04-19T11:53:03Z</time>
      </trkpt>
      <trkpt lat="46.66156" lon="5.61334">
        <ele>521</ele>
        <time>2018-04-19T11:53:08Z</time>
      </trkpt>
      <trkpt lat="46.66165" lon="5.61338">
        <ele>519</ele>
        <time>2018-04-19T11:53:15Z</time>
      </trkpt>
      <trkpt lat="46.66179" lon="5.61337">
        <ele>520</ele>
        <time>2018-04-19T11:53:54Z</time>
      </trkpt>
      <trkpt lat="46.66189" lon="5.61338">
        <ele>521</ele>
        <time>2018-04-19T11:54:00Z</time>
      </trkpt>
      <trkpt lat="46.662" lon="5.6134">
        <ele>521</ele>
        <time>2018-04-19T11:54:14Z</time>
      </trkpt>
      <trkpt lat="46.66214" lon="5.6134">
        <ele>520</ele>
        <time>2018-04-19T11:54:46Z</time>
      </trkpt>
      <trkpt lat="46.66224" lon="5.61345">
        <ele>519</ele>
        <time>2018-04-19T11:54:57Z</time>
      </trkpt>
      <trkpt lat="46.66233" lon="5.6135">
        <ele>519</ele>
        <time>2018-04-19T11:55:13Z</time>
      </trkpt>
      <trkpt lat="46.66254" lon="5.6136">
        <ele>518</ele>
        <time>2018-04-19T11:55:49Z</time>
      </trkpt>
      <trkpt lat="46.66258" lon="5.61372">
        <ele>522</ele>
        <time>2018-04-19T11:56:07Z</time>
      </trkpt>
      <trkpt lat="46.66274" lon="5.61375">
        <ele>523</ele>
        <time>2018-04-19T11:56:23Z</time>
      </trkpt>
      <trkpt lat="46.66287" lon="5.61377">
        <ele>523</ele>
        <time>2018-04-19T11:56:43Z</time>
      </trkpt>
      <trkpt lat="46.66298" lon="5.61376">
        <ele>522</ele>
        <time>2018-04-19T11:56:57Z</time>
      </trkpt>
      <trkpt lat="46.66307" lon="5.61373">
        <ele>522</ele>
        <time>2018-04-19T11:57:15Z</time>
      </trkpt>
      <trkpt lat="46.6632" lon="5.61374">
        <ele>522</ele>
        <time>2018-04-19T11:57:34Z</time>
      </trkpt>
      <trkpt lat="46.66327" lon="5.61379">
        <ele>523</ele>
        <time>2018-04-19T11:57:47Z</time>
      </trkpt>
      <trkpt lat="46.66331" lon="5.61377">
        <ele>522</ele>
        <time>2018-04-19T11:57:59Z</time>
      </trkpt>
      <trkpt lat="46.66337" lon="5.61378">
        <ele>524</ele>
        <time>2018-04-19T11:58:05Z</time>
      </trkpt>
      <trkpt lat="46.66354" lon="5.61371">
        <ele>523</ele>
        <time>2018-04-19T11:58:26Z</time>
      </trkpt>
      <trkpt lat="46.6636" lon="5.61365">
        <ele>522</ele>
        <time>2018-04-19T11:58:35Z</time>
      </trkpt>
      <trkpt lat="46.66363" lon="5.61359">
        <ele>521</ele>
        <time>2018-04-19T11:58:41Z</time>
      </trkpt>
      <trkpt lat="46.66368" lon="5.61356">
        <ele>521</ele>
        <time>2018-04-19T11:58:47Z</time>
      </trkpt>
      <trkpt lat="46.66377" lon="5.61351">
        <ele>522</ele>
        <time>2018-04-19T11:58:58Z</time>
      </trkpt>
      <trkpt lat="46.66383" lon="5.61352">
        <ele>522</ele>
        <time>2018-04-19T11:59:03Z</time>
      </trkpt>
      <trkpt lat="46.66387" lon="5.61351">
        <ele>523</ele>
        <time>2018-04-19T11:59:08Z</time>
      </trkpt>
      <trkpt lat="46.66393" lon="5.61348">
        <ele>522</ele>
        <time>2018-04-19T11:59:16Z</time>
      </trkpt>
      <trkpt lat="46.66403" lon="5.61346">
        <ele>522</ele>
        <time>2018-04-19T11:59:26Z</time>
      </trkpt>
      <trkpt lat="46.66413" lon="5.61339">
        <ele>521</ele>
        <time>2018-04-19T11:59:39Z</time>
      </trkpt>
      <trkpt lat="46.66423" lon="5.61334">
        <ele>524</ele>
        <time>2018-04-19T11:59:53Z</time>
      </trkpt>
      <trkpt lat="46.66428" lon="5.6132">
        <ele>520</ele>
        <time>2018-04-19T12:00:20Z</time>
      </trkpt>
      <trkpt lat="46.66436" lon="5.61311">
        <ele>521</ele>
        <time>2018-04-19T12:00:34Z</time>
      </trkpt>
      <trkpt lat="46.66444" lon="5.61302">
        <ele>521</ele>
        <time>2018-04-19T12:00:52Z</time>
      </trkpt>
      <trkpt lat="46.66453" lon="5.61286">
        <ele>520</ele>
        <time>2018-04-19T12:01:12Z</time>
      </trkpt>
      <trkpt lat="46.66454" lon="5.6128">
        <ele>519</ele>
        <time>2018-04-19T12:01:18Z</time>
      </trkpt>
      <trkpt lat="46.66464" lon="5.61257">
        <ele>521</ele>
        <time>2018-04-19T12:04:26Z</time>
      </trkpt>
      <trkpt lat="46.6647" lon="5.6125">
        <ele>523</ele>
        <time>2018-04-19T12:04:37Z</time>
      </trkpt>
      <trkpt lat="46.66473" lon="5.61245">
        <ele>513</ele>
        <time>2018-04-19T12:04:43Z</time>
      </trkpt>
      <trkpt lat="46.66473" lon="5.61238">
        <ele>512</ele>
        <time>2018-04-19T12:04:49Z</time>
      </trkpt>
      <trkpt lat="46.66479" lon="5.61228">
        <ele>513</ele>
        <time>2018-04-19T12:04:57Z</time>
      </trkpt>
      <trkpt lat="46.66484" lon="5.61226">
        <ele>514</ele>
        <time>2018-04-19T12:05:07Z</time>
      </trkpt>
      <trkpt lat="46.66491" lon="5.61235">
        <ele>520</ele>
        <time>2018-04-19T12:05:51Z</time>
      </trkpt>
      <trkpt lat="46.66498" lon="5.61221">
        <ele>515</ele>
        <time>2018-04-19T12:06:58Z</time>
      </trkpt>
      <trkpt lat="46.66503" lon="5.6121">
        <ele>535</ele>
        <time>2018-04-19T12:07:08Z</time>
      </trkpt>
      <trkpt lat="46.66508" lon="5.61196">
        <ele>534</ele>
        <time>2018-04-19T12:07:28Z</time>
      </trkpt>
      <trkpt lat="46.66512" lon="5.61182">
        <ele>531</ele>
        <time>2018-04-19T12:07:46Z</time>
      </trkpt>
      <trkpt lat="46.66524" lon="5.61165">
        <ele>528</ele>
        <time>2018-04-19T12:08:00Z</time>
      </trkpt>
      <trkpt lat="46.66525" lon="5.6115">
        <ele>528</ele>
        <time>2018-04-19T12:08:20Z</time>
      </trkpt>
      <trkpt lat="46.66528" lon="5.61136">
        <ele>529</ele>
        <time>2018-04-19T12:08:30Z</time>
      </trkpt>
      <trkpt lat="46.66533" lon="5.61126">
        <ele>529</ele>
        <time>2018-04-19T12:08:38Z</time>
      </trkpt>
      <trkpt lat="46.6654" lon="5.61092">
        <ele>529</ele>
        <time>2018-04-19T12:09:09Z</time>
      </trkpt>
      <trkpt lat="46.66545" lon="5.61078">
        <ele>531</ele>
        <time>2018-04-19T12:10:04Z</time>
      </trkpt>
      <trkpt lat="46.66539" lon="5.61064">
        <ele>530</ele>
        <time>2018-04-19T12:10:28Z</time>
      </trkpt>
      <trkpt lat="46.66526" lon="5.61064">
        <ele>527</ele>
        <time>2018-04-19T12:10:47Z</time>
      </trkpt>
      <trkpt lat="46.66518" lon="5.61059">
        <ele>525</ele>
        <time>2018-04-19T12:10:59Z</time>
      </trkpt>
      <trkpt lat="46.66507" lon="5.61056">
        <ele>524</ele>
        <time>2018-04-19T12:11:23Z</time>
      </trkpt>
      <trkpt lat="46.66502" lon="5.61041">
        <ele>526</ele>
        <time>2018-04-19T12:11:41Z</time>
      </trkpt>
      <trkpt lat="46.66499" lon="5.61027">
        <ele>502</ele>
        <time>2018-04-19T12:11:55Z</time>
      </trkpt>
      <trkpt lat="46.66496" lon="5.61013">
        <ele>508</ele>
        <time>2018-04-19T12:12:05Z</time>
      </trkpt>
      <trkpt lat="46.66492" lon="5.60994">
        <ele>513</ele>
        <time>2018-04-19T12:12:22Z</time>
      </trkpt>
      <trkpt lat="46.66489" lon="5.60981">
        <ele>507</ele>
        <time>2018-04-19T12:12:29Z</time>
      </trkpt>
      <trkpt lat="46.66489" lon="5.60967">
        <ele>505</ele>
        <time>2018-04-19T12:12:36Z</time>
      </trkpt>
      <trkpt lat="46.66475" lon="5.60932">
        <ele>504</ele>
        <time>2018-04-19T12:13:07Z</time>
      </trkpt>
      <trkpt lat="46.6647" lon="5.60917">
        <ele>503</ele>
        <time>2018-04-19T12:13:17Z</time>
      </trkpt>
      <trkpt lat="46.66466" lon="5.60904">
        <ele>510</ele>
        <time>2018-04-19T12:13:37Z</time>
      </trkpt>
      <trkpt lat="46.66464" lon="5.6089">
        <ele>510</ele>
        <time>2018-04-19T12:13:47Z</time>
      </trkpt>
      <trkpt lat="46.66457" lon="5.60879">
        <ele>509</ele>
        <time>2018-04-19T12:13:53Z</time>
      </trkpt>
      <trkpt lat="46.66453" lon="5.60868">
        <ele>509</ele>
        <time>2018-04-19T12:14:03Z</time>
      </trkpt>
      <trkpt lat="46.66447" lon="5.6085">
        <ele>509</ele>
        <time>2018-04-19T12:14:21Z</time>
      </trkpt>
      <trkpt lat="46.66448" lon="5.60836">
        <ele>509</ele>
        <time>2018-04-19T12:14:36Z</time>
      </trkpt>
      <trkpt lat="46.66446" lon="5.60822">
        <ele>519</ele>
        <time>2018-04-19T12:15:40Z</time>
      </trkpt>
      <trkpt lat="46.6644" lon="5.60811">
        <ele>519</ele>
        <time>2018-04-19T12:15:48Z</time>
      </trkpt>
      <trkpt lat="46.66435" lon="5.60783">
        <ele>523</ele>
        <time>2018-04-19T12:16:10Z</time>
      </trkpt>
      <trkpt lat="46.66438" lon="5.60765">
        <ele>524</ele>
        <time>2018-04-19T12:16:27Z</time>
      </trkpt>
      <trkpt lat="46.66433" lon="5.60745">
        <ele>532</ele>
        <time>2018-04-19T12:16:47Z</time>
      </trkpt>
      <trkpt lat="46.66427" lon="5.60733">
        <ele>533</ele>
        <time>2018-04-19T12:16:55Z</time>
      </trkpt>
      <trkpt lat="46.66422" lon="5.60717">
        <ele>537</ele>
        <time>2018-04-19T12:17:10Z</time>
      </trkpt>
      <trkpt lat="46.66414" lon="5.607">
        <ele>520</ele>
        <time>2018-04-19T12:17:26Z</time>
      </trkpt>
      <trkpt lat="46.66412" lon="5.60688">
        <ele>525</ele>
        <time>2018-04-19T12:17:33Z</time>
      </trkpt>
      <trkpt lat="46.66403" lon="5.60677">
        <ele>528</ele>
        <time>2018-04-19T12:17:53Z</time>
      </trkpt>
      <trkpt lat="46.66389" lon="5.60663">
        <ele>537</ele>
        <time>2018-04-19T12:18:15Z</time>
      </trkpt>
      <trkpt lat="46.66383" lon="5.60652">
        <ele>536</ele>
        <time>2018-04-19T12:18:24Z</time>
      </trkpt>
      <trkpt lat="46.66377" lon="5.60642">
        <ele>535</ele>
        <time>2018-04-19T12:18:31Z</time>
      </trkpt>
      <trkpt lat="46.66366" lon="5.60635">
        <ele>533</ele>
        <time>2018-04-19T12:18:45Z</time>
      </trkpt>
      <trkpt lat="46.66356" lon="5.60625">
        <ele>534</ele>
        <time>2018-04-19T12:19:01Z</time>
      </trkpt>
      <trkpt lat="46.66349" lon="5.60615">
        <ele>535</ele>
        <time>2018-04-19T12:19:09Z</time>
      </trkpt>
      <trkpt lat="46.6634" lon="5.60607">
        <ele>537</ele>
        <time>2018-04-19T12:19:23Z</time>
      </trkpt>
      <trkpt lat="46.66334" lon="5.60597">
        <ele>539</ele>
        <time>2018-04-19T12:19:30Z</time>
      </trkpt>
      <trkpt lat="46.66324" lon="5.60592">
        <ele>527</ele>
        <time>2018-04-19T12:19:37Z</time>
      </trkpt>
      <trkpt lat="46.66316" lon="5.6059">
        <ele>522</ele>
        <time>2018-04-19T12:19:45Z</time>
      </trkpt>
      <trkpt lat="46.66304" lon="5.6059">
        <ele>515</ele>
        <time>2018-04-19T12:19:54Z</time>
      </trkpt>
      <trkpt lat="46.66295" lon="5.60582">
        <ele>533</ele>
        <time>2018-04-19T12:20:06Z</time>
      </trkpt>
      <trkpt lat="46.66287" lon="5.60575">
        <ele>532</ele>
        <time>2018-04-19T12:20:16Z</time>
      </trkpt>
      <trkpt lat="46.66275" lon="5.60568">
        <ele>529</ele>
        <time>2018-04-19T12:20:28Z</time>
      </trkpt>
      <trkpt lat="46.66267" lon="5.6056">
        <ele>529</ele>
        <time>2018-04-19T12:20:38Z</time>
      </trkpt>
      <trkpt lat="46.66258" lon="5.60549">
        <ele>531</ele>
        <time>2018-04-19T12:20:46Z</time>
      </trkpt>
      <trkpt lat="46.66249" lon="5.60542">
        <ele>517</ele>
        <time>2018-04-19T12:20:53Z</time>
      </trkpt>
      <trkpt lat="46.66239" lon="5.60535">
        <ele>518</ele>
        <time>2018-04-19T12:21:07Z</time>
      </trkpt>
      <trkpt lat="46.66219" lon="5.6053">
        <ele>516</ele>
        <time>2018-04-19T12:21:36Z</time>
      </trkpt>
      <trkpt lat="46.6621" lon="5.60527">
        <ele>515</ele>
        <time>2018-04-19T12:21:48Z</time>
      </trkpt>
      <trkpt lat="46.66199" lon="5.60522">
        <ele>514</ele>
        <time>2018-04-19T12:22:06Z</time>
      </trkpt>
      <trkpt lat="46.66179" lon="5.60516">
        <ele>514</ele>
        <time>2018-04-19T12:22:35Z</time>
      </trkpt>
      <trkpt lat="46.66164" lon="5.60504">
        <ele>511</ele>
        <time>2018-04-19T12:22:56Z</time>
      </trkpt>
      <trkpt lat="46.66156" lon="5.60491">
        <ele>517</ele>
        <time>2018-04-19T12:23:09Z</time>
      </trkpt>
      <trkpt lat="46.66148" lon="5.60483">
        <ele>516</ele>
        <time>2018-04-19T12:23:16Z</time>
      </trkpt>
      <trkpt lat="46.66138" lon="5.60476">
        <ele>515</ele>
        <time>2018-04-19T12:23:26Z</time>
      </trkpt>
      <trkpt lat="46.66126" lon="5.60457">
        <ele>515</ele>
        <time>2018-04-19T12:23:47Z</time>
      </trkpt>
      <trkpt lat="46.66119" lon="5.60443">
        <ele>517</ele>
        <time>2018-04-19T12:23:58Z</time>
      </trkpt>
      <trkpt lat="46.66112" lon="5.60436">
        <ele>517</ele>
        <time>2018-04-19T12:24:06Z</time>
      </trkpt>
      <trkpt lat="46.66093" lon="5.60425">
        <ele>518</ele>
        <time>2018-04-19T12:24:27Z</time>
      </trkpt>
      <trkpt lat="46.66084" lon="5.60419">
        <ele>520</ele>
        <time>2018-04-19T12:24:37Z</time>
      </trkpt>
      <trkpt lat="46.66074" lon="5.60418">
        <ele>507</ele>
        <time>2018-04-19T12:24:51Z</time>
      </trkpt>
      <trkpt lat="46.66063" lon="5.60414">
        <ele>511</ele>
        <time>2018-04-19T12:25:04Z</time>
      </trkpt>
      <trkpt lat="46.6605" lon="5.60408">
        <ele>506</ele>
        <time>2018-04-19T12:25:17Z</time>
      </trkpt>
      <trkpt lat="46.66041" lon="5.60403">
        <ele>502</ele>
        <time>2018-04-19T12:25:25Z</time>
      </trkpt>
      <trkpt lat="46.66024" lon="5.6039">
        <ele>498</ele>
        <time>2018-04-19T12:25:43Z</time>
      </trkpt>
      <trkpt lat="46.66016" lon="5.60371">
        <ele>500</ele>
        <time>2018-04-19T12:26:01Z</time>
      </trkpt>
      <trkpt lat="46.66002" lon="5.60331">
        <ele>499</ele>
        <time>2018-04-19T12:26:34Z</time>
      </trkpt>
      <trkpt lat="46.65999" lon="5.60318">
        <ele>486</ele>
        <time>2018-04-19T12:26:41Z</time>
      </trkpt>
      <trkpt lat="46.65999" lon="5.60305">
        <ele>482</ele>
        <time>2018-04-19T12:26:49Z</time>
      </trkpt>
      <trkpt lat="46.65997" lon="5.60292">
        <ele>481</ele>
        <time>2018-04-19T12:26:57Z</time>
      </trkpt>
      <trkpt lat="46.65999" lon="5.60277">
        <ele>484</ele>
        <time>2018-04-19T12:27:06Z</time>
      </trkpt>
      <trkpt lat="46.65996" lon="5.60264">
        <ele>488</ele>
        <time>2018-04-19T12:27:13Z</time>
      </trkpt>
      <trkpt lat="46.65992" lon="5.60251">
        <ele>492</ele>
        <time>2018-04-19T12:27:21Z</time>
      </trkpt>
      <trkpt lat="46.65991" lon="5.60237">
        <ele>485</ele>
        <time>2018-04-19T12:27:36Z</time>
      </trkpt>
      <trkpt lat="46.65987" lon="5.60213">
        <ele>477</ele>
        <time>2018-04-19T12:27:53Z</time>
      </trkpt>
      <trkpt lat="46.65995" lon="5.60215">
        <ele>479</ele>
        <time>2018-04-19T12:29:41Z</time>
      </trkpt>
      <trkpt lat="46.65991" lon="5.60209">
        <ele>478</ele>
        <time>2018-04-19T12:29:48Z</time>
      </trkpt>
      <trkpt lat="46.65993" lon="5.60211">
        <ele>478</ele>
        <time>2018-04-19T12:30:18Z</time>
      </trkpt>
      <trkpt lat="46.65997" lon="5.60202">
        <ele>478</ele>
        <time>2018-04-19T12:30:25Z</time>
      </trkpt>
      <trkpt lat="46.65994" lon="5.60194">
        <ele>478</ele>
        <time>2018-04-19T12:30:39Z</time>
      </trkpt>
      <trkpt lat="46.65998" lon="5.6019">
        <ele>479</ele>
        <time>2018-04-19T12:31:11Z</time>
      </trkpt>
      <trkpt lat="46.65999" lon="5.60181">
        <ele>480</ele>
        <time>2018-04-19T12:33:11Z</time>
      </trkpt>
      <trkpt lat="46.66002" lon="5.60179">
        <ele>495</ele>
        <time>2018-04-19T12:36:25Z</time>
      </trkpt>
      <trkpt lat="46.66001" lon="5.60181">
        <ele>496</ele>
        <time>2018-04-19T12:37:01Z</time>
      </trkpt>
      <trkpt lat="46.65996" lon="5.60183">
        <ele>480</ele>
        <time>2018-04-19T12:37:06Z</time>
      </trkpt>
      <trkpt lat="46.65996" lon="5.60191">
        <ele>478</ele>
        <time>2018-04-19T12:39:10Z</time>
      </trkpt>
      <trkpt lat="46.66" lon="5.60199">
        <ele>502</ele>
        <time>2018-04-19T12:39:20Z</time>
      </trkpt>
      <trkpt lat="46.65997" lon="5.60206">
        <ele>478</ele>
        <time>2018-04-19T12:39:28Z</time>
      </trkpt>
      <trkpt lat="46.65993" lon="5.6021">
        <ele>478</ele>
        <time>2018-04-19T12:39:34Z</time>
      </trkpt>
      <trkpt lat="46.65991" lon="5.60216">
        <ele>479</ele>
        <time>2018-04-19T12:39:52Z</time>
      </trkpt>
      <trkpt lat="46.65988" lon="5.60223">
        <ele>480</ele>
        <time>2018-04-19T12:40:46Z</time>
      </trkpt>
      <trkpt lat="46.65998" lon="5.60243">
        <ele>492</ele>
        <time>2018-04-19T12:41:21Z</time>
      </trkpt>
      <trkpt lat="46.66" lon="5.60257">
        <ele>493</ele>
        <time>2018-04-19T12:41:27Z</time>
      </trkpt>
      <trkpt lat="46.66006" lon="5.60233">
        <ele>504</ele>
        <time>2018-04-19T12:41:57Z</time>
      </trkpt>
      <trkpt lat="46.66006" lon="5.60206">
        <ele>503</ele>
        <time>2018-04-19T12:42:16Z</time>
      </trkpt>
      <trkpt lat="46.66011" lon="5.60202">
        <ele>503</ele>
        <time>2018-04-19T12:42:33Z</time>
      </trkpt>
      <trkpt lat="46.66018" lon="5.60194">
        <ele>503</ele>
        <time>2018-04-19T12:42:43Z</time>
      </trkpt>
      <trkpt lat="46.66024" lon="5.60188">
        <ele>504</ele>
        <time>2018-04-19T12:42:55Z</time>
      </trkpt>
      <trkpt lat="46.66036" lon="5.6018">
        <ele>506</ele>
        <time>2018-04-19T12:43:15Z</time>
      </trkpt>
      <trkpt lat="46.66068" lon="5.60162">
        <ele>505</ele>
        <time>2018-04-19T12:43:59Z</time>
      </trkpt>
      <trkpt lat="46.66083" lon="5.6015">
        <ele>514</ele>
        <time>2018-04-19T12:44:22Z</time>
      </trkpt>
      <trkpt lat="46.66101" lon="5.60149">
        <ele>514</ele>
        <time>2018-04-19T12:44:42Z</time>
      </trkpt>
      <trkpt lat="46.66107" lon="5.60144">
        <ele>513</ele>
        <time>2018-04-19T12:44:52Z</time>
      </trkpt>
      <trkpt lat="46.66122" lon="5.60138">
        <ele>513</ele>
        <time>2018-04-19T12:45:08Z</time>
      </trkpt>
      <trkpt lat="46.66141" lon="5.60136">
        <ele>514</ele>
        <time>2018-04-19T12:45:26Z</time>
      </trkpt>
      <trkpt lat="46.66169" lon="5.60143">
        <ele>523</ele>
        <time>2018-04-19T12:45:51Z</time>
      </trkpt>
      <trkpt lat="46.66177" lon="5.6015">
        <ele>524</ele>
        <time>2018-04-19T12:46:01Z</time>
      </trkpt>
      <trkpt lat="46.66177" lon="5.60164">
        <ele>527</ele>
        <time>2018-04-19T12:46:14Z</time>
      </trkpt>
      <trkpt lat="46.66189" lon="5.60198">
        <ele>537</ele>
        <time>2018-04-19T12:46:52Z</time>
      </trkpt>
      <trkpt lat="46.66214" lon="5.60218">
        <ele>539</ele>
        <time>2018-04-19T12:47:29Z</time>
      </trkpt>
      <trkpt lat="46.66221" lon="5.60225">
        <ele>541</ele>
        <time>2018-04-19T12:47:37Z</time>
      </trkpt>
      <trkpt lat="46.66225" lon="5.60236">
        <ele>542</ele>
        <time>2018-04-19T12:47:44Z</time>
      </trkpt>
      <trkpt lat="46.66254" lon="5.6026">
        <ele>549</ele>
        <time>2018-04-19T12:48:18Z</time>
      </trkpt>
      <trkpt lat="46.66263" lon="5.6026">
        <ele>549</ele>
        <time>2018-04-19T12:48:27Z</time>
      </trkpt>
      <trkpt lat="46.66273" lon="5.60281">
        <ele>548</ele>
        <time>2018-04-19T12:52:21Z</time>
      </trkpt>
      <trkpt lat="46.66276" lon="5.60287">
        <ele>548</ele>
        <time>2018-04-19T12:52:25Z</time>
      </trkpt>
      <trkpt lat="46.66279" lon="5.60293">
        <ele>548</ele>
        <time>2018-04-19T12:52:29Z</time>
      </trkpt>
      <trkpt lat="46.66283" lon="5.60299">
        <ele>548</ele>
        <time>2018-04-19T12:52:38Z</time>
      </trkpt>
      <trkpt lat="46.66292" lon="5.60309">
        <ele>548</ele>
        <time>2018-04-19T12:52:46Z</time>
      </trkpt>
      <trkpt lat="46.66302" lon="5.60322">
        <ele>548</ele>
        <time>2018-04-19T12:52:58Z</time>
      </trkpt>
      <trkpt lat="46.66309" lon="5.60332">
        <ele>548</ele>
        <time>2018-04-19T12:53:06Z</time>
      </trkpt>
      <trkpt lat="46.6632" lon="5.60348">
        <ele>548</ele>
        <time>2018-04-19T12:53:19Z</time>
      </trkpt>
      <trkpt lat="46.66327" lon="5.60358">
        <ele>548</ele>
        <time>2018-04-19T12:53:27Z</time>
      </trkpt>
      <trkpt lat="46.66343" lon="5.60386">
        <ele>549</ele>
        <time>2018-04-19T12:53:48Z</time>
      </trkpt>
      <trkpt lat="46.66348" lon="5.60397">
        <ele>550</ele>
        <time>2018-04-19T12:53:56Z</time>
      </trkpt>
      <trkpt lat="46.66351" lon="5.60403">
        <ele>550</ele>
        <time>2018-04-19T12:54:00Z</time>
      </trkpt>
      <trkpt lat="46.66357" lon="5.60416">
        <ele>550</ele>
        <time>2018-04-19T12:54:09Z</time>
      </trkpt>
      <trkpt lat="46.66373" lon="5.60456">
        <ele>551</ele>
        <time>2018-04-19T12:54:33Z</time>
      </trkpt>
      <trkpt lat="46.66379" lon="5.60469">
        <ele>551</ele>
        <time>2018-04-19T12:54:41Z</time>
      </trkpt>
      <trkpt lat="46.66385" lon="5.60482">
        <ele>551</ele>
        <time>2018-04-19T12:54:49Z</time>
      </trkpt>
      <trkpt lat="46.66388" lon="5.60487">
        <ele>551</ele>
        <time>2018-04-19T12:54:53Z</time>
      </trkpt>
      <trkpt lat="46.66399" lon="5.60504">
        <ele>551</ele>
        <time>2018-04-19T12:55:05Z</time>
      </trkpt>
      <trkpt lat="46.66405" lon="5.60516">
        <ele>551</ele>
        <time>2018-04-19T12:55:13Z</time>
      </trkpt>
      <trkpt lat="46.66408" lon="5.60522">
        <ele>551</ele>
        <time>2018-04-19T12:55:17Z</time>
      </trkpt>
      <trkpt lat="46.66412" lon="5.60526">
        <ele>551</ele>
        <time>2018-04-19T12:55:21Z</time>
      </trkpt>
      <trkpt lat="46.66418" lon="5.60538">
        <ele>556</ele>
        <time>2018-04-19T12:55:29Z</time>
      </trkpt>
      <trkpt lat="46.66422" lon="5.60544">
        <ele>556</ele>
        <time>2018-04-19T12:55:33Z</time>
      </trkpt>
      <trkpt lat="46.66429" lon="5.60553">
        <ele>557</ele>
        <time>2018-04-19T12:55:41Z</time>
      </trkpt>
      <trkpt lat="46.66434" lon="5.6056">
        <ele>557</ele>
        <time>2018-04-19T12:55:47Z</time>
      </trkpt>
      <trkpt lat="46.66441" lon="5.6057">
        <ele>557</ele>
        <time>2018-04-19T12:55:55Z</time>
      </trkpt>
      <trkpt lat="46.66444" lon="5.60575">
        <ele>557</ele>
        <time>2018-04-19T12:55:59Z</time>
      </trkpt>
      <trkpt lat="46.66449" lon="5.60583">
        <ele>558</ele>
        <time>2018-04-19T12:56:20Z</time>
      </trkpt>
      <trkpt lat="46.66453" lon="5.60587">
        <ele>557</ele>
        <time>2018-04-19T12:56:24Z</time>
      </trkpt>
      <trkpt lat="46.66456" lon="5.60593">
        <ele>557</ele>
        <time>2018-04-19T12:56:28Z</time>
      </trkpt>
      <trkpt lat="46.6646" lon="5.60598">
        <ele>557</ele>
        <time>2018-04-19T12:56:32Z</time>
      </trkpt>
      <trkpt lat="46.66465" lon="5.60593">
        <ele>557</ele>
        <time>2018-04-19T12:56:37Z</time>
      </trkpt>
      <trkpt lat="46.66469" lon="5.60581">
        <ele>560</ele>
        <time>2018-04-19T12:56:44Z</time>
      </trkpt>
      <trkpt lat="46.66477" lon="5.60553">
        <ele>559</ele>
        <time>2018-04-19T12:56:57Z</time>
      </trkpt>
      <trkpt lat="46.66478" lon="5.60546">
        <ele>559</ele>
        <time>2018-04-19T12:57:00Z</time>
      </trkpt>
      <trkpt lat="46.66479" lon="5.60538">
        <ele>559</ele>
        <time>2018-04-19T12:57:04Z</time>
      </trkpt>
      <trkpt lat="46.66481" lon="5.60532">
        <ele>559</ele>
        <time>2018-04-19T12:57:07Z</time>
      </trkpt>
      <trkpt lat="46.66483" lon="5.60518">
        <ele>559</ele>
        <time>2018-04-19T12:57:14Z</time>
      </trkpt>
      <trkpt lat="46.66485" lon="5.60511">
        <ele>560</ele>
        <time>2018-04-19T12:57:18Z</time>
      </trkpt>
      <trkpt lat="46.66487" lon="5.60505">
        <ele>560</ele>
        <time>2018-04-19T12:57:22Z</time>
      </trkpt>
      <trkpt lat="46.66488" lon="5.60498">
        <ele>560</ele>
        <time>2018-04-19T12:57:26Z</time>
      </trkpt>
      <trkpt lat="46.66488" lon="5.6049">
        <ele>559</ele>
        <time>2018-04-19T12:57:30Z</time>
      </trkpt>
      <trkpt lat="46.66483" lon="5.60432">
        <ele>557</ele>
        <time>2018-04-19T12:58:04Z</time>
      </trkpt>
      <trkpt lat="46.66482" lon="5.60425">
        <ele>557</ele>
        <time>2018-04-19T12:58:08Z</time>
      </trkpt>
      <trkpt lat="46.6648" lon="5.6041">
        <ele>557</ele>
        <time>2018-04-19T12:58:17Z</time>
      </trkpt>
      <trkpt lat="46.66479" lon="5.60403">
        <ele>556</ele>
        <time>2018-04-19T12:58:48Z</time>
      </trkpt>
      <trkpt lat="46.66476" lon="5.60388">
        <ele>556</ele>
        <time>2018-04-19T12:58:59Z</time>
      </trkpt>
      <trkpt lat="46.66476" lon="5.60372">
        <ele>555</ele>
        <time>2018-04-19T12:59:09Z</time>
      </trkpt>
      <trkpt lat="46.66477" lon="5.60364">
        <ele>555</ele>
        <time>2018-04-19T12:59:13Z</time>
      </trkpt>
      <trkpt lat="46.66476" lon="5.60355">
        <ele>555</ele>
        <time>2018-04-19T12:59:17Z</time>
      </trkpt>
      <trkpt lat="46.66474" lon="5.60332">
        <ele>554</ele>
        <time>2018-04-19T12:59:29Z</time>
      </trkpt>
      <trkpt lat="46.66473" lon="5.60324">
        <ele>554</ele>
        <time>2018-04-19T12:59:33Z</time>
      </trkpt>
      <trkpt lat="46.6647" lon="5.60301">
        <ele>554</ele>
        <time>2018-04-19T12:59:49Z</time>
      </trkpt>
      <trkpt lat="46.66463" lon="5.60281">
        <ele>553</ele>
        <time>2018-04-19T13:00:02Z</time>
      </trkpt>
      <trkpt lat="46.66465" lon="5.60273">
        <ele>553</ele>
        <time>2018-04-19T13:00:51Z</time>
      </trkpt>
      <trkpt lat="46.66464" lon="5.60259">
        <ele>553</ele>
        <time>2018-04-19T13:01:10Z</time>
      </trkpt>
      <trkpt lat="46.66465" lon="5.60252">
        <ele>553</ele>
        <time>2018-04-19T13:01:15Z</time>
      </trkpt>
      <trkpt lat="46.66465" lon="5.60244">
        <ele>552</ele>
        <time>2018-04-19T13:01:28Z</time>
      </trkpt>
      <trkpt lat="46.66463" lon="5.60238">
        <ele>552</ele>
        <time>2018-04-19T13:01:36Z</time>
      </trkpt>
      <trkpt lat="46.66463" lon="5.6023">
        <ele>551</ele>
        <time>2018-04-19T13:01:42Z</time>
      </trkpt>
      <trkpt lat="46.66467" lon="5.60223">
        <ele>551</ele>
        <time>2018-04-19T13:01:54Z</time>
      </trkpt>
      <trkpt lat="46.66474" lon="5.60217">
        <ele>552</ele>
        <time>2018-04-19T13:02:48Z</time>
      </trkpt>
      <trkpt lat="46.6647" lon="5.60216">
        <ele>551</ele>
        <time>2018-04-19T13:03:40Z</time>
      </trkpt>
      <trkpt lat="46.66465" lon="5.60218">
        <ele>551</ele>
        <time>2018-04-19T13:03:46Z</time>
      </trkpt>
      <trkpt lat="46.66459" lon="5.60235">
        <ele>551</ele>
        <time>2018-04-19T13:05:55Z</time>
      </trkpt>
      <trkpt lat="46.66461" lon="5.60246">
        <ele>552</ele>
        <time>2018-04-19T13:06:07Z</time>
      </trkpt>
      <trkpt lat="46.66459" lon="5.60253">
        <ele>553</ele>
        <time>2018-04-19T13:06:25Z</time>
      </trkpt>
      <trkpt lat="46.6646" lon="5.6026">
        <ele>553</ele>
        <time>2018-04-19T13:06:37Z</time>
      </trkpt>
      <trkpt lat="46.6646" lon="5.60267">
        <ele>553</ele>
        <time>2018-04-19T13:06:49Z</time>
      </trkpt>
      <trkpt lat="46.66464" lon="5.60275">
        <ele>553</ele>
        <time>2018-04-19T13:07:19Z</time>
      </trkpt>
      <trkpt lat="46.66464" lon="5.60284">
        <ele>553</ele>
        <time>2018-04-19T13:07:26Z</time>
      </trkpt>
      <trkpt lat="46.66469" lon="5.603">
        <ele>554</ele>
        <time>2018-04-19T13:07:39Z</time>
      </trkpt>
      <trkpt lat="46.66471" lon="5.60307">
        <ele>554</ele>
        <time>2018-04-19T13:07:44Z</time>
      </trkpt>
      <trkpt lat="46.66472" lon="5.60314">
        <ele>554</ele>
        <time>2018-04-19T13:07:49Z</time>
      </trkpt>
      <trkpt lat="46.66474" lon="5.60329">
        <ele>554</ele>
        <time>2018-04-19T13:07:59Z</time>
      </trkpt>
      <trkpt lat="46.66474" lon="5.60336">
        <ele>555</ele>
        <time>2018-04-19T13:08:04Z</time>
      </trkpt>
      <trkpt lat="46.66474" lon="5.60346">
        <ele>555</ele>
        <time>2018-04-19T13:08:19Z</time>
      </trkpt>
      <trkpt lat="46.66477" lon="5.60344">
        <ele>555</ele>
        <time>2018-04-19T13:08:30Z</time>
      </trkpt>
      <trkpt lat="46.66473" lon="5.60313">
        <ele>554</ele>
        <time>2018-04-19T13:08:46Z</time>
      </trkpt>
      <trkpt lat="46.66472" lon="5.60307">
        <ele>554</ele>
        <time>2018-04-19T13:08:50Z</time>
      </trkpt>
      <trkpt lat="46.66465" lon="5.60279">
        <ele>553</ele>
        <time>2018-04-19T13:09:09Z</time>
      </trkpt>
      <trkpt lat="46.66464" lon="5.60268">
        <ele>553</ele>
        <time>2018-04-19T13:09:19Z</time>
      </trkpt>
      <trkpt lat="46.6646" lon="5.6026">
        <ele>553</ele>
        <time>2018-04-19T13:09:31Z</time>
      </trkpt>
      <trkpt lat="46.66458" lon="5.60251">
        <ele>553</ele>
        <time>2018-04-19T13:10:06Z</time>
      </trkpt>
      <trkpt lat="46.66459" lon="5.60245">
        <ele>552</ele>
        <time>2018-04-19T13:10:11Z</time>
      </trkpt>
      <trkpt lat="46.66462" lon="5.60245">
        <ele>552</ele>
        <time>2018-04-19T13:10:29Z</time>
      </trkpt>
      <trkpt lat="46.66464" lon="5.60252">
        <ele>553</ele>
        <time>2018-04-19T13:11:13Z</time>
      </trkpt>
      <trkpt lat="46.66466" lon="5.60257">
        <ele>553</ele>
        <time>2018-04-19T13:11:19Z</time>
      </trkpt>
      <trkpt lat="46.66466" lon="5.60265">
        <ele>553</ele>
        <time>2018-04-19T13:11:43Z</time>
      </trkpt>
      <trkpt lat="46.6647" lon="5.60287">
        <ele>554</ele>
        <time>2018-04-19T13:12:07Z</time>
      </trkpt>
      <trkpt lat="46.66472" lon="5.60295">
        <ele>554</ele>
        <time>2018-04-19T13:12:12Z</time>
      </trkpt>
      <trkpt lat="46.66471" lon="5.60302">
        <ele>554</ele>
        <time>2018-04-19T13:12:17Z</time>
      </trkpt>
      <trkpt lat="46.66472" lon="5.60324">
        <ele>554</ele>
        <time>2018-04-19T13:12:30Z</time>
      </trkpt>
      <trkpt lat="46.66475" lon="5.60345">
        <ele>555</ele>
        <time>2018-04-19T13:12:42Z</time>
      </trkpt>
      <trkpt lat="46.66475" lon="5.60354">
        <ele>555</ele>
        <time>2018-04-19T13:12:47Z</time>
      </trkpt>
      <trkpt lat="46.66476" lon="5.60361">
        <ele>555</ele>
        <time>2018-04-19T13:12:51Z</time>
      </trkpt>
      <trkpt lat="46.66476" lon="5.60369">
        <ele>555</ele>
        <time>2018-04-19T13:12:56Z</time>
      </trkpt>
      <trkpt lat="46.66477" lon="5.60375">
        <ele>555</ele>
        <time>2018-04-19T13:13:00Z</time>
      </trkpt>
      <trkpt lat="46.66478" lon="5.60383">
        <ele>556</ele>
        <time>2018-04-19T13:13:03Z</time>
      </trkpt>
      <trkpt lat="46.66478" lon="5.60391">
        <ele>556</ele>
        <time>2018-04-19T13:13:07Z</time>
      </trkpt>
      <trkpt lat="46.66478" lon="5.60398">
        <ele>556</ele>
        <time>2018-04-19T13:13:11Z</time>
      </trkpt>
      <trkpt lat="46.66485" lon="5.60456">
        <ele>557</ele>
        <time>2018-04-19T13:13:44Z</time>
      </trkpt>
      <trkpt lat="46.66485" lon="5.60463">
        <ele>558</ele>
        <time>2018-04-19T13:13:48Z</time>
      </trkpt>
      <trkpt lat="46.66486" lon="5.6047">
        <ele>558</ele>
        <time>2018-04-19T13:13:52Z</time>
      </trkpt>
      <trkpt lat="46.66486" lon="5.60478">
        <ele>558</ele>
        <time>2018-04-19T13:13:57Z</time>
      </trkpt>
      <trkpt lat="46.66487" lon="5.60499">
        <ele>560</ele>
        <time>2018-04-19T13:14:07Z</time>
      </trkpt>
      <trkpt lat="46.66487" lon="5.60506">
        <ele>560</ele>
        <time>2018-04-19T13:14:12Z</time>
      </trkpt>
      <trkpt lat="46.66486" lon="5.60514">
        <ele>560</ele>
        <time>2018-04-19T13:14:17Z</time>
      </trkpt>
      <trkpt lat="46.66484" lon="5.60521">
        <ele>559</ele>
        <time>2018-04-19T13:14:21Z</time>
      </trkpt>
      <trkpt lat="46.6648" lon="5.60534">
        <ele>559</ele>
        <time>2018-04-19T13:14:29Z</time>
      </trkpt>
      <trkpt lat="46.66478" lon="5.60541">
        <ele>559</ele>
        <time>2018-04-19T13:14:34Z</time>
      </trkpt>
      <trkpt lat="46.66472" lon="5.60568">
        <ele>559</ele>
        <time>2018-04-19T13:14:51Z</time>
      </trkpt>
      <trkpt lat="46.66465" lon="5.60595">
        <ele>557</ele>
        <time>2018-04-19T13:15:07Z</time>
      </trkpt>
      <trkpt lat="46.66456" lon="5.60593">
        <ele>557</ele>
        <time>2018-04-19T13:15:16Z</time>
      </trkpt>
      <trkpt lat="46.66443" lon="5.6057">
        <ele>557</ele>
        <time>2018-04-19T13:15:33Z</time>
      </trkpt>
      <trkpt lat="46.66433" lon="5.60555">
        <ele>557</ele>
        <time>2018-04-19T13:15:43Z</time>
      </trkpt>
      <trkpt lat="46.66426" lon="5.60545">
        <ele>556</ele>
        <time>2018-04-19T13:15:51Z</time>
      </trkpt>
      <trkpt lat="46.66422" lon="5.6054">
        <ele>556</ele>
        <time>2018-04-19T13:15:55Z</time>
      </trkpt>
      <trkpt lat="46.66403" lon="5.6051">
        <ele>551</ele>
        <time>2018-04-19T13:16:19Z</time>
      </trkpt>
      <trkpt lat="46.66399" lon="5.60503">
        <ele>551</ele>
        <time>2018-04-19T13:16:23Z</time>
      </trkpt>
      <trkpt lat="46.66389" lon="5.60489">
        <ele>551</ele>
        <time>2018-04-19T13:16:35Z</time>
      </trkpt>
      <trkpt lat="46.66386" lon="5.60484">
        <ele>551</ele>
        <time>2018-04-19T13:16:39Z</time>
      </trkpt>
      <trkpt lat="46.66382" lon="5.60479">
        <ele>551</ele>
        <time>2018-04-19T13:16:43Z</time>
      </trkpt>
      <trkpt lat="46.66373" lon="5.60463">
        <ele>551</ele>
        <time>2018-04-19T13:16:55Z</time>
      </trkpt>
      <trkpt lat="46.6637" lon="5.60457">
        <ele>551</ele>
        <time>2018-04-19T13:16:59Z</time>
      </trkpt>
      <trkpt lat="46.66363" lon="5.60437">
        <ele>551</ele>
        <time>2018-04-19T13:17:11Z</time>
      </trkpt>
      <trkpt lat="46.6636" lon="5.60431">
        <ele>551</ele>
        <time>2018-04-19T13:17:15Z</time>
      </trkpt>
      <trkpt lat="46.66355" lon="5.60418">
        <ele>550</ele>
        <time>2018-04-19T13:17:23Z</time>
      </trkpt>
      <trkpt lat="46.66349" lon="5.60405">
        <ele>550</ele>
        <time>2018-04-19T13:17:31Z</time>
      </trkpt>
      <trkpt lat="46.66344" lon="5.60394">
        <ele>550</ele>
        <time>2018-04-19T13:17:39Z</time>
      </trkpt>
      <trkpt lat="46.66335" lon="5.60375">
        <ele>549</ele>
        <time>2018-04-19T13:17:52Z</time>
      </trkpt>
      <trkpt lat="46.66328" lon="5.60365">
        <ele>548</ele>
        <time>2018-04-19T13:18:00Z</time>
      </trkpt>
      <trkpt lat="46.66324" lon="5.60361">
        <ele>548</ele>
        <time>2018-04-19T13:18:04Z</time>
      </trkpt>
      <trkpt lat="46.6632" lon="5.60356">
        <ele>548</ele>
        <time>2018-04-19T13:18:08Z</time>
      </trkpt>
      <trkpt lat="46.66317" lon="5.60352">
        <ele>548</ele>
        <time>2018-04-19T13:18:12Z</time>
      </trkpt>
      <trkpt lat="46.66313" lon="5.60346">
        <ele>548</ele>
        <time>2018-04-19T13:18:16Z</time>
      </trkpt>
      <trkpt lat="46.66302" lon="5.6033">
        <ele>548</ele>
        <time>2018-04-19T13:18:28Z</time>
      </trkpt>
      <trkpt lat="46.66296" lon="5.60318">
        <ele>548</ele>
        <time>2018-04-19T13:18:36Z</time>
      </trkpt>
      <trkpt lat="46.66288" lon="5.60308">
        <ele>548</ele>
        <time>2018-04-19T13:18:44Z</time>
      </trkpt>
      <trkpt lat="46.66286" lon="5.60303">
        <ele>548</ele>
        <time>2018-04-19T13:18:48Z</time>
      </trkpt>
      <trkpt lat="46.66283" lon="5.60297">
        <ele>548</ele>
        <time>2018-04-19T13:18:52Z</time>
      </trkpt>
      <trkpt lat="46.6628" lon="5.6029">
        <ele>548</ele>
        <time>2018-04-19T13:19:02Z</time>
      </trkpt>
      <trkpt lat="46.6627" lon="5.6027">
        <ele>549</ele>
        <time>2018-04-19T13:19:22Z</time>
      </trkpt>
      <trkpt lat="46.66267" lon="5.60262">
        <ele>549</ele>
        <time>2018-04-19T13:19:30Z</time>
      </trkpt>
      <trkpt lat="46.66258" lon="5.60262">
        <ele>549</ele>
        <time>2018-04-19T13:20:33Z</time>
      </trkpt>
      <trkpt lat="46.66263" lon="5.60258">
        <ele>549</ele>
        <time>2018-04-19T13:21:40Z</time>
      </trkpt>
      <trkpt lat="46.66254" lon="5.60255">
        <ele>550</ele>
        <time>2018-04-19T13:22:03Z</time>
      </trkpt>
      <trkpt lat="46.66248" lon="5.60251">
        <ele>550</ele>
        <time>2018-04-19T13:22:09Z</time>
      </trkpt>
      <trkpt lat="46.66243" lon="5.6025">
        <ele>547</ele>
        <time>2018-04-19T13:22:13Z</time>
      </trkpt>
      <trkpt lat="46.66238" lon="5.60247">
        <ele>545</ele>
        <time>2018-04-19T13:22:18Z</time>
      </trkpt>
      <trkpt lat="46.6623" lon="5.60239">
        <ele>543</ele>
        <time>2018-04-19T13:22:26Z</time>
      </trkpt>
      <trkpt lat="46.66224" lon="5.60233">
        <ele>542</ele>
        <time>2018-04-19T13:22:34Z</time>
      </trkpt>
      <trkpt lat="46.66223" lon="5.60226">
        <ele>541</ele>
        <time>2018-04-19T13:22:39Z</time>
      </trkpt>
      <trkpt lat="46.66219" lon="5.60221">
        <ele>540</ele>
        <time>2018-04-19T13:22:43Z</time>
      </trkpt>
      <trkpt lat="46.66209" lon="5.60208">
        <ele>539</ele>
        <time>2018-04-19T13:22:57Z</time>
      </trkpt>
      <trkpt lat="46.66204" lon="5.60205">
        <ele>538</ele>
        <time>2018-04-19T13:23:02Z</time>
      </trkpt>
      <trkpt lat="46.662" lon="5.60204">
        <ele>538</ele>
        <time>2018-04-19T13:23:07Z</time>
      </trkpt>
      <trkpt lat="46.66191" lon="5.60197">
        <ele>537</ele>
        <time>2018-04-19T13:23:16Z</time>
      </trkpt>
      <trkpt lat="46.66186" lon="5.60191">
        <ele>536</ele>
        <time>2018-04-19T13:23:21Z</time>
      </trkpt>
      <trkpt lat="46.66183" lon="5.60186">
        <ele>535</ele>
        <time>2018-04-19T13:23:25Z</time>
      </trkpt>
      <trkpt lat="46.6618" lon="5.60172">
        <ele>534</ele>
        <time>2018-04-19T13:23:33Z</time>
      </trkpt>
      <trkpt lat="46.66178" lon="5.60163">
        <ele>526</ele>
        <time>2018-04-19T13:23:40Z</time>
      </trkpt>
      <trkpt lat="46.66179" lon="5.6015">
        <ele>524</ele>
        <time>2018-04-19T13:23:51Z</time>
      </trkpt>
      <trkpt lat="46.66181" lon="5.60141">
        <ele>522</ele>
        <time>2018-04-19T13:24:39Z</time>
      </trkpt>
      <trkpt lat="46.66186" lon="5.60135">
        <ele>521</ele>
        <time>2018-04-19T13:24:47Z</time>
      </trkpt>
      <trkpt lat="46.6619" lon="5.60133">
        <ele>520</ele>
        <time>2018-04-19T13:24:52Z</time>
      </trkpt>
      <trkpt lat="46.66195" lon="5.60133">
        <ele>520</ele>
        <time>2018-04-19T13:24:56Z</time>
      </trkpt>
      <trkpt lat="46.662" lon="5.60133">
        <ele>520</ele>
        <time>2018-04-19T13:25:00Z</time>
      </trkpt>
      <trkpt lat="46.66204" lon="5.60134">
        <ele>521</ele>
        <time>2018-04-19T13:25:04Z</time>
      </trkpt>
      <trkpt lat="46.66219" lon="5.60136">
        <ele>522</ele>
        <time>2018-04-19T13:25:20Z</time>
      </trkpt>
      <trkpt lat="46.66224" lon="5.60137">
        <ele>522</ele>
        <time>2018-04-19T13:25:24Z</time>
      </trkpt>
      <trkpt lat="46.66229" lon="5.60135">
        <ele>522</ele>
        <time>2018-04-19T13:25:28Z</time>
      </trkpt>
      <trkpt lat="46.66239" lon="5.60131">
        <ele>522</ele>
        <time>2018-04-19T13:25:38Z</time>
      </trkpt>
      <trkpt lat="46.66244" lon="5.60131">
        <ele>522</ele>
        <time>2018-04-19T13:25:42Z</time>
      </trkpt>
      <trkpt lat="46.66257" lon="5.60125">
        <ele>524</ele>
        <time>2018-04-19T13:25:57Z</time>
      </trkpt>
      <trkpt lat="46.66266" lon="5.6012">
        <ele>523</ele>
        <time>2018-04-19T13:26:03Z</time>
      </trkpt>
      <trkpt lat="46.66271" lon="5.60117">
        <ele>522</ele>
        <time>2018-04-19T13:26:07Z</time>
      </trkpt>
      <trkpt lat="46.66289" lon="5.60106">
        <ele>522</ele>
        <time>2018-04-19T13:26:22Z</time>
      </trkpt>
      <trkpt lat="46.66294" lon="5.60101">
        <ele>521</ele>
        <time>2018-04-19T13:26:30Z</time>
      </trkpt>
      <trkpt lat="46.66303" lon="5.60094">
        <ele>521</ele>
        <time>2018-04-19T13:26:40Z</time>
      </trkpt>
      <trkpt lat="46.66307" lon="5.6009">
        <ele>520</ele>
        <time>2018-04-19T13:26:45Z</time>
      </trkpt>
      <trkpt lat="46.66313" lon="5.60088">
        <ele>520</ele>
        <time>2018-04-19T13:26:53Z</time>
      </trkpt>
      <trkpt lat="46.66317" lon="5.60084">
        <ele>519</ele>
        <time>2018-04-19T13:26:59Z</time>
      </trkpt>
      <trkpt lat="46.66336" lon="5.60071">
        <ele>510</ele>
        <time>2018-04-19T13:27:22Z</time>
      </trkpt>
      <trkpt lat="46.66345" lon="5.60065">
        <ele>507</ele>
        <time>2018-04-19T13:27:32Z</time>
      </trkpt>
      <trkpt lat="46.66374" lon="5.60053">
        <ele>504</ele>
        <time>2018-04-19T13:27:59Z</time>
      </trkpt>
      <trkpt lat="46.66379" lon="5.60053">
        <ele>505</ele>
        <time>2018-04-19T13:28:03Z</time>
      </trkpt>
      <trkpt lat="46.66384" lon="5.6005">
        <ele>504</ele>
        <time>2018-04-19T13:28:07Z</time>
      </trkpt>
      <trkpt lat="46.66388" lon="5.60048">
        <ele>504</ele>
        <time>2018-04-19T13:28:11Z</time>
      </trkpt>
      <trkpt lat="46.66423" lon="5.60024">
        <ele>507</ele>
        <time>2018-04-19T13:28:45Z</time>
      </trkpt>
      <trkpt lat="46.66427" lon="5.60019">
        <ele>506</ele>
        <time>2018-04-19T13:28:49Z</time>
      </trkpt>
      <trkpt lat="46.66437" lon="5.60013">
        <ele>507</ele>
        <time>2018-04-19T13:29:00Z</time>
      </trkpt>
      <trkpt lat="46.66458" lon="5.59995">
        <ele>487</ele>
        <time>2018-04-19T13:29:27Z</time>
      </trkpt>
      <trkpt lat="46.66463" lon="5.59994">
        <ele>488</ele>
        <time>2018-04-19T13:29:32Z</time>
      </trkpt>
      <trkpt lat="46.6647" lon="5.59996">
        <ele>490</ele>
        <time>2018-04-19T13:29:41Z</time>
      </trkpt>
      <trkpt lat="46.66476" lon="5.59992">
        <ele>492</ele>
        <time>2018-04-19T13:29:48Z</time>
      </trkpt>
      <trkpt lat="46.6648" lon="5.59989">
        <ele>492</ele>
        <time>2018-04-19T13:29:53Z</time>
      </trkpt>
      <trkpt lat="46.66497" lon="5.59981">
        <ele>494</ele>
        <time>2018-04-19T13:30:11Z</time>
      </trkpt>
      <trkpt lat="46.66502" lon="5.59977">
        <ele>504</ele>
        <time>2018-04-19T13:30:16Z</time>
      </trkpt>
      <trkpt lat="46.66517" lon="5.59969">
        <ele>502</ele>
        <time>2018-04-19T13:30:29Z</time>
      </trkpt>
      <trkpt lat="46.66534" lon="5.59953">
        <ele>500</ele>
        <time>2018-04-19T13:30:45Z</time>
      </trkpt>
      <trkpt lat="46.66538" lon="5.59948">
        <ele>500</ele>
        <time>2018-04-19T13:30:49Z</time>
      </trkpt>
      <trkpt lat="46.66542" lon="5.59942">
        <ele>499</ele>
        <time>2018-04-19T13:30:54Z</time>
      </trkpt>
      <trkpt lat="46.66553" lon="5.59926">
        <ele>499</ele>
        <time>2018-04-19T13:31:07Z</time>
      </trkpt>
      <trkpt lat="46.6656" lon="5.59915">
        <ele>481</ele>
        <time>2018-04-19T13:31:16Z</time>
      </trkpt>
      <trkpt lat="46.66564" lon="5.59911">
        <ele>482</ele>
        <time>2018-04-19T13:31:20Z</time>
      </trkpt>
      <trkpt lat="46.66576" lon="5.59899">
        <ele>483</ele>
        <time>2018-04-19T13:31:34Z</time>
      </trkpt>
      <trkpt lat="46.66588" lon="5.59885">
        <ele>499</ele>
        <time>2018-04-19T13:31:46Z</time>
      </trkpt>
      <trkpt lat="46.66591" lon="5.59879">
        <ele>498</ele>
        <time>2018-04-19T13:31:51Z</time>
      </trkpt>
      <trkpt lat="46.66597" lon="5.59859">
        <ele>493</ele>
        <time>2018-04-19T13:32:03Z</time>
      </trkpt>
      <trkpt lat="46.66599" lon="5.59853">
        <ele>491</ele>
        <time>2018-04-19T13:32:07Z</time>
      </trkpt>
      <trkpt lat="46.66606" lon="5.5984">
        <ele>490</ele>
        <time>2018-04-19T13:32:17Z</time>
      </trkpt>
      <trkpt lat="46.66609" lon="5.5983">
        <ele>477</ele>
        <time>2018-04-19T13:32:25Z</time>
      </trkpt>
      <trkpt lat="46.66612" lon="5.59824">
        <ele>478</ele>
        <time>2018-04-19T13:32:30Z</time>
      </trkpt>
      <trkpt lat="46.6662" lon="5.59802">
        <ele>479</ele>
        <time>2018-04-19T13:32:45Z</time>
      </trkpt>
      <trkpt lat="46.66623" lon="5.59796">
        <ele>480</ele>
        <time>2018-04-19T13:32:50Z</time>
      </trkpt>
      <trkpt lat="46.66625" lon="5.59789">
        <ele>479</ele>
        <time>2018-04-19T13:32:55Z</time>
      </trkpt>
      <trkpt lat="46.66625" lon="5.59782">
        <ele>478</ele>
        <time>2018-04-19T13:33:00Z</time>
      </trkpt>
      <trkpt lat="46.66627" lon="5.59775">
        <ele>478</ele>
        <time>2018-04-19T13:33:04Z</time>
      </trkpt>
      <trkpt lat="46.66628" lon="5.59767">
        <ele>478</ele>
        <time>2018-04-19T13:33:08Z</time>
      </trkpt>
      <trkpt lat="46.66633" lon="5.59755">
        <ele>479</ele>
        <time>2018-04-19T13:33:16Z</time>
      </trkpt>
      <trkpt lat="46.66636" lon="5.59746">
        <ele>468</ele>
        <time>2018-04-19T13:33:23Z</time>
      </trkpt>
      <trkpt lat="46.6664" lon="5.59721">
        <ele>466</ele>
        <time>2018-04-19T13:33:42Z</time>
      </trkpt>
      <trkpt lat="46.66644" lon="5.59711">
        <ele>465</ele>
        <time>2018-04-19T13:33:52Z</time>
      </trkpt>
      <trkpt lat="46.66645" lon="5.59703">
        <ele>464</ele>
        <time>2018-04-19T13:33:57Z</time>
      </trkpt>
      <trkpt lat="46.66647" lon="5.59689">
        <ele>464</ele>
        <time>2018-04-19T13:34:07Z</time>
      </trkpt>
      <trkpt lat="46.66647" lon="5.59669">
        <ele>464</ele>
        <time>2018-04-19T13:34:22Z</time>
      </trkpt>
      <trkpt lat="46.66648" lon="5.59661">
        <ele>455</ele>
        <time>2018-04-19T13:34:30Z</time>
      </trkpt>
      <trkpt lat="46.66649" lon="5.59654">
        <ele>454</ele>
        <time>2018-04-19T13:34:36Z</time>
      </trkpt>
      <trkpt lat="46.66649" lon="5.59646">
        <ele>452</ele>
        <time>2018-04-19T13:34:41Z</time>
      </trkpt>
      <trkpt lat="46.66651" lon="5.59623">
        <ele>448</ele>
        <time>2018-04-19T13:34:56Z</time>
      </trkpt>
      <trkpt lat="46.66652" lon="5.59613">
        <ele>447</ele>
        <time>2018-04-19T13:35:04Z</time>
      </trkpt>
      <trkpt lat="46.66652" lon="5.59601">
        <ele>447</ele>
        <time>2018-04-19T13:35:13Z</time>
      </trkpt>
      <trkpt lat="46.66653" lon="5.59592">
        <ele>448</ele>
        <time>2018-04-19T13:35:20Z</time>
      </trkpt>
      <trkpt lat="46.66655" lon="5.59585">
        <ele>449</ele>
        <time>2018-04-19T13:35:25Z</time>
      </trkpt>
      <trkpt lat="46.66656" lon="5.59576">
        <ele>445</ele>
        <time>2018-04-19T13:35:32Z</time>
      </trkpt>
      <trkpt lat="46.66656" lon="5.59569">
        <ele>443</ele>
        <time>2018-04-19T13:35:36Z</time>
      </trkpt>
      <trkpt lat="46.66656" lon="5.59554">
        <ele>440</ele>
        <time>2018-04-19T13:35:46Z</time>
      </trkpt>
      <trkpt lat="46.66655" lon="5.59547">
        <ele>439</ele>
        <time>2018-04-19T13:35:51Z</time>
      </trkpt>
      <trkpt lat="46.66653" lon="5.5954">
        <ele>438</ele>
        <time>2018-04-19T13:35:56Z</time>
      </trkpt>
      <trkpt lat="46.66652" lon="5.59534">
        <ele>438</ele>
        <time>2018-04-19T13:36:00Z</time>
      </trkpt>
      <trkpt lat="46.66652" lon="5.59526">
        <ele>438</ele>
        <time>2018-04-19T13:36:07Z</time>
      </trkpt>
      <trkpt lat="46.66643" lon="5.59497">
        <ele>436</ele>
        <time>2018-04-19T13:36:53Z</time>
      </trkpt>
      <trkpt lat="46.66636" lon="5.59478">
        <ele>434</ele>
        <time>2018-04-19T13:37:09Z</time>
      </trkpt>
      <trkpt lat="46.66633" lon="5.59466">
        <ele>433</ele>
        <time>2018-04-19T13:37:17Z</time>
      </trkpt>
      <trkpt lat="46.66629" lon="5.59452">
        <ele>432</ele>
        <time>2018-04-19T13:37:24Z</time>
      </trkpt>
      <trkpt lat="46.66628" lon="5.59445">
        <ele>432</ele>
        <time>2018-04-19T13:37:28Z</time>
      </trkpt>
      <trkpt lat="46.66623" lon="5.59433">
        <ele>431</ele>
        <time>2018-04-19T13:37:38Z</time>
      </trkpt>
      <trkpt lat="46.66623" lon="5.59426">
        <ele>431</ele>
        <time>2018-04-19T13:37:43Z</time>
      </trkpt>
      <trkpt lat="46.66623" lon="5.5942">
        <ele>431</ele>
        <time>2018-04-19T13:37:48Z</time>
      </trkpt>
      <trkpt lat="46.66621" lon="5.59413">
        <ele>428</ele>
        <time>2018-04-19T13:37:52Z</time>
      </trkpt>
      <trkpt lat="46.6662" lon="5.59406">
        <ele>427</ele>
        <time>2018-04-19T13:37:56Z</time>
      </trkpt>
      <trkpt lat="46.66619" lon="5.59399">
        <ele>427</ele>
        <time>2018-04-19T13:38:00Z</time>
      </trkpt>
      <trkpt lat="46.66618" lon="5.59393">
        <ele>426</ele>
        <time>2018-04-19T13:38:04Z</time>
      </trkpt>
      <trkpt lat="46.66617" lon="5.59384">
        <ele>426</ele>
        <time>2018-04-19T13:38:08Z</time>
      </trkpt>
      <trkpt lat="46.66618" lon="5.59378">
        <ele>426</ele>
        <time>2018-04-19T13:38:12Z</time>
      </trkpt>
      <trkpt lat="46.66618" lon="5.5937">
        <ele>425</ele>
        <time>2018-04-19T13:38:17Z</time>
      </trkpt>
      <trkpt lat="46.66619" lon="5.59362">
        <ele>425</ele>
        <time>2018-04-19T13:38:22Z</time>
      </trkpt>
      <trkpt lat="46.66625" lon="5.5935">
        <ele>426</ele>
        <time>2018-04-19T13:38:31Z</time>
      </trkpt>
      <trkpt lat="46.66627" lon="5.59344">
        <ele>426</ele>
        <time>2018-04-19T13:38:36Z</time>
      </trkpt>
      <trkpt lat="46.6663" lon="5.59335">
        <ele>427</ele>
        <time>2018-04-19T13:38:44Z</time>
      </trkpt>
      <trkpt lat="46.6663" lon="5.5932">
        <ele>419</ele>
        <time>2018-04-19T13:38:53Z</time>
      </trkpt>
      <trkpt lat="46.6663" lon="5.59314">
        <ele>419</ele>
        <time>2018-04-19T13:38:56Z</time>
      </trkpt>
      <trkpt lat="46.66625" lon="5.5926">
        <ele>413</ele>
        <time>2018-04-19T13:39:30Z</time>
      </trkpt>
      <trkpt lat="46.66629" lon="5.59219">
        <ele>402</ele>
        <time>2018-04-19T13:39:57Z</time>
      </trkpt>
      <trkpt lat="46.66629" lon="5.59209">
        <ele>401</ele>
        <time>2018-04-19T13:40:04Z</time>
      </trkpt>
      <trkpt lat="46.66631" lon="5.59192">
        <ele>400</ele>
        <time>2018-04-19T13:40:15Z</time>
      </trkpt>
      <trkpt lat="46.66633" lon="5.59183">
        <ele>400</ele>
        <time>2018-04-19T13:40:22Z</time>
      </trkpt>
      <trkpt lat="46.66639" lon="5.59171">
        <ele>400</ele>
        <time>2018-04-19T13:40:34Z</time>
      </trkpt>
      <trkpt lat="46.66644" lon="5.59167">
        <ele>392</ele>
        <time>2018-04-19T13:40:39Z</time>
      </trkpt>
      <trkpt lat="46.66658" lon="5.59144">
        <ele>392</ele>
        <time>2018-04-19T13:40:58Z</time>
      </trkpt>
      <trkpt lat="46.66661" lon="5.5913">
        <ele>389</ele>
        <time>2018-04-19T13:41:06Z</time>
      </trkpt>
      <trkpt lat="46.66663" lon="5.59116">
        <ele>388</ele>
        <time>2018-04-19T13:41:14Z</time>
      </trkpt>
      <trkpt lat="46.66665" lon="5.5911">
        <ele>387</ele>
        <time>2018-04-19T13:41:18Z</time>
      </trkpt>
      <trkpt lat="46.66672" lon="5.59107">
        <ele>390</ele>
        <time>2018-04-19T13:41:25Z</time>
      </trkpt>
      <trkpt lat="46.66675" lon="5.59102">
        <ele>389</ele>
        <time>2018-04-19T13:41:30Z</time>
      </trkpt>
      <trkpt lat="46.6668" lon="5.59095">
        <ele>388</ele>
        <time>2018-04-19T13:41:37Z</time>
      </trkpt>
      <trkpt lat="46.66684" lon="5.59081">
        <ele>382</ele>
        <time>2018-04-19T13:42:03Z</time>
      </trkpt>
      <trkpt lat="46.6668" lon="5.59081">
        <ele>382</ele>
        <time>2018-04-19T13:45:02Z</time>
      </trkpt>
      <trkpt lat="46.66681" lon="5.59074">
        <ele>382</ele>
        <time>2018-04-19T13:45:09Z</time>
      </trkpt>
      <trkpt lat="46.66683" lon="5.59068">
        <ele>381</ele>
        <time>2018-04-19T13:45:13Z</time>
      </trkpt>
      <trkpt lat="46.66686" lon="5.59062">
        <ele>381</ele>
        <time>2018-04-19T13:45:17Z</time>
      </trkpt>
      <trkpt lat="46.66687" lon="5.59055">
        <ele>380</ele>
        <time>2018-04-19T13:45:22Z</time>
      </trkpt>
      <trkpt lat="46.66689" lon="5.59047">
        <ele>380</ele>
        <time>2018-04-19T13:45:26Z</time>
      </trkpt>
      <trkpt lat="46.6669" lon="5.5904">
        <ele>379</ele>
        <time>2018-04-19T13:45:29Z</time>
      </trkpt>
      <trkpt lat="46.66696" lon="5.59012">
        <ele>378</ele>
        <time>2018-04-19T13:45:48Z</time>
      </trkpt>
      <trkpt lat="46.66697" lon="5.59005">
        <ele>378</ele>
        <time>2018-04-19T13:45:52Z</time>
      </trkpt>
      <trkpt lat="46.66699" lon="5.58999">
        <ele>371</ele>
        <time>2018-04-19T13:45:56Z</time>
      </trkpt>
      <trkpt lat="46.66701" lon="5.58993">
        <ele>371</ele>
        <time>2018-04-19T13:46:00Z</time>
      </trkpt>
      <trkpt lat="46.66706" lon="5.5898">
        <ele>370</ele>
        <time>2018-04-19T13:46:09Z</time>
      </trkpt>
      <trkpt lat="46.66711" lon="5.58975">
        <ele>370</ele>
        <time>2018-04-19T13:46:14Z</time>
      </trkpt>
      <trkpt lat="46.6672" lon="5.58971">
        <ele>370</ele>
        <time>2018-04-19T13:46:24Z</time>
      </trkpt>
      <trkpt lat="46.66726" lon="5.5897">
        <ele>370</ele>
        <time>2018-04-19T13:46:28Z</time>
      </trkpt>
      <trkpt lat="46.66761" lon="5.58957">
        <ele>370</ele>
        <time>2018-04-19T13:46:59Z</time>
      </trkpt>
      <trkpt lat="46.66768" lon="5.58949">
        <ele>369</ele>
        <time>2018-04-19T13:47:15Z</time>
      </trkpt>
      <trkpt lat="46.66772" lon="5.58946">
        <ele>369</ele>
        <time>2018-04-19T13:47:19Z</time>
      </trkpt>
      <trkpt lat="46.66781" lon="5.58938">
        <ele>368</ele>
        <time>2018-04-19T13:47:26Z</time>
      </trkpt>
      <trkpt lat="46.66785" lon="5.58933">
        <ele>368</ele>
        <time>2018-04-19T13:47:30Z</time>
      </trkpt>
      <trkpt lat="46.66788" lon="5.58926">
        <ele>368</ele>
        <time>2018-04-19T13:47:34Z</time>
      </trkpt>
      <trkpt lat="46.6679" lon="5.5892">
        <ele>368</ele>
        <time>2018-04-19T13:47:38Z</time>
      </trkpt>
      <trkpt lat="46.66793" lon="5.58915">
        <ele>361</ele>
        <time>2018-04-19T13:47:42Z</time>
      </trkpt>
      <trkpt lat="46.668" lon="5.58904">
        <ele>361</ele>
        <time>2018-04-19T13:47:51Z</time>
      </trkpt>
      <trkpt lat="46.66805" lon="5.58893">
        <ele>360</ele>
        <time>2018-04-19T13:48:01Z</time>
      </trkpt>
      <trkpt lat="46.66813" lon="5.58884">
        <ele>360</ele>
        <time>2018-04-19T13:48:09Z</time>
      </trkpt>
      <trkpt lat="46.6682" lon="5.58872">
        <ele>359</ele>
        <time>2018-04-19T13:48:17Z</time>
      </trkpt>
      <trkpt lat="46.66824" lon="5.58867">
        <ele>358</ele>
        <time>2018-04-19T13:48:21Z</time>
      </trkpt>
      <trkpt lat="46.66829" lon="5.58864">
        <ele>358</ele>
        <time>2018-04-19T13:48:25Z</time>
      </trkpt>
      <trkpt lat="46.66833" lon="5.58862">
        <ele>358</ele>
        <time>2018-04-19T13:48:29Z</time>
      </trkpt>
      <trkpt lat="46.66854" lon="5.58821">
        <ele>353</ele>
        <time>2018-04-19T13:49:00Z</time>
      </trkpt>
      <trkpt lat="46.6686" lon="5.58808">
        <ele>352</ele>
        <time>2018-04-19T13:49:09Z</time>
      </trkpt>
      <trkpt lat="46.66863" lon="5.58803">
        <ele>352</ele>
        <time>2018-04-19T13:49:13Z</time>
      </trkpt>
      <trkpt lat="46.66867" lon="5.58799">
        <ele>352</ele>
        <time>2018-04-19T13:49:17Z</time>
      </trkpt>
      <trkpt lat="46.66872" lon="5.588">
        <ele>352</ele>
        <time>2018-04-19T13:49:22Z</time>
      </trkpt>
      <trkpt lat="46.66873" lon="5.58809">
        <ele>353</ele>
        <time>2018-04-19T13:49:29Z</time>
      </trkpt>
      <trkpt lat="46.66877" lon="5.58819">
        <ele>353</ele>
        <time>2018-04-19T13:49:39Z</time>
      </trkpt>
    </trkseg>
  </trk>
</gpx>